[[{"header":{"parameterUnit":"m.s-1","parameterCategory":1,"la1":30.6,"la2":29.2853,"lo1":-89.7004,"lo2":-87.6739,"dy":0.0162,"dx":0.0183,"nx":112,"ny":82,"refTime":"2023-08-13T12:00:00:Z","depth":0,"parameterNumber":2,"parameterNumberName":"U-component_of_WINDS"},"data":[0.0,0.0,0.0,0.0,0.0,0.0,0.0,0.0,0.0,0.0,0.0,0.0,0.0,0.0,0.0,0.0,0.0,0.0,0.0,0.0,0.0,0.0,0.0,0.0,0.0,0.0,0.0,0.0,0.0,0.0,0.0,0.0,0.0,0.0,0.0,0.0,0.0,0.0,0.0,0.0,0.0,0.0,0.0,0.0,0.0,0.0,0.0,0.0,0.0,0.0,0.0,0.0,0.0,0.0,0.0,0.0,0.0,0.0,0.0,0.0,0.0,0.0,0.0,0.0,0.0,0.0,0.0,0.0,0.0,0.0,0.0,0.0,0.0,0.0,0.0,0.0,0.0,0.0,0.0,0.0,0.0,0.0,0.0,0.0,0.0,0.0,0.0,0.0,0.0,0.0,-3.7585,-4.2195,-4.8605,-5.2603,-5.2698,-5.4484,-5.3574,-4.8783,0.0,0.0,0.0,0.0,0.0,0.0,0.0,0.0,0.0,0.0,0.0,0.0,0.0,0.0,0.0,0.0,0.0,0.0,0.0,0.0,0.0,0.0,0.0,0.0,0.0,0.0,0.0,0.0,0.0,0.0,0.0,0.0,0.0,0.0,0.0,0.0,0.0,0.0,0.0,0.0,0.0,0.0,0.0,0.0,0.0,0.0,0.0,0.0,0.0,0.0,0.0,0.0,0.0,0.0,0.0,0.0,0.0,0.0,0.0,0.0,0.0,0.0,0.0,0.0,0.0,0.0,0.0,0.0,0.0,0.0,0.0,0.0,0.0,0.0,0.0,0.0,0.0,0.0,0.0,0.0,0.0,0.0,0.0,0.0,0.0,0.0,0.0,0.0,0.0,0.0,0.0,0.0,0.0,0.0,0.0,0.0,0.0,0.0,0.0,0.0,0.0,0.0,0.0,0.0,-3.7964,-4.5805,-5.0121,-5.2634,-5.3158,-5.4717,-5.2203,-4.4008,0.0,0.0,0.0,0.0,0.0,0.0,0.0,0.0,0.0,0.0,0.0,0.0,0.0,0.0,0.0,0.0,0.0,0.0,0.0,0.0,0.0,0.0,0.0,0.0,0.0,0.0,0.0,0.0,0.0,0.0,0.0,0.0,0.0,0.0,0.0,0.0,0.0,0.0,0.0,0.0,0.0,0.0,0.0,0.0,0.0,0.0,0.0,0.0,0.0,0.0,0.0,0.0,0.0,0.0,0.0,0.0,0.0,0.0,0.0,0.0,0.0,0.0,0.0,0.0,0.0,0.0,0.0,0.0,0.0,0.0,0.0,0.0,0.0,0.0,0.0,0.0,0.0,0.0,0.0,0.0,0.0,0.0,0.0,0.0,0.0,0.0,0.0,0.0,0.0,0.0,0.0,0.0,0.0,0.0,0.0,0.0,0.0,0.0,0.0,0.0,0.0,0.0,0.0,-3.6222,-4.0151,-4.5569,-4.8823,-5.0775,-5.1205,-5.1503,-4.8449,-4.0866,-3.8504,0.0,0.0,0.0,0.0,0.0,0.0,0.0,0.0,0.0,0.0,0.0,0.0,0.0,0.0,0.0,0.0,0.0,0.0,0.0,0.0,0.0,0.0,0.0,0.0,0.0,0.0,0.0,0.0,0.0,0.0,0.0,0.0,0.0,0.0,0.0,0.0,0.0,0.0,0.0,0.0,0.0,0.0,0.0,0.0,0.0,0.0,0.0,0.0,0.0,0.0,0.0,0.0,0.0,0.0,0.0,0.0,0.0,0.0,0.0,0.0,0.0,0.0,0.0,0.0,0.0,0.0,0.0,0.0,0.0,0.0,0.0,0.0,0.0,0.0,0.0,0.0,0.0,0.0,0.0,0.0,0.0,0.0,0.0,0.0,0.0,0.0,0.0,0.0,0.0,0.0,0.0,0.0,0.0,0.0,0.0,0.0,0.0,0.0,0.0,0.0,0.0,0.0,-3.8954,-4.1906,-4.4527,-4.6693,-4.8161,-4.8623,-4.6316,-4.2766,-3.7856,-3.2994,0.0,0.0,0.0,0.0,0.0,0.0,0.0,0.0,0.0,0.0,0.0,0.0,0.0,0.0,0.0,0.0,0.0,0.0,0.0,0.0,0.0,0.0,0.0,0.0,0.0,0.0,0.0,0.0,0.0,0.0,0.0,0.0,0.0,0.0,0.0,0.0,0.0,0.0,0.0,0.0,0.0,0.0,0.0,0.0,0.0,0.0,0.0,0.0,0.0,0.0,0.0,0.0,0.0,0.0,0.0,0.0,0.0,0.0,0.0,0.0,0.0,0.0,0.0,0.0,0.0,0.0,0.0,0.0,0.0,0.0,0.0,0.0,0.0,0.0,0.0,0.0,0.0,0.0,0.0,0.0,0.0,0.0,0.0,0.0,0.0,0.0,0.0,0.0,0.0,0.0,0.0,0.0,0.0,0.0,0.0,0.0,0.0,0.0,0.0,0.0,0.0,0.0,-3.8286,-4.1776,-4.4013,-4.4468,-4.5058,-4.6065,-3.9207,-3.4648,-3.4177,-2.8224,0.0,0.0,0.0,0.0,0.0,0.0,0.0,0.0,0.0,0.0,0.0,0.0,0.0,0.0,0.0,0.0,0.0,0.0,0.0,0.0,0.0,0.0,0.0,0.0,0.0,0.0,0.0,0.0,0.0,0.0,0.0,0.0,0.0,0.0,0.0,0.0,0.0,0.0,0.0,0.0,0.0,0.0,0.0,0.0,0.0,0.0,0.0,0.0,0.0,0.0,0.0,0.0,0.0,0.0,0.0,0.0,0.0,0.0,0.0,0.0,0.0,0.0,0.0,0.0,0.0,0.0,0.0,0.0,0.0,0.0,0.0,0.0,0.0,0.0,0.0,0.0,0.0,0.0,0.0,0.0,0.0,0.0,0.0,0.0,0.0,0.0,0.0,0.0,0.0,0.0,0.0,0.0,0.0,0.0,0.0,0.0,0.0,0.0,0.0,0.0,0.0,0.0,-3.5432,-3.9119,0.0,-4.1691,-4.2055,-4.1458,-3.8627,-3.5683,-3.298,0.0,0.0,0.0,0.0,0.0,0.0,0.0,0.0,0.0,0.0,0.0,0.0,0.0,0.0,0.0,0.0,0.0,0.0,0.0,0.0,0.0,0.0,0.0,0.0,0.0,0.0,0.0,0.0,0.0,0.0,0.0,0.0,0.0,0.0,0.0,0.0,0.0,0.0,0.0,0.0,0.0,0.0,0.0,0.0,0.0,0.0,0.0,0.0,0.0,0.0,0.0,0.0,0.0,0.0,0.0,0.0,0.0,0.0,0.0,0.0,0.0,0.0,0.0,0.0,0.0,0.0,0.0,0.0,0.0,0.0,0.0,0.0,0.0,0.0,0.0,0.0,0.0,0.0,0.0,0.0,0.0,0.0,0.0,0.0,0.0,0.0,0.0,0.0,0.0,0.0,0.0,0.0,0.0,0.0,0.0,0.0,0.0,0.0,0.0,0.0,0.0,0.0,-2.9158,-3.3862,-3.7503,0.0,-3.9662,-4.0046,-3.9272,-3.7721,-3.5672,-3.3089,0.0,0.0,0.0,0.0,0.0,0.0,0.0,0.0,0.0,0.0,0.0,0.0,0.0,0.0,0.0,0.0,0.0,0.0,0.0,0.0,0.0,0.0,0.0,0.0,0.0,0.0,0.0,0.0,0.0,0.0,0.0,0.0,0.0,0.0,0.0,0.0,0.0,0.0,0.0,0.0,0.0,0.0,0.0,0.0,0.0,0.0,0.0,0.0,0.0,0.0,0.0,0.0,0.0,0.0,0.0,0.0,0.0,0.0,0.0,0.0,0.0,0.0,0.0,0.0,0.0,0.0,0.0,0.0,0.0,0.0,0.0,0.0,0.0,0.0,0.0,0.0,0.0,0.0,0.0,0.0,0.0,0.0,0.0,0.0,0.0,0.0,0.0,0.0,0.0,0.0,0.0,0.0,0.0,0.0,0.0,0.0,0.0,0.0,0.0,0.0,0.0,0.0,-2.9558,-3.4105,-3.7489,-3.8583,-3.8682,-3.9085,-4.0156,-3.5567,-3.3131,0.0,0.0,0.0,0.0,0.0,0.0,0.0,0.0,0.0,0.0,0.0,0.0,0.0,0.0,0.0,0.0,0.0,0.0,0.0,0.0,0.0,0.0,0.0,0.0,0.0,0.0,0.0,0.0,0.0,0.0,0.0,0.0,0.0,0.0,0.0,0.0,0.0,0.0,0.0,0.0,0.0,0.0,0.0,0.0,0.0,0.0,0.0,0.0,0.0,0.0,0.0,0.0,0.0,0.0,0.0,0.0,0.0,0.0,0.0,0.0,0.0,0.0,0.0,0.0,0.0,0.0,0.0,0.0,0.0,0.0,0.0,0.0,0.0,0.0,0.0,0.0,0.0,0.0,0.0,0.0,0.0,0.0,0.0,0.0,0.0,0.0,0.0,0.0,0.0,0.0,0.0,0.0,0.0,0.0,0.0,0.0,0.0,0.0,0.0,0.0,0.0,0.0,0.0,-2.8899,-3.2841,-3.5966,-3.7471,-3.7435,-3.7524,-3.8061,-3.5214,-3.3269,-3.3102,0.0,0.0,0.0,0.0,0.0,0.0,0.0,0.0,0.0,0.0,0.0,0.0,0.0,0.0,0.0,0.0,0.0,0.0,0.0,0.0,0.0,0.0,0.0,0.0,0.0,0.0,0.0,0.0,0.0,0.0,0.0,0.0,0.0,0.0,0.0,0.0,0.0,0.0,0.0,0.0,0.0,0.0,0.0,0.0,0.0,0.0,0.0,0.0,0.0,0.0,0.0,0.0,0.0,0.0,0.0,0.0,0.0,0.0,0.0,0.0,0.0,0.0,0.0,0.0,0.0,0.0,0.0,0.0,0.0,0.0,0.0,0.0,0.0,0.0,0.0,0.0,0.0,0.0,0.0,0.0,0.0,0.0,0.0,0.0,0.0,0.0,0.0,0.0,0.0,0.0,0.0,0.0,0.0,0.0,0.0,0.0,0.0,0.0,0.0,0.0,0.0,0.0,-2.933,-3.2897,-3.5563,-3.6872,-3.6923,-3.6834,-3.675,-3.4818,-3.2998,-3.1472,0.0,0.0,0.0,0.0,0.0,0.0,0.0,0.0,0.0,0.0,0.0,0.0,0.0,0.0,0.0,0.0,0.0,0.0,0.0,0.0,0.0,0.0,0.0,0.0,0.0,0.0,0.0,0.0,0.0,0.0,0.0,0.0,0.0,0.0,0.0,0.0,0.0,0.0,0.0,0.0,0.0,0.0,0.0,0.0,0.0,0.0,0.0,0.0,0.0,0.0,0.0,0.0,0.0,0.0,0.0,0.0,0.0,0.0,0.0,0.0,0.0,0.0,0.0,0.0,0.0,0.0,0.0,0.0,0.0,0.0,0.0,0.0,0.0,0.0,0.0,0.0,0.0,0.0,0.0,0.0,0.0,0.0,0.0,0.0,0.0,0.0,0.0,0.0,0.0,0.0,0.0,0.0,0.0,0.0,0.0,0.0,0.0,0.0,0.0,0.0,0.0,0.0,-3.0453,-3.3792,-3.5844,-3.6541,-3.6808,-3.6653,-3.5911,-3.434,-3.2353,-2.9899,0.0,0.0,0.0,0.0,0.0,0.0,0.0,0.0,0.0,0.0,0.0,0.0,0.0,0.0,0.0,0.0,0.0,0.0,0.0,0.0,0.0,0.0,0.0,0.0,0.0,0.0,0.0,0.0,0.0,0.0,0.0,0.0,0.0,0.0,0.0,0.0,0.0,0.0,0.0,0.0,0.0,0.0,0.0,0.0,0.0,0.0,0.0,0.0,0.0,0.0,0.0,0.0,0.0,0.0,0.0,0.0,0.0,0.0,0.0,0.0,-3.8248,0.0,0.0,0.0,0.0,0.0,0.0,0.0,0.0,0.0,0.0,0.0,0.0,0.0,0.0,0.0,0.0,0.0,0.0,0.0,0.0,0.0,0.0,0.0,0.0,0.0,0.0,0.0,0.0,0.0,0.0,0.0,0.0,0.0,0.0,0.0,0.0,0.0,0.0,0.0,0.0,0.0,-3.073,-3.3768,-3.5663,-3.5805,-3.5361,-3.501,-3.4839,-3.2923,-3.1244,-3.0091,-2.6926,0.0,0.0,0.0,0.0,0.0,0.0,0.0,0.0,0.0,0.0,0.0,0.0,0.0,0.0,0.0,0.0,0.0,0.0,0.0,0.0,0.0,0.0,0.0,0.0,0.0,0.0,0.0,0.0,0.0,0.0,0.0,0.0,0.0,0.0,0.0,0.0,0.0,0.0,0.0,0.0,0.0,0.0,0.0,0.0,0.0,0.0,0.0,0.0,0.0,0.0,0.0,0.0,0.0,0.0,0.0,0.0,0.0,0.0,0.0,0.0,-3.9786,0.0,0.0,0.0,0.0,0.0,0.0,0.0,0.0,0.0,0.0,0.0,0.0,0.0,0.0,0.0,0.0,0.0,0.0,0.0,0.0,0.0,0.0,0.0,0.0,0.0,0.0,0.0,0.0,0.0,0.0,0.0,0.0,0.0,0.0,0.0,0.0,0.0,0.0,0.0,0.0,-3.1866,-3.3823,-3.4951,-3.5074,-3.4726,-3.4201,-3.3491,-3.2374,-3.1106,-2.9651,-2.7723,0.0,0.0,0.0,0.0,0.0,0.0,0.0,0.0,0.0,0.0,0.0,0.0,0.0,0.0,0.0,0.0,0.0,0.0,0.0,0.0,0.0,0.0,0.0,0.0,0.0,0.0,0.0,0.0,0.0,0.0,0.0,0.0,0.0,0.0,0.0,0.0,0.0,0.0,0.0,0.0,0.0,0.0,0.0,0.0,0.0,0.0,0.0,0.0,0.0,0.0,0.0,0.0,0.0,0.0,-4.6893,-4.6746,-4.6746,-4.6746,-4.6691,-4.5498,-4.4121,-4.2601,0.0,0.0,0.0,0.0,0.0,0.0,0.0,0.0,0.0,0.0,0.0,0.0,0.0,0.0,0.0,0.0,0.0,0.0,0.0,0.0,0.0,0.0,0.0,0.0,0.0,-3.5131,-3.5537,0.0,0.0,0.0,0.0,0.0,0.0,0.0,0.0,0.0,0.0,0.0,0.0,-3.2681,-3.3584,-3.4024,-3.4269,-3.4184,-3.3609,-3.2374,-3.2171,-3.1258,-2.9296,-2.8924,-2.7655,0.0,0.0,0.0,0.0,0.0,0.0,0.0,0.0,0.0,0.0,0.0,0.0,0.0,0.0,0.0,0.0,0.0,0.0,0.0,0.0,0.0,0.0,0.0,0.0,0.0,0.0,0.0,0.0,0.0,0.0,0.0,0.0,-3.9738,-3.9969,0.0,0.0,0.0,0.0,0.0,0.0,0.0,0.0,0.0,0.0,0.0,0.0,0.0,0.0,-4.5597,-4.8403,-4.9114,-4.77,-5.0068,-5.082,-5.016,-5.016,-5.016,-5.0178,-5.0655,0.0,-4.4233,-4.2268,0.0,0.0,0.0,0.0,0.0,0.0,0.0,0.0,0.0,0.0,0.0,0.0,0.0,0.0,0.0,0.0,0.0,0.0,0.0,0.0,0.0,0.0,-3.6113,-3.4692,-3.5081,-3.5436,0.0,-3.3575,-3.2544,-3.0125,0.0,0.0,0.0,0.0,0.0,0.0,0.0,0.0,-3.1274,-3.2304,-3.3049,-3.3491,-3.2966,-3.2534,-3.2347,-3.1698,-3.0954,-3.0023,-2.8721,-2.7755,-2.7367,-2.4915,0.0,0.0,0.0,0.0,0.0,0.0,0.0,0.0,0.0,0.0,0.0,0.0,0.0,0.0,0.0,0.0,0.0,0.0,0.0,0.0,0.0,0.0,0.0,0.0,0.0,0.0,0.0,0.0,0.0,-3.8392,-4.0873,-3.9931,-4.1431,-4.1681,0.0,0.0,0.0,0.0,0.0,0.0,0.0,0.0,0.0,-4.742,-4.8259,-4.8967,-4.9547,-5.1728,-5.2234,-5.1077,-5.2619,-5.2931,-5.216,-5.216,-5.216,-5.2179,-5.2527,-5.1206,-4.8636,-4.6302,-4.4272,-4.2273,0.0,0.0,0.0,0.0,0.0,-3.6654,-3.8294,0.0,0.0,0.0,0.0,0.0,0.0,0.0,0.0,0.0,0.0,0.0,0.0,0.0,0.0,-3.5926,-3.6366,-3.6705,-3.5943,-3.552,-3.4506,0.0,-3.114,-3.0429,-2.8755,0.0,0.0,0.0,0.0,0.0,-3.179,-3.2281,-3.2534,-3.2747,-3.2476,-3.2121,-3.1698,-3.1376,-3.1055,-3.0734,-2.9313,-2.8281,-2.7806,-2.6167,-2.4628,0.0,0.0,0.0,0.0,0.0,0.0,0.0,0.0,0.0,0.0,0.0,0.0,0.0,0.0,0.0,0.0,0.0,0.0,0.0,0.0,0.0,0.0,0.0,0.0,0.0,0.0,0.0,0.0,-4.0546,-4.2412,-4.0489,-4.3104,-4.3951,0.0,0.0,0.0,0.0,0.0,0.0,-4.7105,-4.8328,-4.9638,-5.1159,-5.2203,-5.2754,-5.2791,-5.4081,-5.4197,-5.3225,-5.3812,-5.3794,-5.3206,-5.3206,-5.3206,-5.3206,-5.2986,-5.2546,-5.1793,-4.9315,-4.7131,-4.504,-4.2141,-4.038,0.0,-3.9363,-3.9187,-3.9282,-4.1306,-4.1542,-4.0798,-4.007,0.0,-3.6535,-3.3711,0.0,0.0,0.0,0.0,-3.4742,-3.4539,0.0,-3.6485,-3.6485,-3.6907,-3.7161,-3.6603,-3.6485,-3.5757,0.0,-3.2983,-3.2408,-3.0209,0.0,0.0,0.0,0.0,-3.0014,-3.2076,-3.2139,-3.2002,-3.2002,-3.1833,-3.1579,-3.1224,-3.0852,-3.0717,-3.0903,-2.9702,-2.8636,-2.7823,-2.7097,-2.549,-2.2919,0.0,0.0,0.0,0.0,0.0,0.0,0.0,0.0,0.0,0.0,0.0,0.0,0.0,0.0,0.0,0.0,0.0,0.0,0.0,0.0,0.0,0.0,0.0,0.0,0.0,0.0,0.0,0.0,0.0,-4.3201,-4.7278,0.0,0.0,0.0,0.0,-4.6509,-4.7375,-4.8952,-5.1452,-5.2078,-5.3493,-5.5965,-5.6037,-5.5696,-5.4932,-5.5341,-5.4748,-5.3206,-5.3243,-5.3243,-5.3206,-5.3206,-5.3206,-5.317,-5.238,-5.2032,-5.1793,-4.9315,-4.7792,-4.6671,-4.3757,-4.2589,-4.2436,-4.1306,-4.1331,-4.1881,-4.1444,-4.0764,-4.0341,-4.1694,-4.0189,-3.7415,-3.5081,-3.4387,0.0,0.0,-3.4421,-3.5402,-3.4675,-3.5081,-3.5673,-3.5673,-3.5707,-3.5723,-3.569,-3.5673,-3.5419,0.0,-3.3271,-3.229,-3.2178,0.0,-2.9397,-3.0835,-3.048,-3.0345,-3.1196,-3.1241,-3.1258,-3.1258,-3.0632,-3.048,-3.114,-2.9905,-2.9397,-3.0125,-2.9414,-2.8636,-2.7823,-2.7097,-2.5964,-2.4438,-2.3054,0.0,0.0,0.0,0.0,0.0,0.0,0.0,0.0,0.0,0.0,0.0,0.0,0.0,0.0,0.0,0.0,0.0,0.0,0.0,0.0,0.0,0.0,0.0,0.0,0.0,0.0,0.0,0.0,-4.7259,-5.0702,0.0,-4.9144,-4.9356,-5.0029,-5.0894,-5.2222,-5.3626,-5.5107,-5.6364,-5.7309,-5.7929,-5.8188,-5.7997,-5.743,-5.6725,-5.5812,-5.473,-5.4216,-5.3702,-5.3206,-5.3206,-5.2931,-5.2417,-5.2105,-5.1701,-5.1114,-4.9701,-4.8967,-4.8508,-4.6338,-4.536,-4.5025,-4.4539,-4.3737,-4.2961,-4.3166,-4.2193,-4.0663,-3.9766,-3.843,-3.6924,-3.5622,-3.5216,-3.5165,-3.4912,-3.5216,-3.5554,-3.5284,-3.5419,-3.5622,-3.5622,-3.5622,-3.5622,-3.5622,-3.5622,-3.5537,-3.5267,-3.4404,-3.3558,-3.3085,-3.1952,-3.1123,-3.119,-3.097,-3.0903,-3.1157,-3.119,-3.119,-3.119,-3.0954,-3.0903,-3.1173,-3.0277,-2.9617,-2.9397,-2.8197,-2.7182,-2.6437,-2.5676,-2.4388,-2.2423,-2.2327,-2.1684,0.0,0.0,0.0,0.0,0.0,0.0,0.0,0.0,0.0,0.0,0.0,0.0,0.0,0.0,0.0,0.0,0.0,0.0,0.0,0.0,0.0,0.0,0.0,0.0,0.0,0.0,-5.01,-4.9521,-5.3205,-5.478,-5.2222,-5.3491,-5.4703,-5.528,-5.6626,-5.7665,-5.8242,-5.9338,-5.9802,-5.9477,-5.9581,-5.916,-5.8128,-5.713,-5.6031,-5.4785,-5.4252,-5.372,-5.3206,-5.3206,-5.2766,-5.1977,-5.1701,-5.1132,-5.0325,-4.9499,-4.915,-4.904,-4.7939,-4.7289,-4.6935,-4.6421,-4.5283,-4.393,-4.3456,-4.2398,-4.0849,-3.8633,-3.7567,-3.6958,-3.5926,-3.5622,-3.5622,-3.5622,-3.5622,-3.5622,-3.5622,-3.5622,-3.5622,-3.5622,-3.5622,-3.5622,-3.5622,-3.5622,-3.5622,-3.5622,-3.5216,-3.4726,-3.4235,-3.3525,-3.2949,-3.2713,-3.2036,-3.1647,-3.1901,-3.1512,-3.119,-3.119,-3.097,-3.0835,-3.0835,-3.0159,-2.9296,-2.8281,-2.7029,-2.5998,-2.5253,-2.4746,-2.3812,-2.2355,-2.231,-2.1522,-2.0002,0.0,0.0,0.0,0.0,0.0,0.0,0.0,0.0,0.0,0.0,0.0,0.0,0.0,0.0,0.0,0.0,0.0,0.0,0.0,0.0,0.0,0.0,0.0,-4.3649,-4.8584,-5.1644,-5.0104,-5.4921,-5.7415,-5.4934,-5.7665,-5.9569,-5.955,-6.0339,-6.0819,-6.08,-6.08,-6.08,-6.08,-6.0319,-5.9068,-5.7059,-5.6518,-5.5238,-5.3243,-5.3225,-5.3206,-5.3206,-5.3206,-5.2747,-5.1903,-5.1132,-5.0325,-4.9481,-4.8655,-4.8306,-4.8306,-4.8306,-4.8288,-4.8117,-4.6856,-4.5928,-4.4823,-4.209,-4.1136,-4.0781,-3.8582,-3.7872,-3.7584,-3.6079,-3.5622,-3.5622,-3.5622,-3.5622,-3.5622,-3.5622,-3.5622,-3.5622,-3.5622,-3.5622,-3.5622,-3.5622,-3.5622,-3.5622,-3.5622,-3.5622,-3.5622,-3.5622,-3.5013,-3.4776,-3.547,-3.3711,0.0,-3.3288,-3.2104,-3.119,-3.119,-3.0565,-3.0142,-3.0142,-2.9397,-2.8298,-2.6793,-2.5964,-2.5203,-2.4472,-2.4438,-2.4438,-2.4438,-2.3004,-2.1522,-2.0044,0.0,0.0,0.0,0.0,0.0,0.0,0.0,0.0,0.0,0.0,0.0,0.0,0.0,0.0,0.0,0.0,0.0,0.0,0.0,0.0,0.0,0.0,-4.7774,-4.8898,-5.2399,-5.5381,-5.683,-5.8837,-5.9838,-5.9146,-6.0473,-6.1108,-6.0492,-6.1243,-6.1454,-6.0819,-6.08,-6.08,-6.08,-5.9454,-5.8429,-5.7876,-5.5916,-5.4644,-5.4069,-5.3482,-5.3206,-5.3206,-5.3206,-5.2454,-5.1114,-5.0894,-4.9976,-4.8636,-4.8398,-4.8306,-4.8306,-4.8306,-4.7957,-4.7406,-4.7041,-4.551,-4.3235,-4.0531,-3.9597,-3.9326,-3.7635,-3.7094,-3.6907,-3.5926,-3.5622,-3.5622,-3.5622,-3.5622,-3.5622,-3.5622,-3.5622,-3.5622,-3.5622,-3.5622,-3.5622,-3.5622,-3.5622,-3.5622,-3.5622,-3.5622,-3.5622,-3.5622,-3.5453,-3.5199,-3.4844,0.0,0.0,-3.2645,-3.1765,-3.119,-3.119,-3.1021,-3.0903,-3.0903,-2.9211,-2.7723,0.0,-2.5,-2.3663,-2.2936,-2.2902,-2.2902,-2.2902,-2.1972,-2.1395,0.0,0.0,0.0,0.0,0.0,0.0,0.0,0.0,0.0,0.0,0.0,0.0,0.0,0.0,0.0,0.0,0.0,0.0,0.0,0.0,0.0,0.0,-4.7598,-5.1307,-5.3676,-5.5809,-5.7832,-5.9668,-6.048,-6.0858,-6.0823,-6.1589,-6.1877,-6.1377,-6.18,-6.1877,-6.1358,-6.0646,-6.0262,-6.0262,-5.8768,-5.768,-5.7159,-5.5528,-5.4433,-5.3904,-5.3427,-5.3206,-5.3206,-5.2858,-5.2013,0.0,-5.0435,-4.9536,-4.8306,-4.8306,-4.8306,0.0,0.0,0.0,0.0,0.0,-4.402,-4.1883,-3.9734,-3.8802,-3.8345,-3.7161,-3.6772,-3.6637,-3.5859,-3.5622,-3.5622,-3.5622,-3.5622,-3.5622,-3.5622,-3.5622,-3.5622,-3.5622,-3.5368,-3.5233,-3.5554,-3.5368,-3.5148,-3.5148,0.0,0.0,-3.5148,-3.5419,-3.5368,-3.4607,-3.388,-3.3136,0.0,-3.1647,-3.119,-3.119,-3.119,-3.1072,-3.0768,-2.9533,0.0,0.0,0.0,-2.3393,-2.2344,-2.2885,0.0,0.0,0.0,-2.2106,0.0,0.0,0.0,0.0,-2.1099,-2.0964,0.0,0.0,0.0,0.0,0.0,0.0,0.0,0.0,0.0,0.0,0.0,0.0,0.0,0.0,0.0,0.0,-5.0858,-5.4199,-5.7695,-5.8616,-5.9196,-5.9919,-6.0507,-6.0809,-6.065,-6.1531,-6.205,-6.1954,-6.2031,-6.205,-6.1954,0.0,0.0,0.0,0.0,-5.6977,-5.5705,-5.5207,-5.4366,-5.3206,-5.3206,-5.3206,-5.3188,-5.2362,-5.1555,-5.0765,-4.9939,-4.9095,-4.8306,-4.8306,-4.8196,-4.7957,-4.726,-4.6929,-4.6505,-4.3835,-4.2053,0.0,0.0,0.0,0.0,-3.6891,-3.6637,-3.6518,-3.5825,-3.5622,-3.5622,-3.5622,-3.5622,-3.5605,-3.552,-3.5504,-3.5504,-3.5504,-3.4912,-3.4573,-3.5334,-3.4912,-3.437,-3.437,-3.437,-3.437,-3.437,-3.4996,-3.5267,-3.459,-3.388,0.0,-3.2374,-3.1647,-3.119,-3.119,0.0,0.0,-3.0294,-3.0006,-2.8991,-2.6945,-2.5338,-2.39,-2.2598,-2.3799,-2.3866,-2.2581,-2.3816,-2.3248,-2.0668,-2.1633,-2.1494,-2.035,-2.0875,-2.0981,0.0,0.0,0.0,0.0,0.0,0.0,0.0,0.0,0.0,0.0,0.0,0.0,0.0,0.0,0.0,-5.083,-5.3284,-5.5876,-5.9414,-5.9472,-5.9351,-5.9921,-5.9963,-5.9901,-5.9746,-6.1166,-6.18,-6.1089,-6.1685,-6.1781,-6.1089,-6.0723,0.0,-5.9511,-5.8253,-5.6977,-5.5705,-5.4591,-5.3753,-5.3206,0.0,0.0,-5.3188,-5.2362,-5.1555,-5.0765,-4.9939,-4.9095,-4.8306,-4.8306,-4.7535,-4.6342,-4.6195,-4.5736,-4.4894,-4.2553,-4.1306,-4.0451,-3.8486,-3.7456,-3.6874,-3.6096,-3.5842,-3.5808,-3.5673,-3.5622,0.0,-3.5622,-3.5622,-3.547,-3.4861,-3.4709,-3.4709,-3.4709,-3.415,-3.3812,-3.4556,-3.4134,-3.3609,-3.3609,-3.3609,-3.3609,-3.3609,-3.4218,-3.4658,-3.4506,-3.388,-3.3136,-3.2374,-3.1647,-3.119,-3.119,-3.119,-3.114,-3.1004,-2.9313,-2.8078,-2.7638,-2.5642,-2.4388,-2.41,-2.4371,-2.4388,-2.4069,-2.4371,-2.3627,-2.1778,-2.1987,-2.1591,-2.0595,-2.021,-2.0279,0.0,0.0,0.0,0.0,0.0,0.0,0.0,0.0,0.0,0.0,0.0,-3.9642,0.0,0.0,-4.9571,-5.3115,-5.486,-5.6519,-5.8733,-5.8396,-5.8423,-5.9834,-5.9523,-5.9288,-5.948,-5.9915,-6.0358,-6.0762,-6.08,-6.08,-6.08,-5.9992,-5.9358,-5.8915,-5.7239,-5.595,-5.512,-5.4254,-5.3604,-5.3206,-5.3206,-5.3206,-5.317,-5.1958,-5.1187,-5.0729,-4.9481,-4.8691,-4.8269,-4.7884,-4.7003,-4.5865,-4.5461,-4.4819,-4.3868,-4.2086,-4.1027,-4.0238,-3.8491,-3.7342,-3.6542,-3.6148,-3.581,-3.5622,-3.5622,-3.5622,-3.5622,-3.5622,-3.5622,-3.5537,-3.5165,-3.5064,-3.5064,-3.5064,-3.4218,-3.3609,-3.4336,-3.3914,-3.3406,-3.3406,-3.3694,-3.3947,-3.3947,-3.3947,-3.3812,-3.344,-3.3085,-3.2577,-3.1833,-3.141,-3.119,-3.119,-3.119,-3.119,-3.119,-2.9482,-2.7909,-2.6793,-2.6015,-2.5285,-2.454,-2.4847,-2.4864,-2.4523,-2.4847,-2.4247,-2.2593,-2.298,-2.231,-2.0707,-2.0363,-2.0737,0.0,0.0,0.0,0.0,0.0,0.0,0.0,0.0,-3.494,-3.6735,-3.9579,-4.2765,-4.6129,-4.9257,-5.2235,-5.4917,-5.5929,-5.6725,-5.7777,-5.7159,-5.731,-5.925,-5.8868,-5.86,-5.8982,-5.8588,-5.8858,-6.0204,-5.9665,-5.9646,-6.0492,-5.9127,-5.83,-5.83,-5.6472,-5.5151,-5.4503,-5.4118,-5.3701,-5.3206,-5.3206,-5.3206,-5.317,-5.1536,-5.0802,-5.071,-4.904,-4.8214,-4.8031,-4.7388,-4.6544,-4.5608,-4.4947,-4.4103,-4.3114,-4.1832,-4.0782,-3.9878,-3.8645,-3.747,-3.658,-3.658,-3.6165,-3.5739,-3.5739,-3.5694,-3.5622,-3.5622,-3.5622,-3.5588,-3.5436,-3.5402,-3.5402,-3.5402,-3.4387,-3.3558,-3.415,-3.3711,-3.3136,-3.3,-3.3457,-3.3846,-3.3846,-3.3372,-3.2865,-3.2544,-3.2493,-3.2188,-3.1309,-3.1326,-3.136,-3.1207,-3.119,-3.114,-3.1004,-2.9888,-2.8298,-2.6167,-2.659,-2.6319,-2.4966,-2.5507,-2.5473,-2.4743,-2.5439,-2.4846,-2.2911,-2.367,-2.286,-2.0722,-2.0572,-2.1156,-2.7093,-2.8197,-3.0545,-3.4335,-3.4336,-3.4551,0.0,0.0,-3.9505,-4.2013,-4.4485,-4.699,-4.9663,-5.1665,-5.3822,-5.6521,-5.655,-5.6825,-5.8532,-5.753,-5.6861,-5.7595,-5.7592,-5.7474,-5.7307,-5.7896,-5.8377,-5.8569,-5.8492,-5.88,-5.9608,-5.88,-5.83,-5.83,-5.7316,-5.6046,-5.4503,-5.4471,-5.4015,-5.3206,-5.3206,-5.3206,-5.317,-5.1536,-5.0802,-5.071,-4.904,-4.7902,-4.7241,-4.715,-4.6214,-4.4837,-4.4745,-4.3773,-4.2341,-4.1467,-4.0354,-3.912,-3.8221,-3.7577,-3.7097,-3.7097,-3.6764,-3.6291,-3.6291,-3.5985,-3.5622,-3.5622,-3.5622,-3.547,-3.4793,-3.4624,-3.4624,-3.4624,-3.3998,-3.3423,-3.3508,-3.2933,-3.2205,-3.1562,-3.1512,-3.1562,-3.1562,-3.1495,-3.185,-3.3085,-3.3288,-3.278,-3.1376,-3.1749,-3.1918,-3.1258,-3.119,-3.0937,-3.0294,-3.0074,-2.9296,-2.7637,-2.762,-2.7317,-2.6488,-2.6522,-2.6234,-2.549,-2.6201,-2.5146,-2.221,-2.2951,-2.2425,-2.0707,-2.0094,-2.0213,-3.1087,-3.1461,-3.2345,-3.5272,-3.6601,-3.7597,-3.9209,-3.9555,-4.0274,-4.277,-4.522,-4.7528,-4.9567,-5.2145,-5.4321,0.0,-5.5952,-5.6621,-5.7847,-5.7203,-5.6653,-5.6803,-5.6748,-5.6776,-5.6979,-5.6876,-5.7203,-5.8223,-5.7838,-5.7915,-5.8761,-5.7992,-5.753,-5.753,-5.6703,-5.5787,-5.4867,-5.4628,-5.4171,-5.3545,-5.3295,-5.2968,-5.2454,-5.1316,-5.027,-4.9315,-4.86,-4.8122,-4.7737,-4.6801,-4.6012,-4.5259,-4.3846,-4.2616,-4.157,-4.124,-4.0463,-3.944,-3.8656,-3.8032,-3.7614,-3.7614,-3.7058,-3.6374,-3.6374,-3.6028,-3.552,-3.5081,-3.5284,-3.5453,-3.4692,-3.481,-3.5148,-3.5148,-3.4252,-3.3406,-3.3406,-3.2814,-3.2188,-3.1884,-3.2188,-3.2476,-3.2476,-3.2121,-3.2036,-3.2662,-3.2391,-3.1901,-3.1275,-3.1461,-3.1529,-3.1224,-3.119,-3.0717,-2.955,-2.9448,-2.8789,-2.7266,-2.7165,-2.7012,-2.6708,-2.6691,-2.6353,-2.5625,-2.6319,-2.5363,-2.2689,-2.343,-2.2703,-2.0707,-2.0423,-2.0228,-3.2967,-3.3303,-3.3765,-3.6085,-3.8105,-3.9472,-3.9222,-3.978,-4.0906,-4.2879,-4.5065,-4.7193,-4.9101,-5.1838,-5.3933,-5.4414,-5.542,-5.6341,-5.697,-5.6567,-5.6152,-5.605,-5.5704,-5.5715,-5.6309,-5.5957,-5.6222,-5.7492,-5.6992,-5.7011,-5.7896,-5.7107,-5.6742,-5.6973,-5.6145,-5.5512,-5.5088,-5.4701,-5.4255,-5.3814,-5.3381,-5.2894,-5.2307,-5.1261,-4.9903,-4.8306,-4.8306,-4.8049,-4.7553,-4.6379,-4.5645,-4.5039,-4.3075,-4.1809,-4.1075,-4.0855,-4.0267,-3.9478,-3.8909,-3.8465,-3.8099,-3.8099,-3.7433,-3.6603,-3.6603,-3.6139,-3.5504,-3.4962,-3.5199,-3.5504,-3.4945,-3.5216,-3.5571,-3.5351,-3.4489,-3.3592,-3.3186,-3.2662,-3.2222,-3.2019,-3.2425,-3.2797,-3.2797,-3.2341,-3.1985,-3.1985,-3.1698,-3.1427,-3.1224,-3.119,-3.119,-3.119,-3.119,-3.0768,-2.9685,-2.9414,-2.8738,-2.7418,-2.7131,-2.6911,-2.6708,-2.6691,-2.6353,-2.5625,-2.6319,-2.5429,-2.2815,-2.3574,-2.2703,-2.0423,-2.0423,-2.0168,-3.0355,-3.1875,-3.4027,-3.7472,-3.8487,-3.9062,-4.0742,-4.1685,-4.2466,-4.3319,-4.4735,-4.6607,-4.9126,-5.091,-5.2529,-5.4222,-5.5304,-5.5981,-5.6208,-5.5611,-5.5143,-5.5133,-5.4281,-5.3965,0.0,-5.5326,-5.5722,-5.5761,-5.5742,-5.6107,-5.6973,-5.6203,-5.6126,-5.6953,-5.6145,-5.5512,-5.5088,-5.4701,-5.4255,-5.3814,-5.3381,-5.3206,-5.3115,-5.1518,-4.9903,-4.8306,-4.8306,-4.7407,-4.5975,-4.592,-4.4984,-4.3479,-4.2635,-4.1809,-4.102,-4.0212,-3.9423,-3.8726,-3.8707,-3.8707,-3.8676,-3.8676,-3.7982,-3.719,-3.719,-3.644,-3.5622,-3.5588,-3.5605,-3.556,-3.5588,-3.5605,-3.5436,-3.4692,-3.4489,-3.4066,-3.2628,-3.2347,-3.211,-3.136,-3.1241,-3.1258,-3.1258,-3.1241,-3.1224,-3.1224,-3.1799,-3.1985,-3.1275,-3.119,-3.119,-3.119,-3.119,-3.1173,-3.114,-3.048,-2.9736,-2.8958,-2.8197,-2.7452,-2.6725,-2.6691,-2.6353,-2.5625,-2.6319,-2.5196,-2.2114,-2.287,-2.2016,-1.972,-1.972,-1.9705,-3.2415,-3.4342,-3.6287,-3.8662,-3.9795,-4.0488,-4.1074,-4.1316,-4.1675,-4.2529,-4.3043,-4.3749,-4.5105,-4.7148,-4.9174,-5.0856,-5.287,-5.4876,-5.6745,-5.6905,-5.6634,-5.6149,-5.612,0.0,0.0,0.0,0.0,-5.5607,-5.5203,-5.5261,-5.6088,-5.5857,-5.5818,-5.6126,-5.5838,-5.564,-5.5489,-5.5088,-5.4701,-5.4236,-5.2471,-5.1334,-5.0765,-4.9646,-4.8545,-4.7517,-4.7517,-4.6893,-4.5865,-4.5333,-4.4782,-4.4121,-4.2231,-4.135,-4.0946,-3.9606,-3.8927,-3.8707,-3.8707,-3.8707,-3.8707,-3.8707,-3.8234,-3.7649,-3.7649,-3.6925,-3.6036,-3.5521,-3.5505,-3.5385,-3.4404,-3.4506,-3.4675,-3.3947,-3.3389,-3.2882,-3.2432,-3.1901,-3.1495,-3.1241,-3.119,-3.119,-3.119,-3.119,-3.119,-3.119,-3.141,-3.1647,-3.1884,-3.1495,-3.119,-3.119,-3.119,-3.1004,-3.0514,-2.9786,-2.9025,-2.8264,-2.7486,-2.6962,-2.6708,-2.6691,-2.6353,-2.5625,-2.5845,-2.468,-2.2082,-2.2356,-2.1528,-1.969,-1.969,-1.969,-3.4383,-3.627,-3.7856,-3.9661,-4.0616,-4.1149,-4.1191,-4.1128,-4.1136,-4.1387,-4.134,-4.1463,-4.2197,-4.4157,-4.6171,-4.7776,-5.0252,-5.2918,-5.5666,-5.5887,-5.5982,-5.6523,-5.6319,-5.5784,0.0,0.0,0.0,-5.559,-5.5222,-5.5145,-5.5665,-5.5703,-5.5703,-5.5703,-5.5703,-5.5703,-5.5703,-5.5306,-5.4667,-5.3804,-5.1881,-5.0503,-4.9554,-4.9022,-4.8324,-4.7517,-4.7241,-4.6654,-4.5847,-4.5039,-4.4544,-4.4066,-4.1937,-4.1111,-4.0928,-3.9294,-3.8707,-3.8707,-3.8707,-3.8707,-3.8707,-3.8707,-3.835,-3.7859,-3.7685,-3.7041,-3.6271,-3.558,-3.5479,-3.5402,-3.4438,-3.4336,-3.4303,-3.3592,-3.3034,-3.2611,-3.2341,-3.1918,-3.1579,-3.1579,-3.1376,-3.119,-3.119,-3.119,-3.1275,-3.1546,-3.136,-3.136,-3.1833,-3.1478,-3.119,-3.119,-3.119,-3.0903,-3.0176,-2.9414,-2.8653,-2.784,-2.7114,-2.6691,-2.6691,-2.6691,-2.6471,-2.5998,-2.5596,-2.4431,-2.2501,-2.2091,-2.1136,-1.969,-1.969,-1.969,-3.6027,-3.7527,-3.8743,-4.0388,-4.0908,-4.1046,-4.1171,-4.1172,-4.0898,-4.0019,-3.9693,-3.976,0.0,0.0,-4.3617,-4.5255,-4.774,-5.0477,-5.3331,-5.3059,-5.3564,0.0,0.0,0.0,0.0,0.0,0.0,-5.559,0.0,-5.5665,-5.5703,-5.5703,-5.5703,-5.5703,-5.5703,-5.5684,-5.5645,-5.5211,-5.4162,-5.2524,-5.1635,-5.0657,-4.9538,-4.9556,-4.9022,-4.8141,-4.7388,-4.6562,-4.5718,-4.4947,-4.4158,-4.3277,-4.1717,-4.1075,-4.0855,-3.9294,-3.8707,-3.8707,-3.8707,-3.8707,-3.8707,-3.8707,-3.835,-3.7877,-3.7396,-3.6921,-3.6374,-3.5854,-3.5694,-3.5694,-3.5644,-3.5057,-3.4346,-3.3618,-3.3406,-3.322,-3.2493,-3.2307,-3.2313,-3.2313,-3.1698,-3.119,-3.119,-3.119,-3.1427,-3.2121,-3.163,-3.1207,-3.1241,-3.1207,-3.119,-3.119,-3.119,-3.092,-3.0226,-2.9465,-2.8704,-2.7891,-2.7165,-2.6742,-2.6691,-2.6691,-2.6691,-2.6691,-2.5547,-2.4375,-2.3192,-2.2,-2.0834,-1.969,-1.969,-1.969,-3.7048,-3.8652,-4.0176,-4.0671,-4.0908,-4.1046,-4.1171,-4.0703,-3.998,-3.9101,-3.8398,-3.7569,0.0,0.0,0.0,-4.4351,-4.7889,0.0,-5.5061,-5.5852,0.0,-5.6561,0.0,-5.6498,-5.591,-5.55,0.0,0.0,-5.5145,-5.5068,-5.5665,-5.5703,-5.5703,-5.5703,-5.5703,-5.5415,-5.4799,-5.3752,-5.2696,-5.1621,-5.0801,-4.9945,-4.9078,-4.879,-4.7865,-4.6507,-4.6305,-4.5406,-4.4085,-4.3883,-4.3332,-4.2506,-4.1497,-4.0744,-4.0084,-3.9074,-3.8707,-3.8707,-3.8707,-3.8707,-3.8707,-3.8707,-3.8627,-3.8465,-3.835,-3.7929,-3.7488,-3.7361,-3.7079,-3.6646,-3.605,-3.5514,-3.4938,-3.418,-3.3704,-3.3355,-3.3169,-3.2679,-3.2313,-3.2313,-3.1698,-3.119,-3.119,-3.119,-3.1258,-3.1444,-3.1309,-3.1393,-3.1935,-3.1529,-3.119,-3.119,-3.119,-3.1123,-3.0937,-3.0243,-2.9499,-2.8738,-2.796,-2.7283,-2.6708,-2.6691,-2.6691,-2.6691,-2.5046,-2.3866,-2.3192,-2.1447,-2.0308,-1.969,-1.969,-1.969,-3.8918,-4.0159,-4.1126,-4.0857,-4.0857,-4.0764,-4.0193,-3.9687,-3.8867,-3.7226,-3.6504,0.0,-3.4797,-3.7113,0.0,0.0,0.0,0.0,-5.3533,-5.5077,-5.6166,0.0,-5.72,0.0,-5.6271,-5.609,-5.5939,0.0,-5.528,-5.5222,-5.5684,-5.5703,-5.5703,-5.5703,-5.5357,-5.4761,-5.3933,-5.2839,-5.195,-5.1274,-5.0323,-4.9492,-4.8878,-4.8126,-4.7297,-4.6397,0.0,-4.4856,-4.3975,-4.3259,-4.2708,-4.2176,-4.1038,-4.0304,-3.979,-3.9001,-3.8707,-3.8707,-3.8707,-3.8707,-3.8707,-3.8707,-3.8707,-3.8676,-3.8415,-3.815,-3.7859,-3.7649,-3.7248,-3.672,-3.6282,-3.5335,-3.4449,-3.4363,-3.386,-3.3491,-3.3812,-3.3305,-3.2577,-3.1935,-3.1461,-3.119,-3.119,-3.119,-3.119,-3.119,-3.119,-3.1343,-3.1749,-3.1173,-3.0717,-3.0717,-3.0429,-3.0091,-2.9736,-2.9347,-2.8789,-2.8027,-2.7571,-2.7131,-2.6708,-2.6505,-2.6401,-2.6401,-2.4596,-2.3407,-2.2857,-2.1234,-2.0212,-1.969,-1.969,-1.969,-4.0969,-4.1608,-4.1687,-4.1111,-4.0906,-4.0415,-3.8786,-3.8437,-3.7695,-3.5078,0.0,-3.4647,-3.4471,-3.59,-3.7713,-3.965,0.0,-4.7182,-5.1069,-5.2874,-5.4783,-5.7402,-5.7051,-5.649,-5.6242,-5.6242,-5.6097,-5.5749,-5.5728,-5.5726,-5.5703,-5.5703,-5.5645,-5.553,-5.4645,-5.3799,-5.3029,-5.2183,-5.1559,-5.1214,-5.0115,-4.9386,-4.9024,-4.7736,-4.7114,-4.693,0.0,0.0,-4.4433,-4.2928,-4.2249,-4.1992,-4.0487,-3.9827,-3.9662,-3.8964,-3.8707,-3.8707,-3.8707,-3.8707,-3.8707,-3.8707,-3.8707,-3.8627,-3.815,-3.8032,-3.7911,-3.7506,-3.7058,-3.6724,-3.6724,-3.5324,-3.4065,-3.4551,-3.4126,-3.3694,-3.4235,-3.3778,-3.2848,-3.1461,-3.119,-3.119,-3.119,-3.119,-3.119,-3.119,-3.119,-3.1157,-3.1072,-3.0497,-3.0108,-3.0108,-2.9431,-2.8704,-2.8027,-2.7977,-2.7655,-2.6894,-2.6843,-2.6793,-2.6691,-2.6297,-2.6035,-2.5865,-2.4238,-2.3016,-2.2273,-2.1137,-2.0273,-1.969,-1.969,-1.969,-4.1855,-4.1971,-4.1962,-4.1887,-4.1422,-4.0352,-3.8045,-3.7539,0.0,0.0,-3.4199,-3.4472,-3.3749,-3.5525,-3.8127,-4.1251,-4.3483,-4.685,-5.2556,-5.3621,-5.456,0.0,-5.6699,-5.6538,0.0,0.0,0.0,0.0,0.0,0.0,-5.5724,-5.5703,-5.5395,-5.4722,-5.3183,-5.2279,-5.2145,-5.1318,-5.0875,-5.0815,-5.024,-4.9949,-4.9834,-4.8297,-4.7233,-4.6531,0.0,0.0,-4.3626,-4.269,-4.1919,-4.1222,-4.0267,-3.9478,-3.8891,-3.8762,-3.8707,-3.8707,-3.8707,-3.8707,-3.8707,-3.8707,-3.8707,-3.8658,-3.8578,-3.8546,-3.8546,-3.8465,-3.8368,-3.8285,-3.8285,-3.7435,-3.6415,-3.587,-3.5031,-3.4167,-3.3694,-3.3,-3.2222,-3.136,-3.119,-3.119,-3.119,-3.119,-3.119,-3.119,-3.119,-3.097,-3.0378,-3.0192,-3.0108,-3.0108,-2.9431,-2.8924,-2.8789,-2.8789,-2.845,-2.7672,-2.7621,-2.7351,-2.6725,-2.6624,-2.6117,-2.5208,-2.388,-2.2715,-2.1641,-2.0476,-1.9794,-1.969,-1.969,-1.969,-4.1537,-4.2335,-4.3005,-4.174,-4.1551,-4.0792,-3.7401,0.0,0.0,0.0,-3.3437,-3.4023,-3.4062,-3.5797,0.0,-3.9984,-4.2093,-4.5269,-5.051,-5.1997,0.0,-5.6289,-5.6601,-5.6559,0.0,0.0,0.0,0.0,0.0,0.0,-5.5705,-5.5299,-5.4472,-5.3203,-5.2337,-5.1702,-5.1279,-5.0894,-5.0702,-5.0702,-5.0294,-4.9863,-4.9382,-4.7947,-4.6787,-4.5786,0.0,0.0,-4.28,-4.2011,-4.1203,-4.0396,-3.9588,-3.9038,-3.8707,-3.8707,-3.8707,-3.8707,-3.8707,-3.8707,-3.8707,-3.8707,-3.8707,-3.8707,-3.8707,-3.8414,-3.8065,-3.8065,-3.7564,-3.7012,-3.7012,-3.6193,-3.5349,-3.5313,-3.4961,-3.4345,-3.3379,-3.2894,-3.2354,-3.1404,-3.119,-3.119,-3.119,-3.119,-3.119,-3.119,-3.119,-3.092,-3.0192,-3.0108,-2.9956,-2.9567,-2.8484,-2.7943,-2.8349,-2.801,-2.7638,-2.7249,-2.7232,-2.7063,-2.6708,-2.6487,-2.5791,-2.4593,-2.3718,-2.2577,-2.1088,-2.0489,-2.0034,-1.969,-1.969,-1.969,-4.131,-4.2774,-4.4001,-4.1671,-4.1699,-4.1155,-3.6737,-3.5879,0.0,-3.2734,-3.2832,-3.3711,-3.4785,-3.5957,-3.7148,0.0,-4.0273,-4.3223,-4.7969,-5.0078,-5.2422,0.0,-5.6328,0.0,0.0,0.0,0.0,0.0,0.0,0.0,0.0,-5.4664,-5.351,-5.1952,-5.1741,-5.1337,-5.0702,-5.0702,-5.0606,-5.0414,-5.009,-4.95,-4.8598,-4.7391,-4.6223,-4.5132,0.0,0.0,0.0,-4.1277,-4.0515,-3.9808,-3.9019,-3.8707,-3.8707,-3.8707,-3.8707,-3.8707,-3.8707,-3.8707,-3.8707,-3.8707,-3.8707,-3.8707,-3.8707,-3.8138,-3.7507,-3.7507,-3.6626,-3.5661,-3.5661,-3.4835,-3.4039,-3.4269,-3.4198,-3.3827,-3.2824,-3.2628,-3.2342,-3.137,-3.119,-3.119,-3.119,-3.119,-3.114,-3.0987,-3.0954,-3.0632,-2.9736,-2.9617,-2.9397,-2.8789,-2.7655,-2.7182,-2.7739,-2.7131,-2.6691,-2.6691,-2.6691,-2.6691,-2.6691,-2.6182,-2.5313,-2.3991,-2.3427,-2.2247,-2.0498,-2.0498,-2.0213,-1.969,-1.969,-1.969,-4.2203,-4.3302,-4.4247,-4.2427,-4.2182,-4.1054,-3.5976,0.0,-3.5273,-3.2734,-3.2832,-3.3906,-3.5566,-3.5351,-3.5742,-3.8203,-3.8809,-4.0996,-4.6894,-4.9219,-5.1582,-5.5019,0.0,0.0,0.0,0.0,0.0,0.0,0.0,0.0,0.0,-5.3799,-5.2876,-5.1933,-5.1183,-5.076,-5.0702,-5.0702,-5.0298,-4.951,-4.949,-4.901,-4.8107,-4.6923,-4.591,-4.5045,0.0,0.0,0.0,-4.0727,-4.02,-3.9808,-3.9019,-3.8707,-3.8707,-3.8707,-3.8707,-3.8707,-3.8707,-3.8707,-3.8707,-3.8707,-3.8707,-3.8707,-3.8707,-3.8138,-3.7507,-3.7507,-3.6879,-3.6227,-3.6227,-3.5781,-3.4947,-3.3488,-3.2589,-3.1942,-3.147,-3.137,-3.1336,-3.1207,-3.119,-3.119,-3.119,-3.119,-3.097,-3.0311,-3.0209,-2.9685,-2.8178,-2.7992,-2.801,-2.7943,-2.7755,-2.774,-2.7772,-2.7131,-2.6691,-2.6691,-2.6691,-2.6691,-2.6691,-2.6032,-2.4896,-2.3339,-2.2577,-2.1431,-1.9779,-1.9779,-1.975,-1.969,-1.969,-1.969,-4.1532,-4.3451,-4.4955,-4.3305,-4.2602,-4.1414,-3.7851,0.0,-3.5566,-3.4023,-3.3965,-3.4551,-3.5781,-3.5723,-3.582,-3.6875,0.0,0.0,-4.3105,-4.4766,-4.7363,-5.2363,0.0,0.0,0.0,0.0,0.0,0.0,0.0,0.0,0.0,-5.2606,-5.2049,-5.1202,-5.0856,-5.0702,-5.0702,-5.0702,-5.026,-4.9394,-4.9394,-4.8682,-4.7375,-4.6877,-4.58,-4.4293,0.0,0.0,0.0,-4.043,-3.9878,-3.9148,-3.8836,-3.8707,-3.8707,-3.8707,-3.8707,-3.8707,-3.8707,-3.8707,-3.8707,-3.8707,-3.8377,-3.8065,-3.856,-3.779,-3.678,-3.678,-3.5807,-3.4798,-3.4798,-3.4649,-3.432,-3.3646,-3.3242,-3.2885,-3.2484,-3.2196,-3.1878,-3.1603,-3.1389,-3.119,-3.119,-3.119,-3.1106,-3.0818,-3.0768,-3.0226,-2.8721,-2.8924,-2.8839,-2.7891,-2.7418,-2.7334,-2.7755,-2.7131,-2.6691,-2.6691,-2.6691,-2.6387,-2.5697,-2.5397,-2.4262,-2.2232,-2.1897,-2.1078,-1.969,-1.969,-1.969,-1.969,-1.969,-1.969,-4.0403,-4.2948,-4.495,-4.3063,-4.2441,-4.1566,0.0,0.0,-3.5742,-3.4883,-3.4707,-3.4961,-3.584,-3.5996,-3.5996,-3.5996,0.0,-3.7519,-4.0742,-4.2109,-4.4648,0.0,0.0,0.0,0.0,0.0,0.0,0.0,0.0,0.0,0.0,-5.1337,-5.1029,-5.0702,-5.0452,-5.0317,-5.0317,-5.0048,-4.949,-4.8663,-4.8663,-4.7913,-4.6509,-4.6259,-4.5207,0.0,0.0,0.0,0.0,-4.0246,-3.9685,-3.8833,-3.8833,-3.8762,-3.8707,-3.8707,-3.8707,-3.8707,-3.8707,-3.8707,-3.867,-3.8414,-3.7955,-3.7551,-3.7881,-3.7019,-3.5917,-3.5917,-3.489,-3.3807,-3.3807,-3.3807,-3.3762,-3.3652,-3.3606,-3.3522,-3.3075,-3.2616,-3.2213,-3.1844,-3.1487,-3.119,-3.119,-3.119,-3.1123,-3.0903,-3.0869,-3.0328,-2.8839,-2.911,-2.8941,-2.7621,-2.7012,-2.6996,-2.7722,-2.7131,-2.6691,-2.6691,-2.6691,-2.6354,-2.5563,-2.5296,-2.4177,-2.2016,-2.1796,-2.1007,-1.969,-1.969,-1.969,-1.969,-1.969,-1.969,-3.8994,-4.162,-4.3898,-4.1362,-4.1521,-4.1397,-3.7905,-3.6532,-3.5742,-3.4883,-3.4707,-3.4961,-3.584,-3.5996,-3.5996,-3.5996,-3.6719,0.0,-4.082,-4.2637,0.0,0.0,0.0,0.0,0.0,0.0,0.0,0.0,0.0,0.0,0.0,0.0,-4.9817,-5.0664,-4.9856,-4.9413,-4.9413,-4.8567,-4.7721,-4.6932,-4.6932,-4.6471,-4.5566,-4.472,0.0,0.0,0.0,0.0,0.0,-4.01,-3.9709,-3.9099,-3.9099,-3.8933,-3.8707,-3.8707,-3.8707,-3.8707,-3.8707,-3.8707,-3.8579,-3.7753,-3.7526,-3.7331,-3.656,-3.5716,-3.5009,-3.5009,-3.4431,-3.3807,-3.3807,-3.3807,-3.3707,-3.3302,-3.3214,-3.3075,-3.2616,-3.2127,-3.1825,-3.1789,-3.1487,-3.119,-3.119,-3.119,-3.0954,-3.0226,-3.0125,-2.9567,-2.7992,-2.7806,-2.7554,-2.6793,-2.6691,-2.6996,-2.7722,-2.7131,-2.6691,-2.6691,-2.6691,-2.6691,-2.6674,-2.5981,-2.4813,-2.3192,-2.2485,-2.1308,-1.969,-1.969,-1.969,-1.969,-1.969,-1.969,-3.8829,-4.0431,-4.1586,-4.0885,-4.0063,-3.9182,-3.8209,-3.6928,-3.5868,-3.5644,-3.5586,-3.5664,-3.5957,-3.5996,-3.6191,-3.6797,-3.7129,0.0,0.0,0.0,0.0,0.0,0.0,0.0,0.0,0.0,0.0,0.0,0.0,0.0,0.0,0.0,-4.9015,-4.9779,-4.8971,-4.8509,-4.8509,-4.7702,-4.6855,-4.599,-4.5413,-4.4682,-4.3874,-4.3605,0.0,0.0,0.0,0.0,0.0,-4.0101,-3.984,-3.9414,-3.9186,-3.9063,-3.8961,-3.8762,-3.8707,-3.8615,-3.8065,-3.7863,-3.7734,-3.6927,-3.6285,-3.5752,-3.5495,-3.521,-3.488,-3.4339,-3.4009,-3.3807,-3.3807,-3.3807,-3.3762,-3.3634,-3.3606,-3.3578,-3.3419,-3.3057,-3.2663,-3.2332,-3.1897,-3.1507,-3.1269,-3.119,-3.1123,-3.0886,-3.0852,-3.0311,-2.8805,-2.8619,-2.8129,-2.6826,-2.6691,-2.6793,-2.7029,-2.6826,-2.6691,-2.6691,-2.6691,-2.6135,-2.483,-2.4264,-2.3104,-2.1258,-2.0729,-2.0228,-1.969,-1.969,-1.969,-1.969,-1.969,-1.969,-3.7886,-3.9161,-3.9995,-3.9734,-3.8887,0.0,-3.787,-3.683,-3.591,-3.595,-3.5975,-3.5996,-3.5996,-3.5996,-3.6172,-3.6719,-3.6816,-3.7226,0.0,0.0,0.0,0.0,0.0,0.0,0.0,0.0,0.0,0.0,0.0,0.0,0.0,0.0,-4.7579,-4.8034,-4.7776,-4.7663,-4.7663,-4.6509,-4.5643,-4.5086,-4.4239,-4.3585,-4.3085,0.0,0.0,0.0,0.0,0.0,0.0,-4.025,-4.0081,-3.9754,-3.9414,-3.9212,-3.9072,-3.8803,-3.8505,-3.8175,-3.7661,-3.7323,-3.689,-3.6083,-3.5238,-3.4504,-3.4183,-3.4073,-3.3982,-3.3495,-3.3348,-3.3348,-3.3348,-3.3568,-3.3807,-3.3807,-3.3807,-3.3807,-3.3807,-3.3361,-3.284,-3.255,-3.2004,-3.1507,-3.1252,-3.119,-3.1106,-3.0835,-3.0784,-3.0243,-2.8738,-2.8552,-2.8061,-2.6826,-2.6691,-2.6691,-2.6691,-2.6437,-2.6285,-2.6285,-2.6015,-2.5343,-2.4163,-2.3703,-2.2696,-2.1009,-2.0593,-2.0146,-1.969,-1.969,-1.969,-1.969,-1.969,-1.969,0.0,-3.7781,-3.8854,-3.8104,-3.7919,-3.7738,-3.7052,-3.637,0.0,-3.59,-3.5947,-3.5995,-3.6074,-3.6035,-3.6035,-3.6152,-3.6172,0.0,0.0,0.0,0.0,0.0,0.0,0.0,0.0,0.0,0.0,0.0,0.0,0.0,0.0,0.0,0.0,-4.5622,-4.6278,-4.6642,-4.6644,-4.497,-4.4124,-4.4105,-4.3297,-4.2912,-4.2893,0.0,0.0,0.0,0.0,0.0,0.0,-4.0469,-4.0279,-3.9929,-3.9662,-3.9301,-3.8931,-3.8649,-3.8077,-3.7404,-3.7331,-3.6817,-3.6064,-3.522,-3.4412,-3.3642,-3.2852,-3.2614,-3.2596,-3.254,-3.2522,-3.254,-3.2596,-3.3146,-3.3733,-3.3788,-3.3752,-3.3715,-3.3715,-3.3076,-3.2477,-3.2358,-3.1738,-3.1167,-3.1038,-3.1038,-3.0801,-3.0125,-3.0023,-2.9499,-2.7975,-2.7789,-2.7537,-2.6776,-2.6691,-2.6691,-2.6691,-2.6031,-2.5609,-2.5609,-2.4898,-2.4489,-2.4438,-2.4014,-2.3227,-2.2034,-2.1572,-2.0799,-1.969,-1.969,-1.969,-1.969,-1.969,-1.969,-3.5097,0.0,-3.6488,-3.6911,-3.6554,-3.6254,0.0,-3.6251,-3.5706,-3.5864,-3.5821,-3.5987,-3.6707,-3.6345,-3.6345,-3.763,-3.7925,-3.8359,0.0,0.0,0.0,0.0,0.0,0.0,0.0,0.0,0.0,0.0,0.0,0.0,0.0,0.0,0.0,-4.3821,-4.3982,-4.4037,-4.3989,-4.2931,-4.2393,-4.2393,-4.1508,-4.1104,-4.1104,0.0,0.0,0.0,0.0,0.0,0.0,-4.0239,-3.9707,-3.853,-3.8861,-3.8412,-3.7539,-3.7266,-3.6916,-3.6486,-3.5826,-3.5477,-3.5183,-3.4357,-3.3954,-3.3642,-3.2852,-3.2614,-3.2485,-3.1861,-3.1678,-3.1825,-3.2449,-3.2742,-3.3054,-3.3642,-3.333,-3.2889,-3.2889,-3.2738,-3.2216,-3.0995,-3.1064,-3.0958,-2.9731,-2.9499,-2.9448,-2.9262,-2.9245,-2.8907,-2.7908,-2.7789,-2.7537,-2.6776,-2.6691,-2.6691,-2.6691,-2.6031,-2.5609,-2.5609,-2.4898,-2.4269,-2.3663,-2.2931,-2.2117,-2.1295,-2.0524,-1.9984,-1.969,-1.969,-1.969,-1.969,-1.969,-1.969,-3.4694,-3.5265,-3.5971,-3.6412,-3.6281,-3.6175,-3.6684,-3.6176,-3.5514,-3.523,-3.5165,-3.5295,-3.5816,-3.5846,-3.6231,-3.7551,-3.817,0.0,0.0,0.0,0.0,0.0,0.0,0.0,0.0,0.0,0.0,0.0,0.0,0.0,0.0,0.0,0.0,0.0,-4.2322,-4.2394,-4.3085,-4.2239,-4.1797,-4.1797,-4.0912,-4.0489,-4.0489,0.0,0.0,0.0,0.0,0.0,-3.9335,-3.9758,-3.9181,-3.8012,-3.8151,-3.7735,-3.7068,-3.6795,-3.6295,-3.5642,-3.5155,-3.4752,-3.4394,-3.3935,-3.355,-3.3109,-3.2284,-3.1788,-3.1421,-3.0962,-3.0852,-3.0944,-3.1403,-3.177,-3.2155,-3.2596,-3.2375,-3.2045,-3.2045,-3.1916,-3.1455,-3.0409,-3.0378,-3.0209,-2.917,-2.9011,-2.8856,-2.8501,-2.845,-2.818,-2.7402,-2.73,-2.7148,-2.6742,-2.6691,-2.6691,-2.6691,-2.571,-2.5101,-2.5101,-2.4086,-2.3308,-2.2919,-2.2049,-2.121,-2.0413,-1.9945,-1.969,-1.969,-1.969,-1.969,-1.969,-1.969,-1.969,-3.4381,-3.5341,-3.6349,-3.6325,-3.6476,-3.6656,-3.6685,-3.6112,-3.5386,-3.4662,-3.4581,-3.4703,-3.4834,-3.532,0.0,0.0,0.0,0.0,0.0,0.0,0.0,0.0,0.0,0.0,0.0,0.0,0.0,0.0,0.0,0.0,0.0,0.0,0.0,0.0,-4.1213,-4.1396,-4.273,-4.1986,-4.1604,-4.1585,-4.0854,-4.0489,-4.0489,-4.0489,0.0,0.0,0.0,0.0,-3.8911,-3.9046,-3.8527,-3.7608,-3.7439,-3.7129,-3.6753,-3.6494,-3.5762,-3.4871,-3.4835,-3.4302,-3.3623,-3.3623,-3.3164,-3.243,-3.1494,-3.0742,-3.0173,-3.0063,-3.0026,-3.0063,-3.0173,-3.0705,-3.1237,-3.1366,-3.1311,-3.1219,-3.1219,-3.0946,-3.0566,-3.003,-2.9653,-2.9298,-2.8798,-2.8691,-2.8416,-2.774,-2.7638,-2.7418,-2.6776,-2.6691,-2.6691,-2.6691,-2.6691,-2.664,-2.6539,-2.527,-2.4455,-2.4354,-2.3054,-2.2237,-2.2123,-2.1385,-2.0599,-1.9726,-1.969,-1.969,-1.969,-1.9585,-1.9585,-1.969,-1.9585,-1.954,-3.2988,-3.4742,-3.6573,-3.6368,-3.6323,-3.643,-3.6656,-3.6078,-3.5489,-3.5424,-3.5369,-3.5584,0.0,-3.6028,-3.6125,0.0,0.0,0.0,0.0,0.0,0.0,0.0,0.0,0.0,0.0,0.0,0.0,0.0,0.0,0.0,0.0,0.0,0.0,0.0,0.0,-4.0991,-4.1074,-4.0829,-4.07,-4.07,-4.0546,-4.0489,-4.0489,-4.0489,-4.0123,0.0,0.0,0.0,-3.7161,-3.7892,-3.7276,-3.5935,-3.6579,-3.623,-3.5379,-3.5092,-3.472,-3.4284,-3.406,-3.3458,-3.2797,-3.2797,-3.2706,-3.2339,-3.0834,-3.0301,-3.0063,-2.936,-2.9177,-2.9347,-3.0026,-3.0283,-3.0558,-3.1237,-3.087,-3.0375,-3.0375,-3.0345,-2.9983,-2.8881,-2.892,-2.8815,-2.7771,-2.7298,-2.6996,-2.6894,-2.686,-2.6826,-2.6708,-2.6691,-2.6691,-2.6691,-2.6691,-2.6437,-2.5828,-2.4983,-2.4235,-2.3596,-2.2784,-2.1991,-2.1229,-2.1055,-2.0599,-1.9726,-1.969,-1.969,-1.969,-1.9121,-1.9151,-1.9675,-1.9106,-1.8852,-3.2771,-3.3956,-3.5268,-3.5754,-3.6625,-3.7411,-3.7528,-3.7064,-3.6339,-3.5456,0.0,0.0,0.0,0.0,-3.6921,-3.9131,0.0,0.0,0.0,0.0,0.0,0.0,0.0,0.0,0.0,0.0,0.0,0.0,0.0,0.0,0.0,0.0,0.0,0.0,0.0,0.0,-3.9459,-3.929,-3.9417,-3.9835,-3.9373,-3.9142,-3.9142,-3.9142,-3.895,0.0,0.0,-3.7873,-3.6738,-3.7142,-3.6603,-3.5545,-3.5911,-3.5373,-3.4365,-3.4093,-3.3808,-3.3538,-3.3395,-3.3043,-3.254,-3.21,-3.1659,-3.1182,-3.043,-2.9898,-2.9475,-2.9085,-2.8994,-2.9085,-2.9475,-2.9549,-2.9641,-3.0026,-2.9824,-2.9549,-2.9549,-2.9549,-2.9278,-2.8309,-2.8304,-2.8129,-2.7152,-2.6808,-2.6691,-2.6691,-2.6691,-2.6691,-2.6691,-2.6691,-2.6691,-2.6691,-2.6691,-2.6404,-2.5659,-2.4915,-2.4002,-2.2885,-2.2245,-2.1645,-2.1039,-2.0764,-2.033,-1.9711,-1.969,-1.969,-1.969,-1.9031,-1.8867,-1.9136,-1.8478,-1.8179,-3.2255,-3.2921,-3.3713,-3.4606,-3.624,-3.7751,-3.8192,-3.7842,-3.711,-3.6063,0.0,0.0,0.0,-3.6007,0.0,0.0,0.0,0.0,0.0,0.0,0.0,0.0,0.0,0.0,0.0,0.0,0.0,0.0,0.0,0.0,0.0,0.0,0.0,0.0,0.0,0.0,-3.8397,-3.807,-3.8263,-3.9022,-3.8344,-3.8007,-3.8007,-3.8007,-3.7892,-3.77,-3.77,-3.7219,-3.643,-3.643,-3.5949,-3.5218,-3.543,-3.4798,-3.3753,-3.3336,-3.2856,-3.246,-3.265,-3.2427,-3.1953,-3.1311,-3.0705,-3.0173,-2.9989,-2.9494,-2.8994,-2.8994,-2.8994,-2.8994,-2.8994,-2.8994,-2.8994,-2.8994,-2.8994,-2.8994,-2.8994,-2.8994,-2.8761,-2.8022,-2.7885,-2.7625,-2.6828,-2.6706,-2.6691,-2.6691,-2.6539,-2.6437,-2.6437,-2.6285,-2.6167,-2.6167,-2.6167,-2.5879,-2.5152,-2.4408,-2.3494,-2.2378,-2.1869,-2.143,-2.1039,-2.0409,-1.9894,-1.9486,-1.9301,-1.9226,-1.9226,-1.8568,-1.8328,-1.8463,-1.7772,-1.7458,-3.0508,-3.1513,-3.2706,-3.2787,-3.4284,-3.616,-3.7897,-3.7683,-3.7379,-3.8251,0.0,0.0,0.0,-3.7276,0.0,0.0,0.0,0.0,0.0,0.0,0.0,0.0,0.0,0.0,0.0,0.0,0.0,0.0,0.0,0.0,0.0,0.0,0.0,0.0,0.0,0.0,-3.8397,-3.7652,-3.7579,-3.8172,-3.8073,-3.8007,-3.8007,-3.8007,-3.7565,-3.6796,-3.6796,-3.6334,-3.5603,-3.5603,-3.5084,-3.4372,-3.518,-3.4798,-3.3713,-3.288,-3.1788,-3.0881,-3.1626,-3.1224,-3.0356,-3.032,-3.0246,-3.0063,-2.9329,-2.9049,-2.8994,-2.8994,-2.8994,-2.8994,-2.8994,-2.8994,-2.8994,-2.8994,-2.8994,-2.8994,-2.8994,-2.8994,-2.8755,-2.794,-2.7875,-2.7639,-2.6848,-2.6699,-2.6691,-2.6691,-2.6116,-2.5693,-2.5693,-2.5067,-2.4675,-2.4675,-2.4675,-2.434,-2.3613,-2.2885,-2.2412,-2.231,-2.1869,-2.143,-2.1039,-2.0002,-1.9267,-1.8777,-1.8179,-1.7832,-1.7832,-1.7174,-1.716,-1.7742,-1.7085,-1.6786,-3.0541,-3.1617,-3.2724,-3.322,-3.4281,-3.5642,-3.7404,-3.8074,-3.8459,-3.8877,-3.9086,0.0,0.0,0.0,0.0,0.0,0.0,0.0,0.0,0.0,0.0,0.0,0.0,0.0,0.0,0.0,0.0,0.0,0.0,0.0,0.0,0.0,0.0,0.0,0.0,0.0,0.0,-3.5483,-3.5431,-3.5133,-3.6066,-3.6498,-3.6449,-3.6449,-3.5968,-3.5141,-3.5141,-3.4968,-3.4641,-3.4103,-3.4007,-3.4122,-3.343,-3.2872,-3.2459,-3.2133,-3.1596,-3.1051,-3.1242,-3.093,-3.0354,-2.9669,-2.9457,-2.9402,-2.9085,-2.8994,-2.8994,-2.8994,-2.8994,-2.8994,-2.8994,-2.8994,-2.8994,-2.8994,-2.8994,-2.8847,-2.8356,-2.8246,-2.794,-2.6877,-2.6931,-2.6989,-2.6435,-2.6539,-2.6539,-2.6082,-2.5795,-2.5439,-2.4966,-2.4661,-2.4506,-2.4506,-2.4069,-2.3697,-2.341,-2.2733,-2.231,-2.231,-2.1615,-2.115,-2.1007,-1.9694,-1.8872,-1.8702,-1.8059,-1.7697,-1.7697,-1.704,-1.6831,-1.707,-1.6443,-1.6144,-3.0659,-3.1504,-3.2412,-3.322,-3.4045,-3.5147,-3.7055,-3.8079,-3.8758,-3.9352,-3.8883,-3.7948,-3.6558,0.0,0.0,0.0,0.0,0.0,0.0,0.0,0.0,0.0,0.0,0.0,0.0,0.0,0.0,0.0,0.0,0.0,0.0,0.0,0.0,0.0,0.0,0.0,0.0,-3.3957,-3.3902,-3.3301,-3.438,-3.4817,-3.4706,-3.4693,-3.4353,-3.3795,-3.3795,-3.3795,-3.3737,-3.3141,-3.3256,-3.3622,-3.1948,-3.1468,-3.1679,-3.1391,-3.1123,-3.0864,-3.0734,-3.0339,-2.9828,-2.9365,-2.883,-2.8375,-2.8655,-2.8496,-2.8301,-2.8558,-2.8631,-2.8631,-2.8631,-2.8815,-2.892,-2.8686,-2.8631,-2.8411,-2.7585,-2.742,-2.7098,-2.6018,-2.6083,-2.6151,-2.5627,-2.5788,-2.5828,-2.5321,-2.505,-2.4712,-2.4205,-2.3934,-2.3799,-2.3799,-2.3139,-2.2801,-2.3038,-2.2158,-2.163,-2.1765,-2.0877,-2.0431,-2.0655,-1.9006,-1.8089,-1.8089,-1.7445,-1.7101,-1.7101,-1.6652,-1.6413,-1.6398,-1.5979,-1.5799,-3.0648,-3.0997,-3.1586,-3.2412,-3.322,-3.4449,-3.6927,-3.7507,-3.8019,-3.9881,-3.7952,-3.6004,-3.6253,0.0,0.0,0.0,0.0,0.0,0.0,0.0,0.0,0.0,0.0,0.0,0.0,0.0,0.0,0.0,0.0,0.0,0.0,0.0,0.0,0.0,0.0,0.0,0.0,-3.3359,-3.3336,-3.3243,-3.3243,-3.3159,-3.2987,-3.2926,-3.2891,-3.2891,-3.2891,-3.2891,-3.2891,-3.2891,-3.2872,-3.2718,-3.1064,-3.0929,-3.1583,-3.0717,-3.0222,-2.9999,-2.998,-2.9289,-2.8546,-2.9394,-2.8408,-2.7065,-2.7848,-2.7392,-2.6778,-2.7548,-2.7787,-2.7787,-2.7787,-2.8374,-2.8796,-2.797,-2.7787,-2.7567,-2.6759,-2.6594,-2.6355,-2.555,-2.5451,-2.526,-2.4448,-2.443,-2.4506,-2.4506,-2.3866,-2.3393,-2.3376,-2.2733,-2.2293,-2.2293,-2.1617,-2.1465,-2.2226,-2.088,-2.0176,-2.0577,-1.9524,-1.9228,-1.9933,-1.7869,-1.6712,-1.6712,-1.6099,-1.5799,-1.5799,-1.5799,-1.5799,-1.5799,-1.5799,-1.5799,-3.0168,-3.0671,-3.1586,-3.2412,-3.3642,-3.5165,-3.7055,-3.7507,0.0,0.0,-3.7745,-3.6302,-3.5768,0.0,0.0,0.0,0.0,0.0,0.0,0.0,0.0,0.0,0.0,0.0,0.0,0.0,0.0,0.0,0.0,0.0,0.0,0.0,0.0,0.0,0.0,0.0,0.0,0.0,-3.041,-2.9782,-2.9745,-3.0876,-3.2997,-3.2975,-3.264,-3.2064,-3.2064,-3.2064,-3.2064,-3.2064,-3.1698,-3.1102,-3.059,-3.0552,-3.0756,-3.0494,-3.0355,-3.0177,-2.9426,-2.8941,-2.8601,-2.8107,-2.7471,-2.6935,-2.7177,-2.6947,-2.6649,-2.6888,-2.6961,-2.6961,-2.6961,-2.7145,-2.7255,-2.7016,-2.6961,-2.6741,-2.5915,-2.575,-2.5511,-2.4704,-2.4791,-2.4855,-2.4385,-2.4607,-2.4619,-2.3858,-2.3528,-2.3021,-2.2,-2.1177,-2.0677,-2.0677,-2.0475,-2.045,-2.066,-2.0255,-2.0061,-2.0176,-1.8931,-1.8394,-1.884,-1.7486,-1.6712,-1.6712,-1.6099,-1.5799,-1.5799,-1.5799,-1.5799,-1.5799,-1.5799,-1.5799,-3.1145,-3.1738,-3.2632,-3.3788,-3.5037,-3.6266,-3.7257,0.0,0.0,0.0,0.0,-3.5988,0.0,0.0,0.0,0.0,0.0,0.0,0.0,0.0,0.0,0.0,0.0,0.0,0.0,0.0,0.0,0.0,0.0,0.0,0.0,0.0,0.0,0.0,0.0,0.0,0.0,0.0,0.0,-2.8301,-2.8256,-2.923,-3.1079,-3.1039,-3.0907,-3.0709,-3.0683,-3.0487,-3.0198,-3.0198,-2.989,-2.9448,-2.9756,-2.9698,-2.9448,-2.9775,-2.9679,-2.9321,-2.867,-2.823,-2.788,-2.7589,-2.6866,-2.6188,-2.6461,-2.6172,-2.5815,-2.6046,-2.6117,-2.6117,-2.6117,-2.6117,-2.6117,-2.6117,-2.6117,-2.5897,-2.5089,-2.4905,-2.4777,-2.4281,-2.4296,-2.4284,-2.4105,-2.4077,-2.3774,-2.2832,-2.2309,-2.1735,-2.0839,-2.0289,-2.0002,-2.0002,-1.9731,-1.9664,-1.9968,-1.9345,-1.9002,-1.9157,-1.7985,-1.7302,-1.7377,-1.6713,-1.6353,-1.6353,-1.5979,-1.5799,-1.5799,-1.5799,-1.5799,-1.5799,-1.5799,-1.5799,-3.277,-3.3403,-3.4017,-3.5734,-3.689,-3.7569,-3.7514,-3.8065,-3.8579,-3.8505,0.0,0.0,0.0,0.0,0.0,0.0,0.0,0.0,0.0,0.0,0.0,0.0,0.0,0.0,0.0,0.0,0.0,0.0,0.0,0.0,0.0,0.0,0.0,0.0,0.0,0.0,0.0,0.0,0.0,0.0,-2.8027,-2.8024,-2.7962,-2.8003,-2.8407,-2.9098,-2.9042,-2.8574,-2.789,-2.789,-2.789,-2.7967,-2.8698,-2.8544,-2.7986,-2.8717,-2.8525,-2.789,-2.7813,-2.7255,-2.6717,-2.7428,-2.642,-2.5012,-2.5688,-2.5177,-2.4517,-2.5151,-2.5312,-2.5293,-2.5293,-2.5293,-2.5293,-2.5293,-2.5237,-2.5017,-2.4337,-2.4135,-2.408,-2.408,-2.3828,-2.3587,-2.3473,-2.2929,-2.2287,-2.1562,-2.0567,-1.99,-1.99,-1.9833,-1.9799,-1.9799,-1.9198,-1.908,-1.9731,-1.8252,-1.7478,-1.7802,-1.6874,-1.6163,-1.5856,-1.5827,-1.5799,-1.5799,-1.5799,-1.5799,-1.5799,-1.5799,-1.5799,-1.5799,-1.5799,-1.5799,-3.1306,-3.1881,-3.2728,-3.4779,-3.6872,-3.8267,-3.7624,-3.7624,-3.7569,-3.6945,0.0,0.0,0.0,0.0,0.0,0.0,0.0,0.0,0.0,0.0,0.0,0.0,0.0,0.0,0.0,0.0,0.0,0.0,0.0,0.0,0.0,0.0,0.0,0.0,0.0,0.0,-2.4238,-2.4902,-2.5234,0.0,-2.5937,-2.625,-2.6287,-2.7563,-2.8182,-2.8255,-2.8229,-2.8116,-2.789,-2.789,-2.789,-2.7909,-2.8082,-2.8044,-2.7909,-2.8082,-2.8044,-2.7794,-2.7121,-2.6755,-2.6524,-2.6024,-2.5048,-2.4205,-2.4981,-2.4398,-2.3644,-2.4464,-2.458,-2.4447,-2.4447,-2.4447,-2.4447,-2.4447,-2.3988,-2.3639,-2.4098,-2.3694,-2.3272,-2.3272,-2.3198,-2.2789,-2.17,-2.1383,-2.1068,-2.044,-1.967,-1.9147,-1.9147,-1.864,-1.8262,-1.8262,-1.8132,-1.8115,-1.8245,-1.7686,-1.7338,-1.7412,-1.6739,-1.6274,-1.6191,-1.5926,-1.5799,-1.5799,-1.5799,-1.5799,-1.5799,-1.5799,-1.5799,-1.5799,-1.5799,-1.5799,-3.0864,-3.176,-3.2941,-3.5091,0.0,-3.79,-3.711,-3.6285,-3.5605,-3.5183,0.0,0.0,0.0,0.0,0.0,0.0,0.0,0.0,0.0,0.0,0.0,0.0,0.0,0.0,0.0,0.0,0.0,0.0,0.0,0.0,0.0,0.0,0.0,0.0,0.0,0.0,-2.3105,-2.3555,-2.3789,-2.3828,-2.4297,-2.4492,-2.4551,-2.6214,-2.6651,-2.6157,-2.6563,-2.6717,-2.6659,-2.6659,-2.6659,-2.6697,-2.7101,-2.7024,-2.6717,-2.7121,-2.7005,-2.6582,-2.614,-2.5736,-2.5332,-2.487,-2.4091,-2.3388,-2.3713,-2.336,-2.3042,-2.3795,-2.3603,-2.3232,-2.3656,-2.34,-2.3052,-2.3052,-2.3015,-2.3125,-2.3529,-2.2997,-2.2428,-2.2428,-2.2428,-2.2191,-2.1457,-2.0809,-2.017,-1.9566,-1.886,-1.8369,-1.8369,-1.8048,-1.7811,-1.7811,-1.7811,-1.7811,-1.7811,-1.7361,-1.7052,-1.7052,-1.6421,-1.6067,-1.6067,-1.587,-1.5799,-1.5799,-1.5799,-1.5799,-1.5799,-1.5799,-1.5799,-1.5799,-1.5799,-1.5799,-3.0474,-3.1991,-3.3607,-3.5457,-3.6536,0.0,-3.6074,-3.4688,-3.355,0.0,0.0,0.0,0.0,0.0,0.0,0.0,0.0,0.0,0.0,0.0,0.0,0.0,0.0,0.0,0.0,0.0,0.0,0.0,0.0,0.0,0.0,0.0,0.0,0.0,0.0,-2.2803,-2.2656,-2.2812,-2.293,-2.2988,-2.3125,-2.3105,-2.3027,-2.4344,-2.4585,-2.3974,-2.4684,-2.4962,-2.4889,-2.4889,-2.488,-2.4947,-2.5659,-2.5601,-2.5178,-2.5909,-2.5793,-2.5284,-2.5139,-2.4659,-2.4072,-2.3918,-2.3302,-2.2564,-2.2564,-2.2424,-2.2426,-2.31,-2.266,-2.2157,-2.2845,-2.2417,-2.1803,-2.1803,-2.2189,-2.2611,-2.2758,-2.2152,-2.1565,-2.1565,-2.1403,-2.1241,-2.1241,-2.0241,-1.9276,-1.8801,-1.82,-1.7811,-1.7811,-1.7811,-1.7811,-1.7811,-1.7811,-1.7811,-1.7811,-1.7191,-1.6789,-1.6789,-1.6163,-1.5799,-1.5799,-1.5799,-1.5799,-1.5799,-1.5799,-1.5799,-1.5799,-1.5799,-1.5799,-1.5799,-1.5799,-1.5799,-2.8798,-3.1253,-3.3525,0.0,-3.5082,-3.5465,0.0,0.0,-3.2559,0.0,0.0,0.0,0.0,0.0,0.0,0.0,0.0,0.0,0.0,0.0,0.0,0.0,0.0,0.0,0.0,0.0,0.0,0.0,0.0,0.0,0.0,0.0,-2.3851,-2.3108,-2.2367,0.0,-2.0845,-2.1658,-2.2051,-2.207,-2.2773,-2.2754,-2.207,-2.2304,-2.2706,-2.3238,-2.3355,-2.3339,-2.3229,-2.3229,-2.3203,-2.3139,-2.3254,-2.3697,-2.4264,-2.4399,-2.4793,-2.5187,-2.4505,-2.4187,-2.3975,-2.3225,-2.237,-2.1812,-2.2544,-2.2106,-2.154,-2.225,-2.2243,-2.1996,-2.1998,-2.1893,-2.1803,-2.1803,-2.1308,-2.1035,-2.1785,-2.129,-2.0668,-2.0668,-1.9794,-1.9037,-1.9037,-1.8478,-1.8036,-1.7963,-1.7862,-1.7811,-1.7811,-1.7811,-1.7811,-1.7811,-1.7811,-1.7811,-1.7811,-1.7191,-1.6789,-1.6789,-1.6163,-1.5799,-1.5799,-1.5799,-1.5799,-1.5799,-1.5799,-1.5799,-1.5799,-1.5799,-1.5799,-1.5799,-1.5799,-1.5799,-2.8494,-3.0175,-3.164,0.0,-3.2992,-3.3473,-3.2831,0.0,0.0,0.0,0.0,0.0,0.0,0.0,0.0,0.0,0.0,0.0,0.0,0.0,0.0,0.0,0.0,0.0,0.0,0.0,0.0,0.0,0.0,0.0,0.0,-2.3865,-2.3033,-2.2198,-2.1414,0.0,-2.0508,-2.0955,-2.1172,-2.1172,-2.1523,-2.1504,-2.1172,-2.1172,-2.1617,-2.2374,-2.2374,-2.2594,-2.2957,-2.2914,-2.2873,-2.2856,-2.2819,-2.3024,-2.3379,-2.3379,-2.3601,-2.3851,-2.3485,-2.3043,-2.2581,-2.2197,-2.1504,-2.0908,-2.1273,-2.1078,-2.0862,-2.1635,-2.1334,-2.0862,-2.1307,-2.0911,-2.0407,-2.0407,-2.0097,-1.9932,-2.0333,-2.0097,-1.9822,-1.9822,-1.9385,-1.8965,-1.8843,-1.8508,-1.8187,-1.8057,-1.79,-1.7811,-1.7811,-1.7811,-1.7811,-1.7811,-1.7811,-1.7811,-1.7811,-1.7361,-1.7002,-1.6815,-1.6355,-1.5983,-1.5799,-1.5799,-1.5799,-1.5799,-1.5799,-1.5799,-1.5799,-1.5799,-1.5799,-1.5799,-1.5799,-1.5799,-2.7636,0.0,-2.9326,-2.9909,-3.0719,-3.1339,0.0,0.0,0.0,0.0,0.0,0.0,0.0,0.0,0.0,0.0,0.0,0.0,0.0,0.0,0.0,0.0,0.0,0.0,0.0,0.0,0.0,0.0,0.0,0.0,-2.3821,-2.2928,-2.2191,-2.1591,-2.0798,-2.0414,-2.0477,-2.0563,-2.0605,-2.0605,-2.0605,-2.0605,-2.0605,-2.0605,-2.0935,-2.1509,-2.1509,-2.182,-2.236,-2.2297,-2.2256,-2.223,-2.218,-2.2293,-2.2466,-2.2466,-2.2601,-2.2774,-2.2543,-2.2043,-2.1466,-2.1254,-2.0792,-2.0312,-2.0312,-2.0312,-2.0419,-2.0952,-2.0508,-1.9998,-2.0618,-2.0079,-1.9383,-1.9383,-1.9335,-1.9305,-1.9305,-1.9305,-1.9305,-1.9305,-1.9259,-1.9182,-1.9018,-1.8715,-1.843,-1.8229,-1.7971,-1.7811,-1.7811,-1.7811,-1.7811,-1.7811,-1.7811,-1.7811,-1.7811,-1.7408,-1.7076,-1.6815,-1.6409,-1.6052,-1.5799,-1.5799,-1.5799,-1.5799,-1.5799,-1.5799,-1.5799,-1.5799,-1.5799,-1.5799,-1.5799,-1.5799,-2.5274,-2.6205,0.0,-2.7641,-2.8435,0.0,0.0,0.0,0.0,0.0,0.0,0.0,0.0,0.0,0.0,0.0,0.0,0.0,0.0,0.0,0.0,0.0,0.0,0.0,0.0,0.0,0.0,0.0,0.0,0.0,-2.2908,-2.2043,-2.1543,-2.1512,-2.0714,-2.0332,-2.0395,-2.0539,-2.0605,-2.0605,-2.0605,-2.0605,-2.0605,-2.0605,-2.0625,-2.0664,-2.0664,-2.0641,-2.0618,-2.0561,-2.0488,-2.0437,-2.0427,-2.0908,-2.1562,-2.1562,-2.2081,-2.2677,-2.185,-2.1543,-2.137,-2.0619,-2.0331,-2.0312,-2.0312,-2.0312,-2.0269,-2.0126,-2.005,-1.9973,-1.9892,-1.9745,-1.9582,-1.9582,-1.9442,-1.9305,-1.9305,-1.9305,-1.9305,-1.9305,-1.915,-1.9001,-1.8984,-1.8566,-1.8208,-1.8208,-1.7971,-1.7811,-1.7811,-1.7811,-1.7811,-1.7811,-1.7811,-1.7811,-1.7811,-1.7191,-1.6815,-1.6789,-1.6191,-1.5827,-1.5799,-1.5799,-1.5799,-1.5799,-1.5799,-1.5799,-1.5799,-1.5799,-1.5799,-1.5799,-1.5799,-1.5799,-2.4626,0.0,0.0,-2.6199,-2.6919,-2.7696,0.0,0.0,0.0,0.0,0.0,0.0,0.0,0.0,0.0,0.0,0.0,0.0,0.0,0.0,0.0,0.0,0.0,0.0,0.0,0.0,0.0,0.0,0.0,0.0,-2.2611,-2.1828,-2.1176,-2.0746,-2.0456,-2.0347,-2.045,-2.0543,-2.0605,-2.0605,-2.0605,-2.0605,-2.0605,-2.0605,-2.0605,-2.0605,-2.0605,-2.0585,-2.0562,-2.0441,-2.0398,-2.0366,-2.0313,-2.0485,-2.0735,-2.0735,-2.0927,-2.1158,-2.085,-2.0735,-2.0677,-2.0389,-2.0312,-2.0312,-2.0312,-2.0312,-2.0285,-2.0205,-2.0106,-1.9983,-1.9836,-1.9707,-1.9569,-1.9442,-1.935,-1.9305,-1.9305,-1.9305,-1.9305,-1.9305,-1.9227,-1.9198,-1.9198,-1.893,-1.8659,-1.8489,-1.8229,-1.7992,-1.7833,-1.7811,-1.7811,-1.7811,-1.7811,-1.7811,-1.7811,-1.7384,-1.7027,-1.6815,-1.6367,-1.6011,-1.5799,-1.5799,-1.5799,-1.5799,-1.5799,-1.5799,-1.5799,-1.5799,-1.5799,-1.5799,-1.5799,-1.5799,-2.4158,0.0,0.0,0.0,0.0,-2.5759,0.0,0.0,0.0,0.0,0.0,0.0,0.0,0.0,0.0,0.0,0.0,0.0,0.0,0.0,0.0,0.0,0.0,0.0,0.0,0.0,0.0,0.0,0.0,0.0,-2.2,-2.1287,-2.069,-2.0304,-2.0302,-2.0347,-2.0472,-2.0539,-2.0585,-2.0605,-2.0605,-2.0605,-2.0605,-2.0605,-2.0605,-2.0605,-2.0605,-2.0605,-2.0586,-2.048,-2.0425,-2.0379,-2.0321,-2.0296,-2.0312,-2.0312,-2.0312,-2.0312,-2.0312,-2.0312,-2.0312,-2.0312,-2.0312,-2.0312,-2.0312,-2.0312,-2.0312,-2.0312,-2.0205,-2.0088,-2.0001,-1.9828,-1.9604,-1.9365,-1.9305,-1.9305,-1.9305,-1.9305,-1.9305,-1.9305,-1.9305,-1.9305,-1.9305,-1.9134,-1.8914,-1.8623,-1.8371,-1.8103,-1.7816,-1.7811,-1.7811,-1.7811,-1.7811,-1.7811,-1.7811,-1.7502,-1.715,-1.6815,-1.6474,-1.6136,-1.5799,-1.5799,-1.5799,-1.5799,-1.5799,-1.5799,-1.5799,-1.5799,-1.5799,-1.5799,-1.5799,-1.5799,0.0,0.0,0.0,0.0,0.0,0.0,0.0,0.0,0.0,0.0,0.0,0.0,0.0,0.0,0.0,0.0,0.0,0.0,0.0,0.0,0.0,0.0,0.0,0.0,0.0,0.0,0.0,0.0,0.0,-2.1712,-2.1092,-2.0416,-2.0116,-2.0285,-2.0302,-2.0327,-2.0406,-2.0472,-2.0537,-2.0605,-2.0605,-2.0605,-2.0605,-2.0605,-2.0605,-2.0605,-2.0605,-2.0605,-2.0586,-2.0536,-2.045,-2.0406,-2.0322,-2.0295,-2.0292,-2.0312,-2.0312,-2.0312,-2.0312,-2.0312,-2.0312,-2.0312,-2.0312,-2.0312,-2.0312,-2.0312,-2.0312,-2.0312,-2.0312,-2.0304,-2.0285,-2.006,-1.9719,-1.9394,-1.9305,-1.9305,-1.9305,-1.9305,-1.9305,-1.9305,-1.9305,-1.9305,-1.9305,-1.9134,-1.8914,-1.8642,-1.8391,-1.8103,-1.7856,-1.7811,-1.7811,-1.7811,-1.7811,-1.7811,-1.7811,-1.7502,-1.7175,-1.6841,-1.6474,-1.6163,-1.5827,-1.5799,-1.5799,-1.5799,-1.5799,-1.5799,-1.5799,-1.5799,-1.5799,-1.5799,-1.5799,-1.5799,-2.3125,0.0,0.0,0.0,0.0,0.0,0.0,0.0,0.0,0.0,0.0,0.0,0.0,0.0,0.0,0.0,0.0,0.0,0.0,0.0,0.0,0.0,0.0,0.0,0.0,0.0,0.0,0.0,0.0,-2.2064,-2.257,-2.15,-2.069,-2.0304,-2.0302,-2.0299,-2.0322,-2.0438,-2.0511,-2.0537,-2.0585,-2.0605,-2.0605,-2.0605,-2.0605,-2.0605,-2.0605,-2.0605,-2.0586,-2.0536,-2.0484,-2.047,-2.0362,-2.0295,-2.0308,-2.0296,-2.0312,-2.0312,-2.0312,-2.0312,-2.0312,-2.0312,-2.0312,-2.0312,-2.0312,-2.0312,-2.0312,-2.0312,-2.0312,-2.0269,-2.0115,-1.9933,-1.9762,-1.955,-1.9513,-1.9485,-1.9335,-1.9305,-1.9305,-1.9305,-1.9305,-1.9305,-1.9305,-1.9243,-1.915,-1.8913,-1.8659,-1.8391,-1.8125,-1.7927,-1.7811,-1.7811,-1.7811,-1.7811,-1.7811,-1.7502,-1.7272,-1.7175,-1.6617,-1.6274,-1.6163,-1.5926,-1.5799,-1.5799,-1.5799,-1.5799,-1.5799,-1.5799,-1.5799,-1.5799,-1.5799,-1.561,-2.322,-2.3297,-2.3419,0.0,0.0,0.0,-2.3021,-2.2773,0.0,0.0,0.0,0.0,0.0,0.0,0.0,0.0,0.0,0.0,0.0,0.0,0.0,0.0,0.0,0.0,0.0,0.0,0.0,0.0,-2.2574,-2.2291,-2.2283,-2.1545,-2.0878,-2.0323,-2.0306,-2.0296,-2.0307,-2.037,-2.0441,-2.0508,-2.054,-2.0565,-2.0605,-2.0605,-2.0605,-2.0605,-2.0605,-2.0605,-2.0605,-2.0563,-2.0536,-2.0484,-2.0418,-2.0361,-2.0346,-2.0308,-2.0082,-1.9843,-2.0185,-1.9831,-1.935,-2.0062,-2.0042,-1.9831,-2.0196,-2.0312,-2.0312,-2.0312,-2.0312,-2.0249,-2.0041,-1.9934,-1.9836,-1.9649,-1.9614,-1.9541,-1.9335,-1.9305,-1.9305,-1.9305,-1.9305,-1.9305,-1.9305,-1.9305,-1.9196,-1.8878,-1.8697,-1.8469,-1.8082,-1.79,-1.7811,-1.7811,-1.7811,-1.7811,-1.7811,-1.7618,-1.7439,-1.732,-1.6799,-1.6501,-1.6501,-1.6067,-1.5885,-1.6011,-1.5885,-1.5799,-1.5799,-1.5799,-1.5799,-1.5799,-1.5799,-1.5551,-2.3637,-2.347,-2.3326,0.0,0.0,0.0,-2.1536,-2.1585,-2.1626,0.0,0.0,0.0,0.0,0.0,0.0,0.0,0.0,0.0,0.0,0.0,0.0,0.0,0.0,0.0,0.0,0.0,0.0,-2.3448,-2.3265,-2.2565,-2.1298,-2.1167,-2.0907,-2.0414,-2.0342,-2.0292,-2.0295,-2.0307,-2.0357,-2.0477,-2.0484,-2.0537,-2.0586,-2.0605,-2.0605,-2.0605,-2.0605,-2.0605,-2.0586,-2.0508,-2.0427,-2.0375,-2.0352,-2.0314,-2.0255,-2.0191,-1.9782,-1.935,-2.0062,-1.9309,-1.8249,-1.9803,-1.9783,-1.9295,-2.0077,-2.03,-2.0312,-2.0312,-2.0312,-2.0269,-2.0078,-2.0031,-1.9963,-1.9707,-1.9636,-1.9569,-1.9365,-1.932,-1.9305,-1.9305,-1.9305,-1.9305,-1.9305,-1.9305,-1.9164,-1.8753,-1.8623,-1.843,-1.7949,-1.7833,-1.7811,-1.7811,-1.7811,-1.7811,-1.7811,-1.7811,-1.7681,-1.7368,-1.7027,-1.6841,-1.6789,-1.6191,-1.5983,-1.6246,-1.5955,-1.5799,-1.5799,-1.5799,-1.5799,-1.5799,-1.5799,-1.5551,0.0,0.0,0.0,0.0,0.0,0.0,-2.1493,-2.1479,-2.1591,0.0,0.0,0.0,0.0,0.0,0.0,0.0,0.0,0.0,0.0,0.0,0.0,0.0,0.0,0.0,0.0,0.0,-2.1902,-2.2376,-2.3367,-2.3621,-2.2818,-2.2257,-2.1676,-2.1051,-2.0561,-2.03,-2.0296,-2.0296,-2.0305,-2.0337,-2.0441,-2.051,-2.0515,-2.0585,-2.0605,-2.0605,-2.0605,-2.0605,-2.0547,-1.9844,-1.9551,-1.953,-1.9479,-1.9448,-1.9439,-1.9356,-1.969,-2.018,-2.0322,-2.0162,-1.9934,-2.0279,-2.0225,-2.0076,-2.025,-2.0294,-2.0312,-2.0312,-2.0312,-2.0285,-2.0249,-2.0241,-2.0188,-1.9963,-1.9836,-1.9713,-1.9582,-1.9409,-1.9305,-1.9305,-1.9305,-1.9305,-1.9305,-1.9305,-1.9274,-1.918,-1.8842,-1.8566,-1.845,-1.8078,-1.7811,-1.7811,-1.7811,-1.7811,-1.7811,-1.7811,-1.7766,-1.7704,-1.7408,-1.7076,-1.6815,-1.6436,-1.6123,-1.5898,-1.5827,-1.5799,-1.5799,-1.5799,-1.5799,-1.5799,-1.5799,-1.5551,0.0,0.0,0.0,-2.2608,0.0,0.0,0.0,-2.1177,-2.1039,0.0,0.0,0.0,0.0,0.0,0.0,0.0,0.0,0.0,0.0,0.0,0.0,0.0,0.0,0.0,0.0,0.0,-2.1159,-2.226,-2.3343,-2.373,-2.3238,-2.2566,-2.1878,-2.1208,-2.0601,-2.0312,-2.0312,-2.0299,-2.0308,-2.0294,-2.0361,-2.0435,-2.0508,-2.0539,-2.0565,-2.0605,-2.0605,-2.0605,-2.0527,-1.9668,-1.9043,-1.8652,-1.861,-1.8862,-1.9232,-1.9166,-1.9155,-1.9272,-2.0106,-1.9282,-1.8134,-1.9846,-1.9806,-1.9187,-1.9588,-1.9368,-1.9177,-2.0062,-1.9985,-1.9754,-2.0196,-2.0312,-2.0145,-1.9535,-1.9668,-1.9744,-1.9176,-1.8949,-1.8841,-1.8841,-1.8444,-1.8353,-1.9161,-1.9305,-1.9259,-1.9166,-1.8948,-1.8715,-1.843,-1.7838,-1.7407,-1.7274,-1.6915,-1.6847,-1.7219,-1.7253,-1.7405,-1.7794,-1.7502,-1.7296,-1.7288,-1.6815,-1.6394,-1.6067,-1.6067,-1.5955,-1.5799,-1.5799,-1.5799,-1.5799,-1.5799,-1.5551,0.0,0.0,0.0,0.0,0.0,-2.2218,0.0,0.0,0.0,0.0,0.0,0.0,0.0,0.0,0.0,0.0,0.0,0.0,0.0,0.0,0.0,0.0,0.0,0.0,0.0,0.0,-2.0553,-2.235,-2.3115,-2.3426,-2.3287,-2.2596,-2.1941,-2.1411,-2.0679,-2.0312,-2.0312,-2.0312,-2.0292,-2.0308,-2.0301,-2.0357,-2.048,-2.0486,-2.0539,-2.0605,-2.0605,-2.0508,-2.0273,-1.9414,-1.8535,-1.7754,-1.7754,-1.8281,-1.9023,-1.8801,-1.8485,-1.8348,-1.9531,-1.8139,-1.6271,-1.9033,-1.9007,-1.8017,-1.8664,-1.8324,-1.8005,-1.943,-1.9307,-1.8915,-1.9619,-1.9812,-1.9596,-1.8778,-1.9067,-1.9307,-1.8483,-1.8207,-1.8137,-1.8137,-1.7464,-1.7348,-1.8812,-1.8941,-1.8843,-1.8832,-1.8657,-1.8342,-1.7894,-1.7277,-1.6779,-1.6516,-1.595,-1.5832,-1.6445,-1.6631,-1.6931,-1.7557,-1.7482,-1.7502,-1.7704,-1.7068,-1.6581,-1.6301,-1.6123,-1.593,-1.5799,-1.5679,-1.5679,-1.5799,-1.5799,-1.561,0.0,0.0,0.0,0.0,-2.2697,0.0,0.0,0.0,0.0,0.0,0.0,0.0,0.0,0.0,0.0,0.0,0.0,0.0,0.0,0.0,0.0,0.0,0.0,0.0,0.0,0.0,0.0,-2.1932,-2.2467,-2.2996,-2.3614,-2.272,-2.2171,-2.209,-2.0919,-2.0312,-2.0312,-2.0312,-2.0292,-2.0308,-2.0296,-2.0332,-2.0418,-2.0475,-2.0539,-2.0605,-2.0605,-2.0156,-1.9375,-1.8516,-1.7637,-1.6855,-1.6855,-1.7383,-1.8047,-1.7265,-1.789,-1.9062,-1.8476,-1.8026,-1.7753,-1.8143,-1.8097,-1.7916,-1.7948,-1.7874,-1.7821,-1.8034,-1.7979,-1.7876,-1.7965,-1.8003,-1.7965,-1.7855,-1.7791,-1.7745,-1.7632,-1.7418,-1.7244,-1.7244,-1.7064,-1.7183,-1.8078,-1.7642,-1.7422,-1.809,-1.7397,-1.6729,-1.6534,-1.6238,-1.5947,-1.5753,-1.5646,-1.5629,-1.5714,-1.6326,-1.6749,-1.6834,-1.7417,-1.7635,-1.7368,-1.6722,-1.6355,-1.6301,-1.5418,-1.5242,-1.5799,-1.5214,-1.5229,-1.5799,-1.5799,-1.577,0.0,0.0,0.0,0.0,0.0,0.0,-2.0921,0.0,-2.0513,0.0,0.0,0.0,0.0,0.0,0.0,0.0,0.0,0.0,0.0,0.0,0.0,0.0,0.0,0.0,0.0,0.0,0.0,0.0,0.0,-2.2539,-2.3027,-2.2516,-2.2195,-2.2195,-2.0967,-2.0312,-2.0312,-2.0312,-2.0312,-2.0312,-2.0292,-2.0302,-2.0337,-2.0418,-2.0204,-1.9798,-1.9823,-1.9355,-1.8477,-1.7617,-1.7031,-1.6641,-1.6133,-1.6484,-1.7207,-1.6836,-1.7168,-1.7812,-1.7949,-1.7344,-1.6562,-1.707,-1.7223,-1.7281,-1.7729,-1.7159,-1.6542,-1.7483,-1.7395,-1.7099,-1.7587,-1.7702,-1.7587,-1.7099,-1.7315,-1.7497,-1.701,-1.6714,-1.6522,-1.6522,-1.597,-1.5753,-1.6573,-1.6798,-1.7018,-1.7348,-1.6918,-1.6507,-1.6318,-1.5779,-1.5314,-1.5007,-1.4655,-1.4588,-1.4919,-1.5257,-1.5612,-1.6018,-1.6356,-1.6446,-1.6302,-1.5886,-1.5575,-1.5382,-1.5206,-1.5118,-1.5229,-1.5334,-1.5626,-1.6095,-1.587,-1.5799,-2.3529,0.0,0.0,0.0,0.0,0.0,0.0,0.0,0.0,0.0,0.0,0.0,0.0,0.0,0.0,0.0,0.0,0.0,0.0,0.0,0.0,0.0,0.0,0.0,0.0,0.0,0.0,0.0,-2.0968,0.0,-2.254,-2.2126,-2.1964,-2.2195,-2.0967,-2.0312,-2.0312,-2.0312,-2.0312,-2.0312,-2.0312,-2.0299,-2.0294,-2.0361,-1.9964,-1.9199,-1.9276,-1.8672,-1.7598,-1.6953,-1.6562,-1.6289,-1.5644,-1.5781,-1.6348,-1.6348,-1.6484,-1.6758,-1.7148,-1.6465,-1.5508,-1.6133,-1.6346,-1.6455,-1.7038,-1.6321,-1.5547,-1.6714,-1.6617,-1.6272,-1.6849,-1.7003,-1.6869,-1.6272,-1.658,-1.6849,-1.6272,-1.5964,-1.5805,-1.5805,-1.512,-1.474,-1.5341,-1.5882,-1.6321,-1.6542,-1.6265,-1.5948,-1.5758,-1.5208,-1.4715,-1.4367,-1.3948,-1.3858,-1.4298,-1.4485,-1.4873,-1.5561,-1.5595,-1.5595,-1.5595,-1.5321,-1.507,-1.4815,-1.4837,-1.4891,-1.506,-1.5366,-1.5822,-1.6421,-1.608,-1.5983,0.0,0.0,0.0,-2.1046,0.0,0.0,0.0,0.0,-1.9809,0.0,0.0,0.0,0.0,0.0,-1.9365,-1.9555,0.0,0.0,0.0,0.0,0.0,0.0,0.0,0.0,0.0,0.0,0.0,0.0,-2.0263,0.0,-2.2427,-2.1569,-2.1393,-2.2176,-2.0967,-2.0312,-2.0312,-2.0312,-2.0312,-2.0312,-2.0312,-2.0299,-2.0294,-2.0361,-1.9964,-1.9199,-1.9276,-1.832,-1.6738,-1.6719,-1.6191,-1.5449,-1.541,-1.543,-1.5449,-1.5449,-1.5977,-1.6582,-1.5762,-1.5449,-1.5391,-1.543,-1.5449,-1.5449,-1.5469,-1.5397,-1.5313,-1.5351,-1.5317,-1.5247,-1.5266,-1.5285,-1.5266,-1.5247,-1.5266,-1.5266,-1.5247,-1.5127,-1.5045,-1.5045,-1.4857,-1.4697,-1.4734,-1.4655,-1.4848,-1.5619,-1.5056,-1.4484,-1.4291,-1.4242,-1.4159,-1.3949,-1.3899,-1.3899,-1.392,-1.446,-1.5019,-1.5581,-1.5595,-1.5595,-1.5595,-1.528,-1.5096,-1.5096,-1.4154,-1.4317,-1.5671,-1.5041,-1.5424,-1.6789,-1.6448,-1.6448,0.0,0.0,-2.1649,-2.1078,0.0,0.0,0.0,0.0,0.0,0.0,0.0,0.0,0.0,0.0,-1.955,-1.9701,-1.9774,-1.9847,0.0,0.0,0.0,0.0,0.0,0.0,0.0,0.0,0.0,-1.9625,-2.006,-2.0752,0.0,-2.1838,-2.1953,-2.2195,-2.1482,-2.085,-2.0312,-2.0312,-2.0312,-2.0312,-2.0312,-2.0308,-2.0306,-2.0313,-1.958,-1.828,-1.834,-1.7418,-1.584,-1.584,-1.5664,-1.5391,-1.5391,-1.5391,-1.5391,-1.5391,-1.5586,-1.5801,-1.5508,-1.5391,-1.5391,-1.5391,-1.5391,-1.539,-1.5406,-1.5376,-1.5358,-1.5306,-1.5283,-1.5255,-1.5207,-1.5189,-1.5189,-1.5189,-1.5189,-1.5189,-1.5189,-1.5095,-1.4995,-1.4995,-1.4917,-1.4804,-1.4717,-1.4666,-1.4685,-1.4878,-1.4551,-1.4282,-1.4201,-1.4188,-1.4123,-1.3927,-1.3913,-1.3856,-1.3706,-1.3798,-1.3956,-1.4124,-1.4141,-1.4141,-1.4141,-1.387,-1.3702,-1.3702,-1.3638,-1.3829,-1.4307,-1.454,-1.5005,-1.5661,-1.5547,-1.5968,-2.0921,-2.097,0.0,0.0,-2.057,0.0,-2.0184,0.0,0.0,0.0,0.0,0.0,0.0,0.0,-1.972,-1.9847,-1.9869,-1.9922,0.0,-2.0225,0.0,0.0,0.0,0.0,0.0,0.0,-1.9742,-1.9522,-1.989,-2.0388,0.0,0.0,-2.1834,-2.1776,-2.1588,-2.1119,-2.0312,-2.0312,-2.0312,-2.0312,-2.0312,-2.0312,-2.0292,-2.0289,-1.9386,-1.7804,-1.7872,-1.6944,-1.5391,-1.5391,-1.5391,-1.5391,-1.5391,-1.5391,-1.5391,-1.5391,-1.5391,-1.5391,-1.5391,-1.5195,-1.4941,-1.4941,-1.4941,-1.4883,-1.4605,-1.4931,-1.533,-1.4976,-1.5086,-1.5284,-1.5245,-1.5236,-1.5234,-1.5234,-1.5212,-1.5189,-1.5189,-1.4884,-1.4692,-1.4998,-1.4768,-1.4579,-1.4774,-1.4785,-1.4707,-1.4522,-1.4387,-1.4307,-1.4307,-1.4307,-1.4257,-1.4136,-1.4123,-1.3997,-1.3721,-1.3619,-1.3527,-1.3413,-1.3396,-1.3396,-1.3396,-1.3226,-1.3271,-1.3537,-1.3535,-1.3782,-1.4308,-1.4474,-1.4803,-1.528,-1.5197,-1.5539]},{"header":{"parameterUnit":"m.s-1","parameterCategory":1,"la1":30.6,"la2":29.2853,"lo1":-89.7004,"lo2":-87.6739,"dy":0.0162,"dx":0.0183,"nx":112,"ny":82,"refTime":"2023-08-13T12:00:00:Z","depth":0,"parameterNumber":3,"parameterNumberName":"V-component_of_WINDS"},"data":[0.0,0.0,0.0,0.0,0.0,0.0,0.0,0.0,0.0,0.0,0.0,0.0,0.0,0.0,0.0,0.0,0.0,0.0,0.0,0.0,0.0,0.0,0.0,0.0,0.0,0.0,0.0,0.0,0.0,0.0,0.0,0.0,0.0,0.0,0.0,0.0,0.0,0.0,0.0,0.0,0.0,0.0,0.0,0.0,0.0,0.0,0.0,0.0,0.0,0.0,0.0,0.0,0.0,0.0,0.0,0.0,0.0,0.0,0.0,0.0,0.0,0.0,0.0,0.0,0.0,0.0,0.0,0.0,0.0,0.0,0.0,0.0,0.0,0.0,0.0,0.0,0.0,0.0,0.0,0.0,0.0,0.0,0.0,0.0,0.0,0.0,0.0,0.0,0.0,0.0,-0.885,-0.8011,-1.0221,-1.1782,-1.1804,-1.4599,-1.5109,-1.2389,0.0,0.0,0.0,0.0,0.0,0.0,0.0,0.0,0.0,0.0,0.0,0.0,0.0,0.0,0.0,0.0,0.0,0.0,0.0,0.0,0.0,0.0,0.0,0.0,0.0,0.0,0.0,0.0,0.0,0.0,0.0,0.0,0.0,0.0,0.0,0.0,0.0,0.0,0.0,0.0,0.0,0.0,0.0,0.0,0.0,0.0,0.0,0.0,0.0,0.0,0.0,0.0,0.0,0.0,0.0,0.0,0.0,0.0,0.0,0.0,0.0,0.0,0.0,0.0,0.0,0.0,0.0,0.0,0.0,0.0,0.0,0.0,0.0,0.0,0.0,0.0,0.0,0.0,0.0,0.0,0.0,0.0,0.0,0.0,0.0,0.0,0.0,0.0,0.0,0.0,0.0,0.0,0.0,0.0,0.0,0.0,0.0,0.0,0.0,0.0,0.0,0.0,0.0,0.0,-0.9114,-1.005,-1.0882,-1.191,-1.3254,-1.4406,-1.4355,-1.2619,0.0,0.0,0.0,0.0,0.0,0.0,0.0,0.0,0.0,0.0,0.0,0.0,0.0,0.0,0.0,0.0,0.0,0.0,0.0,0.0,0.0,0.0,0.0,0.0,0.0,0.0,0.0,0.0,0.0,0.0,0.0,0.0,0.0,0.0,0.0,0.0,0.0,0.0,0.0,0.0,0.0,0.0,0.0,0.0,0.0,0.0,0.0,0.0,0.0,0.0,0.0,0.0,0.0,0.0,0.0,0.0,0.0,0.0,0.0,0.0,0.0,0.0,0.0,0.0,0.0,0.0,0.0,0.0,0.0,0.0,0.0,0.0,0.0,0.0,0.0,0.0,0.0,0.0,0.0,0.0,0.0,0.0,0.0,0.0,0.0,0.0,0.0,0.0,0.0,0.0,0.0,0.0,0.0,0.0,0.0,0.0,0.0,0.0,0.0,0.0,0.0,0.0,0.0,-0.9706,-1.0197,-1.1151,-1.2627,-1.3724,-1.408,-1.5378,-1.5276,-1.3278,-1.3258,0.0,0.0,0.0,0.0,0.0,0.0,0.0,0.0,0.0,0.0,0.0,0.0,0.0,0.0,0.0,0.0,0.0,0.0,0.0,0.0,0.0,0.0,0.0,0.0,0.0,0.0,0.0,0.0,0.0,0.0,0.0,0.0,0.0,0.0,0.0,0.0,0.0,0.0,0.0,0.0,0.0,0.0,0.0,0.0,0.0,0.0,0.0,0.0,0.0,0.0,0.0,0.0,0.0,0.0,0.0,0.0,0.0,0.0,0.0,0.0,0.0,0.0,0.0,0.0,0.0,0.0,0.0,0.0,0.0,0.0,0.0,0.0,0.0,0.0,0.0,0.0,0.0,0.0,0.0,0.0,0.0,0.0,0.0,0.0,0.0,0.0,0.0,0.0,0.0,0.0,0.0,0.0,0.0,0.0,0.0,0.0,0.0,0.0,0.0,0.0,0.0,0.0,-1.0895,-1.1131,-1.2139,-1.3942,-1.4954,-1.4982,-1.5948,-1.5671,-1.3685,-1.2748,0.0,0.0,0.0,0.0,0.0,0.0,0.0,0.0,0.0,0.0,0.0,0.0,0.0,0.0,0.0,0.0,0.0,0.0,0.0,0.0,0.0,0.0,0.0,0.0,0.0,0.0,0.0,0.0,0.0,0.0,0.0,0.0,0.0,0.0,0.0,0.0,0.0,0.0,0.0,0.0,0.0,0.0,0.0,0.0,0.0,0.0,0.0,0.0,0.0,0.0,0.0,0.0,0.0,0.0,0.0,0.0,0.0,0.0,0.0,0.0,0.0,0.0,0.0,0.0,0.0,0.0,0.0,0.0,0.0,0.0,0.0,0.0,0.0,0.0,0.0,0.0,0.0,0.0,0.0,0.0,0.0,0.0,0.0,0.0,0.0,0.0,0.0,0.0,0.0,0.0,0.0,0.0,0.0,0.0,0.0,0.0,0.0,0.0,0.0,0.0,0.0,0.0,-1.0528,-1.1389,-1.3561,-1.3808,-1.4532,-1.6426,-1.5148,-1.4087,-1.3635,-1.1835,0.0,0.0,0.0,0.0,0.0,0.0,0.0,0.0,0.0,0.0,0.0,0.0,0.0,0.0,0.0,0.0,0.0,0.0,0.0,0.0,0.0,0.0,0.0,0.0,0.0,0.0,0.0,0.0,0.0,0.0,0.0,0.0,0.0,0.0,0.0,0.0,0.0,0.0,0.0,0.0,0.0,0.0,0.0,0.0,0.0,0.0,0.0,0.0,0.0,0.0,0.0,0.0,0.0,0.0,0.0,0.0,0.0,0.0,0.0,0.0,0.0,0.0,0.0,0.0,0.0,0.0,0.0,0.0,0.0,0.0,0.0,0.0,0.0,0.0,0.0,0.0,0.0,0.0,0.0,0.0,0.0,0.0,0.0,0.0,0.0,0.0,0.0,0.0,0.0,0.0,0.0,0.0,0.0,0.0,0.0,0.0,0.0,0.0,0.0,0.0,0.0,0.0,-1.1856,-1.29,0.0,-1.4559,-1.4996,-1.5604,-1.5021,-1.4236,-1.3158,0.0,0.0,0.0,0.0,0.0,0.0,0.0,0.0,0.0,0.0,0.0,0.0,0.0,0.0,0.0,0.0,0.0,0.0,0.0,0.0,0.0,0.0,0.0,0.0,0.0,0.0,0.0,0.0,0.0,0.0,0.0,0.0,0.0,0.0,0.0,0.0,0.0,0.0,0.0,0.0,0.0,0.0,0.0,0.0,0.0,0.0,0.0,0.0,0.0,0.0,0.0,0.0,0.0,0.0,0.0,0.0,0.0,0.0,0.0,0.0,0.0,0.0,0.0,0.0,0.0,0.0,0.0,0.0,0.0,0.0,0.0,0.0,0.0,0.0,0.0,0.0,0.0,0.0,0.0,0.0,0.0,0.0,0.0,0.0,0.0,0.0,0.0,0.0,0.0,0.0,0.0,0.0,0.0,0.0,0.0,0.0,0.0,0.0,0.0,0.0,0.0,0.0,-1.1929,-1.2829,-1.3743,0.0,-1.4829,-1.4973,-1.4977,-1.4385,-1.3783,-1.3201,0.0,0.0,0.0,0.0,0.0,0.0,0.0,0.0,0.0,0.0,0.0,0.0,0.0,0.0,0.0,0.0,0.0,0.0,0.0,0.0,0.0,0.0,0.0,0.0,0.0,0.0,0.0,0.0,0.0,0.0,0.0,0.0,0.0,0.0,0.0,0.0,0.0,0.0,0.0,0.0,0.0,0.0,0.0,0.0,0.0,0.0,0.0,0.0,0.0,0.0,0.0,0.0,0.0,0.0,0.0,0.0,0.0,0.0,0.0,0.0,0.0,0.0,0.0,0.0,0.0,0.0,0.0,0.0,0.0,0.0,0.0,0.0,0.0,0.0,0.0,0.0,0.0,0.0,0.0,0.0,0.0,0.0,0.0,0.0,0.0,0.0,0.0,0.0,0.0,0.0,0.0,0.0,0.0,0.0,0.0,0.0,0.0,0.0,0.0,0.0,0.0,0.0,-1.3083,-1.3177,-1.3552,-1.4426,-1.4271,-1.4419,-1.5014,-1.3121,-1.2552,0.0,0.0,0.0,0.0,0.0,0.0,0.0,0.0,0.0,0.0,0.0,0.0,0.0,0.0,0.0,0.0,0.0,0.0,0.0,0.0,0.0,0.0,0.0,0.0,0.0,0.0,0.0,0.0,0.0,0.0,0.0,0.0,0.0,0.0,0.0,0.0,0.0,0.0,0.0,0.0,0.0,0.0,0.0,0.0,0.0,0.0,0.0,0.0,0.0,0.0,0.0,0.0,0.0,0.0,0.0,0.0,0.0,0.0,0.0,0.0,0.0,0.0,0.0,0.0,0.0,0.0,0.0,0.0,0.0,0.0,0.0,0.0,0.0,0.0,0.0,0.0,0.0,0.0,0.0,0.0,0.0,0.0,0.0,0.0,0.0,0.0,0.0,0.0,0.0,0.0,0.0,0.0,0.0,0.0,0.0,0.0,0.0,0.0,0.0,0.0,0.0,0.0,0.0,-1.4173,-1.488,-1.5638,-1.639,-1.6374,-1.6413,-1.6648,-1.5311,-1.4639,-1.4824,0.0,0.0,0.0,0.0,0.0,0.0,0.0,0.0,0.0,0.0,0.0,0.0,0.0,0.0,0.0,0.0,0.0,0.0,0.0,0.0,0.0,0.0,0.0,0.0,0.0,0.0,0.0,0.0,0.0,0.0,0.0,0.0,0.0,0.0,0.0,0.0,0.0,0.0,0.0,0.0,0.0,0.0,0.0,0.0,0.0,0.0,0.0,0.0,0.0,0.0,0.0,0.0,0.0,0.0,0.0,0.0,0.0,0.0,0.0,0.0,0.0,0.0,0.0,0.0,0.0,0.0,0.0,0.0,0.0,0.0,0.0,0.0,0.0,0.0,0.0,0.0,0.0,0.0,0.0,0.0,0.0,0.0,0.0,0.0,0.0,0.0,0.0,0.0,0.0,0.0,0.0,0.0,0.0,0.0,0.0,0.0,0.0,0.0,0.0,0.0,0.0,0.0,-1.5268,-1.5867,-1.6489,-1.7194,-1.7315,-1.7274,-1.7039,-1.6236,-1.5563,-1.518,0.0,0.0,0.0,0.0,0.0,0.0,0.0,0.0,0.0,0.0,0.0,0.0,0.0,0.0,0.0,0.0,0.0,0.0,0.0,0.0,0.0,0.0,0.0,0.0,0.0,0.0,0.0,0.0,0.0,0.0,0.0,0.0,0.0,0.0,0.0,0.0,0.0,0.0,0.0,0.0,0.0,0.0,0.0,0.0,0.0,0.0,0.0,0.0,0.0,0.0,0.0,0.0,0.0,0.0,0.0,0.0,0.0,0.0,0.0,0.0,0.0,0.0,0.0,0.0,0.0,0.0,0.0,0.0,0.0,0.0,0.0,0.0,0.0,0.0,0.0,0.0,0.0,0.0,0.0,0.0,0.0,0.0,0.0,0.0,0.0,0.0,0.0,0.0,0.0,0.0,0.0,0.0,0.0,0.0,0.0,0.0,0.0,0.0,0.0,0.0,0.0,0.0,-1.6363,-1.6482,-1.681,-1.7527,-1.7557,-1.7384,-1.7033,-1.638,-1.578,-1.5316,0.0,0.0,0.0,0.0,0.0,0.0,0.0,0.0,0.0,0.0,0.0,0.0,0.0,0.0,0.0,0.0,0.0,0.0,0.0,0.0,0.0,0.0,0.0,0.0,0.0,0.0,0.0,0.0,0.0,0.0,0.0,0.0,0.0,0.0,0.0,0.0,0.0,0.0,0.0,0.0,0.0,0.0,0.0,0.0,0.0,0.0,0.0,0.0,0.0,0.0,0.0,0.0,0.0,0.0,0.0,0.0,0.0,0.0,0.0,0.0,-1.3921,0.0,0.0,0.0,0.0,0.0,0.0,0.0,0.0,0.0,0.0,0.0,0.0,0.0,0.0,0.0,0.0,0.0,0.0,0.0,0.0,0.0,0.0,0.0,0.0,0.0,0.0,0.0,0.0,0.0,0.0,0.0,0.0,0.0,0.0,0.0,0.0,0.0,0.0,0.0,0.0,0.0,-1.7475,-1.8239,-1.8962,-1.9847,-1.9601,-1.9307,-1.9212,-1.8156,-1.7319,-1.6938,-1.5156,0.0,0.0,0.0,0.0,0.0,0.0,0.0,0.0,0.0,0.0,0.0,0.0,0.0,0.0,0.0,0.0,0.0,0.0,0.0,0.0,0.0,0.0,0.0,0.0,0.0,0.0,0.0,0.0,0.0,0.0,0.0,0.0,0.0,0.0,0.0,0.0,0.0,0.0,0.0,0.0,0.0,0.0,0.0,0.0,0.0,0.0,0.0,0.0,0.0,0.0,0.0,0.0,0.0,0.0,0.0,0.0,0.0,0.0,0.0,0.0,-1.4776,0.0,0.0,0.0,0.0,0.0,0.0,0.0,0.0,0.0,0.0,0.0,0.0,0.0,0.0,0.0,0.0,0.0,0.0,0.0,0.0,0.0,0.0,0.0,0.0,0.0,0.0,0.0,0.0,0.0,0.0,0.0,0.0,0.0,0.0,0.0,0.0,0.0,0.0,0.0,0.0,-1.7846,-1.8748,-1.9573,-2.0148,-2.0049,-1.9746,-1.9336,-1.8691,-1.7959,-1.7119,-1.6006,0.0,0.0,0.0,0.0,0.0,0.0,0.0,0.0,0.0,0.0,0.0,0.0,0.0,0.0,0.0,0.0,0.0,0.0,0.0,0.0,0.0,0.0,0.0,0.0,0.0,0.0,0.0,0.0,0.0,0.0,0.0,0.0,0.0,0.0,0.0,0.0,0.0,0.0,0.0,0.0,0.0,0.0,0.0,0.0,0.0,0.0,0.0,0.0,0.0,0.0,0.0,0.0,0.0,0.0,-1.7068,-1.7014,-1.7014,-1.7014,-1.6994,-1.656,-1.6059,-1.5611,0.0,0.0,0.0,0.0,0.0,0.0,0.0,0.0,0.0,0.0,0.0,0.0,0.0,0.0,0.0,0.0,0.0,0.0,0.0,0.0,0.0,0.0,0.0,0.0,0.0,-2.0283,-2.0518,0.0,0.0,0.0,0.0,0.0,0.0,0.0,0.0,0.0,0.0,0.0,0.0,-1.7744,-1.8616,-1.9348,-1.9785,-1.9736,-1.9404,-1.8691,-1.8574,-1.8047,-1.6914,-1.6699,-1.5967,0.0,0.0,0.0,0.0,0.0,0.0,0.0,0.0,0.0,0.0,0.0,0.0,0.0,0.0,0.0,0.0,0.0,0.0,0.0,0.0,0.0,0.0,0.0,0.0,0.0,0.0,0.0,0.0,0.0,0.0,0.0,0.0,-0.7007,-0.7048,0.0,0.0,0.0,0.0,0.0,0.0,0.0,0.0,0.0,0.0,0.0,0.0,0.0,0.0,-1.4706,-1.7022,-1.7876,-1.7361,-1.8223,-1.8497,-1.8257,-1.8257,-1.8257,-1.8263,-1.8437,0.0,-1.6209,-1.6544,0.0,0.0,0.0,0.0,0.0,0.0,0.0,0.0,0.0,0.0,0.0,0.0,0.0,0.0,0.0,0.0,0.0,0.0,0.0,0.0,0.0,0.0,-2.085,-2.0029,-2.0254,-2.0459,0.0,-1.9385,-1.8789,-1.7393,0.0,0.0,0.0,0.0,0.0,0.0,0.0,0.0,-1.7425,-1.8184,-1.8889,-1.9336,-1.9033,-1.8689,-1.8582,-1.8301,-1.7871,-1.7334,-1.6582,-1.6105,-1.588,-1.4385,0.0,0.0,0.0,0.0,0.0,0.0,0.0,0.0,0.0,0.0,0.0,0.0,0.0,0.0,0.0,0.0,0.0,0.0,0.0,0.0,0.0,0.0,0.0,0.0,0.0,0.0,0.0,0.0,0.0,-0.677,-0.7207,-0.7041,-0.7305,-0.735,0.0,0.0,0.0,0.0,0.0,0.0,0.0,0.0,0.0,-1.2043,-1.4295,-1.6028,-1.7181,-1.8572,-1.9011,-1.8591,-1.9152,-1.9265,-1.8985,-1.8985,-1.8985,-1.8991,-1.9118,-1.8637,-1.7702,-1.7427,-1.6553,-1.5596,0.0,0.0,0.0,0.0,0.0,-2.1162,-2.2109,0.0,0.0,0.0,0.0,0.0,0.0,0.0,0.0,0.0,0.0,0.0,0.0,0.0,0.0,-2.0742,-2.0996,-2.1191,-2.0752,-2.0508,-1.9922,0.0,-1.7978,-1.7568,-1.6602,0.0,0.0,0.0,0.0,0.0,-1.7622,-1.8264,-1.8689,-1.8906,-1.875,-1.8545,-1.8301,-1.8115,-1.793,-1.7744,-1.6924,-1.6328,-1.6135,-1.5107,-1.4219,0.0,0.0,0.0,0.0,0.0,0.0,0.0,0.0,0.0,0.0,0.0,0.0,0.0,0.0,0.0,0.0,0.0,0.0,0.0,0.0,0.0,0.0,0.0,0.0,0.0,0.0,0.0,0.0,-0.7149,-0.7478,-0.7139,-0.76,-0.775,0.0,0.0,0.0,0.0,0.0,0.0,-0.8306,-0.9723,-1.1346,-1.3112,-1.5216,-1.7014,-1.8436,-1.9417,-1.9726,-1.9372,-1.9586,-1.9579,-1.9366,-1.9366,-1.9366,-1.9366,-1.9285,-1.9125,-1.8851,-1.7949,-1.7154,-1.6505,-1.66,-1.714,0.0,-1.9626,-2.0946,-2.2112,-2.3728,-2.3984,-2.3555,-2.3135,0.0,-2.1094,-1.9463,0.0,0.0,0.0,0.0,-2.0059,-1.9941,0.0,-2.1064,-2.1064,-2.1309,-2.1455,-2.1133,-2.1064,-2.0644,0.0,-1.9043,-1.8711,-1.7441,0.0,0.0,0.0,0.0,-1.7154,-1.7872,-1.8276,-1.8477,-1.8477,-1.8379,-1.8232,-1.8027,-1.7812,-1.7734,-1.7842,-1.7148,-1.6533,-1.6145,-1.5644,-1.4717,-1.3232,0.0,0.0,0.0,0.0,0.0,0.0,0.0,0.0,0.0,0.0,0.0,0.0,0.0,0.0,0.0,0.0,0.0,0.0,0.0,0.0,0.0,0.0,0.0,0.0,0.0,0.0,0.0,0.0,0.0,-0.7617,-0.8336,0.0,0.0,0.0,0.0,-0.8201,-0.8353,-0.8632,-0.9072,-1.0595,-1.1737,-1.2407,-1.5804,-1.7427,-1.732,-1.9191,-1.9927,-1.9366,-1.9379,-1.9379,-1.9366,-1.9366,-1.9366,-1.9352,-1.9065,-1.8938,-1.8851,-1.7949,-1.7395,-1.7218,-1.7347,-1.7424,-1.7795,-2.0146,-2.1401,-2.2035,-2.3329,-2.3535,-2.3291,-2.4072,-2.3203,-2.1602,-2.0254,-1.9853,0.0,0.0,-1.9873,-2.0439,-2.0019,-2.0254,-2.0596,-2.0596,-2.0615,-2.0625,-2.0605,-2.0596,-2.0449,0.0,-1.9209,-1.8643,-1.8484,0.0,-1.6973,-1.7803,-1.7598,-1.7519,-1.792,-1.8037,-1.8047,-1.8047,-1.7686,-1.7598,-1.7978,-1.7266,-1.6973,-1.7393,-1.6982,-1.6533,-1.6145,-1.5644,-1.499,-1.4038,-1.3311,0.0,0.0,0.0,0.0,0.0,0.0,0.0,0.0,0.0,0.0,0.0,0.0,0.0,0.0,0.0,0.0,0.0,0.0,0.0,0.0,0.0,0.0,0.0,0.0,0.0,0.0,0.0,0.0,-0.8333,-0.894,0.0,-0.8665,-0.8703,-0.8821,-0.8974,-0.9208,-0.9456,-0.9717,-1.0446,-1.1529,-1.2843,-1.5184,-1.7042,-1.797,-1.9671,-2.0314,-1.992,-1.9733,-1.9546,-1.9366,-1.9366,-1.9265,-1.9078,-1.8965,-1.8818,-1.8604,-1.809,-1.7822,-1.7655,-1.744,-1.7754,-1.8535,-1.9482,-2.0861,-2.2245,-2.3073,-2.3388,-2.3477,-2.2959,-2.2187,-2.1318,-2.0566,-2.0332,-2.0303,-2.0156,-2.0332,-2.0527,-2.0371,-2.0449,-2.0566,-2.0566,-2.0566,-2.0566,-2.0566,-2.0566,-2.0518,-2.0361,-1.9863,-1.9375,-1.9102,-1.8447,-1.7969,-1.8008,-1.7881,-1.7842,-1.7988,-1.8008,-1.8008,-1.8008,-1.7871,-1.7842,-1.7998,-1.748,-1.71,-1.6973,-1.6279,-1.5693,-1.5264,-1.4824,-1.4009,-1.2881,-1.2891,-1.252,0.0,0.0,0.0,0.0,0.0,0.0,0.0,0.0,0.0,0.0,0.0,0.0,0.0,0.0,0.0,0.0,0.0,0.0,0.0,0.0,0.0,0.0,0.0,0.0,0.0,0.0,-0.8047,-0.7954,-0.9023,-0.9659,-0.9208,-0.9432,-0.9646,-0.9747,-0.9985,-1.0168,-1.027,-1.0463,-1.1084,-1.2236,-1.403,-1.5713,-1.7356,-1.8839,-1.9704,-1.994,-1.9746,-1.9553,-1.9366,-1.9366,-1.9205,-1.8918,-1.8818,-1.8611,-1.8317,-1.8016,-1.7889,-1.7849,-1.7448,-1.7798,-1.8606,-1.9704,-2.0876,-2.2022,-2.2984,-2.3502,-2.3584,-2.2305,-2.1689,-2.1338,-2.0742,-2.0566,-2.0566,-2.0566,-2.0566,-2.0566,-2.0566,-2.0566,-2.0566,-2.0566,-2.0566,-2.0566,-2.0566,-2.0566,-2.0566,-2.0566,-2.0332,-2.0049,-1.9766,-1.9355,-1.9023,-1.8887,-1.8496,-1.8271,-1.8418,-1.8193,-1.8008,-1.8008,-1.7881,-1.7803,-1.7803,-1.7412,-1.6914,-1.6328,-1.5605,-1.501,-1.458,-1.4287,-1.3679,-1.2842,-1.2881,-1.2488,-1.1606,0.0,0.0,0.0,0.0,0.0,0.0,0.0,0.0,0.0,0.0,0.0,0.0,0.0,0.0,0.0,0.0,0.0,0.0,0.0,0.0,0.0,0.0,0.0,-0.3244,-0.5428,-0.6799,-0.6374,-0.8699,-1.0124,-0.9686,-1.0168,-1.0504,-1.05,-1.0639,-1.0724,-1.0721,-1.0721,-1.0721,-1.0721,-1.2409,-1.3909,-1.5022,-1.6741,-1.8215,-1.9379,-1.9372,-1.9366,-1.9366,-1.9366,-1.9199,-1.8891,-1.8611,-1.8317,-1.8009,-1.7709,-1.7582,-1.7582,-1.7582,-1.7575,-1.7871,-2.0617,-2.1295,-2.126,-2.3091,-2.375,-2.3545,-2.2275,-2.1865,-2.1699,-2.083,-2.0566,-2.0566,-2.0566,-2.0566,-2.0566,-2.0566,-2.0566,-2.0566,-2.0566,-2.0566,-2.0566,-2.0566,-2.0566,-2.0566,-2.0566,-2.0566,-2.0566,-2.0566,-2.0215,-2.0078,-2.0478,-1.9463,0.0,-1.9219,-1.8535,-1.8008,-1.8008,-1.7646,-1.7402,-1.7402,-1.6973,-1.6338,-1.5469,-1.499,-1.4551,-1.4058,-1.4038,-1.4038,-1.4038,-1.3281,-1.2488,-1.1689,0.0,0.0,0.0,0.0,0.0,0.0,0.0,0.0,0.0,0.0,0.0,0.0,0.0,0.0,0.0,0.0,0.0,0.0,0.0,0.0,0.0,0.0,-0.1355,-0.2563,-0.5392,-0.7291,-0.7356,-0.9319,-1.0551,-1.0429,-1.0663,-1.0775,-1.0666,-1.0799,-1.0836,-1.0724,-1.0721,-1.0721,-1.0721,-1.3453,-1.5111,-1.5373,-1.7899,-1.935,-1.9679,-1.9466,-1.9366,-1.9366,-1.9366,-1.9092,-1.8604,-1.8524,-1.819,-1.7702,-1.7615,-1.7582,-1.7582,-1.7582,-1.7455,-1.7371,-1.8175,-1.9201,-2.0506,-2.2236,-2.2861,-2.2705,-2.1728,-2.1416,-2.1309,-2.0742,-2.0566,-2.0566,-2.0566,-2.0566,-2.0566,-2.0566,-2.0566,-2.0566,-2.0566,-2.0566,-2.0566,-2.0566,-2.0566,-2.0566,-2.0566,-2.0566,-2.0566,-2.0566,-2.0469,-2.0322,-2.0117,0.0,0.0,-1.8848,-1.834,-1.8008,-1.8008,-1.791,-1.7842,-1.7842,-1.6865,-1.6006,0.0,-1.4434,-1.3662,-1.3242,-1.3223,-1.3223,-1.3223,-1.2686,-1.2666,0.0,0.0,0.0,0.0,0.0,0.0,0.0,0.0,0.0,0.0,0.0,0.0,0.0,0.0,0.0,0.0,0.0,0.0,0.0,0.0,0.0,0.0,0.0,-0.0336,-0.1288,-0.378,-0.5823,-0.6666,-0.85,-0.9911,-1.0588,-1.086,-1.0911,-1.0822,-1.0897,-1.0911,-1.0819,-1.0694,-1.0626,-1.0626,-1.3029,-1.4649,-1.5182,-1.7508,-1.9009,-1.9619,-1.9446,-1.9366,-1.9366,-1.9239,-1.8931,0.0,-1.8357,-1.8029,-1.7582,-1.7582,-1.7582,0.0,0.0,0.0,0.0,0.0,-1.9255,-2.0654,-2.2025,-2.2402,-2.2139,-2.1455,-2.123,-2.1152,-2.0703,-2.0566,-2.0566,-2.0566,-2.0566,-2.0566,-2.0566,-2.0566,-2.0566,-2.0566,-2.042,-2.0342,-2.0527,-2.042,-2.0293,-2.0293,0.0,0.0,-2.0293,-2.0449,-2.042,-1.998,-1.9561,-1.9131,0.0,-1.8271,-1.8008,-1.8008,-1.8008,-1.7939,-1.7764,-1.7051,0.0,0.0,0.0,-1.3506,-1.29,-1.3213,0.0,0.0,0.0,-1.3152,0.0,0.0,0.0,0.0,-1.5119,-1.5798,0.0,0.0,0.0,0.0,0.0,0.0,0.0,0.0,0.0,0.0,0.0,0.0,0.0,0.0,0.0,0.0,0.0333,0.0236,0.0,-0.1407,-0.3102,-0.5111,-0.6894,-0.8681,-1.0558,-1.085,-1.0941,-1.0924,-1.0938,-1.0941,-1.0924,0.0,0.0,0.0,0.0,-1.3416,-1.4796,-1.6353,-1.7927,-1.9366,-1.9366,-1.9366,-1.9359,-1.9058,-1.8764,-1.8477,-1.8176,-1.7869,-1.7582,-1.7582,-1.7542,-1.7455,-1.7201,-1.7081,-1.7272,-1.8946,-2.0171,0.0,0.0,0.0,0.0,-2.1299,-2.1152,-2.1084,-2.0684,-2.0566,-2.0566,-2.0566,-2.0566,-2.0557,-2.0508,-2.0498,-2.0498,-2.0498,-2.0156,-1.9961,-2.04,-2.0156,-1.9844,-1.9844,-1.9844,-1.9844,-1.9844,-2.0205,-2.0361,-1.9971,-1.9561,0.0,-1.8691,-1.8271,-1.8008,-1.8008,0.0,0.0,-1.749,-1.7324,-1.6738,-1.5557,-1.4629,-1.3799,-1.3047,-1.374,-1.3779,-1.3037,-1.375,-1.3831,-1.3358,-1.466,-1.5473,-1.5828,-1.6236,-1.6764,0.0,0.0,0.0,0.0,0.0,0.0,0.0,0.0,0.0,0.0,0.0,0.0,0.0,0.0,0.0,0.2219,0.1977,0.1585,0.013,-0.0259,-0.1684,-0.4847,-0.6832,-0.8685,-1.04,-1.0785,-1.0897,-1.0772,-1.0877,-1.0894,-1.0772,-1.0707,0.0,-1.0493,-1.1984,-1.3416,-1.4796,-1.63,-1.7855,-1.9366,0.0,0.0,-1.9359,-1.9058,-1.8764,-1.8477,-1.8176,-1.7869,-1.7582,-1.7582,-1.7301,-1.6867,-1.6814,-1.6647,-1.6562,-1.7409,-1.839,-1.9402,-1.9928,-2.0655,-2.1289,-2.084,-2.0693,-2.0674,-2.0596,-2.0566,0.0,-2.0566,-2.0566,-2.0478,-2.0127,-2.0039,-2.0039,-2.0039,-1.9717,-1.9521,-1.9951,-1.9707,-1.9404,-1.9404,-1.9404,-1.9404,-1.9404,-1.9756,-2.001,-1.9922,-1.9561,-1.9131,-1.8691,-1.8271,-1.8008,-1.8008,-1.8008,-1.7978,-1.79,-1.6924,-1.6211,-1.5957,-1.4805,-1.4009,-1.3844,-1.4,-1.4009,-1.3896,-1.4,-1.4337,-1.4898,-1.5182,-1.5904,-1.7053,-1.666,-1.6791,0.0,0.0,0.0,0.0,0.0,0.0,0.0,0.0,0.0,0.0,0.0,0.5483,0.0,0.0,0.521,0.3947,0.2995,0.2221,0.141,0.051,-0.1275,-0.4709,-0.5994,-0.7542,-1.022,-1.0565,-1.0643,-1.0714,-1.0721,-1.0721,-1.0721,-1.0578,-1.0466,-1.0388,-1.1775,-1.3175,-1.4641,-1.62,-1.7806,-1.9366,-1.9366,-1.9366,-1.9352,-1.8911,-1.8631,-1.8464,-1.8009,-1.7722,-1.7569,-1.7428,-1.7108,-1.6693,-1.6547,-1.6313,-1.6184,-1.6897,-1.7415,-1.781,-1.8566,-1.9335,-2.0047,-1.9831,-2.0157,-2.0566,-2.0566,-2.0566,-2.0566,-2.0566,-2.0566,-2.0518,-2.0303,-2.0244,-2.0244,-2.0244,-1.9756,-1.9404,-1.9824,-1.958,-1.9287,-1.9287,-1.9453,-1.96,-1.96,-1.96,-1.9521,-1.9307,-1.9102,-1.8809,-1.8379,-1.8135,-1.8008,-1.8008,-1.8008,-1.8008,-1.8008,-1.7021,-1.6113,-1.5469,-1.5019,-1.4525,-1.4097,-1.4346,-1.4355,-1.4087,-1.4346,-1.4859,-1.5746,-1.5942,-1.6509,-1.7375,-1.7087,-1.74,0.0,0.0,0.0,0.0,0.0,0.0,0.0,0.0,0.3518,0.4673,0.618,0.7156,0.6483,0.6813,0.6645,0.553,0.4034,0.2849,0.2523,0.0998,-0.1251,-0.4663,-0.5021,-0.6547,-1.0003,-1.0331,-1.0378,-1.0616,-1.0521,-1.0517,-1.0666,-1.0426,-1.028,-1.028,-1.1233,-1.2733,-1.4604,-1.5902,-1.7449,-1.9366,-1.9366,-1.9366,-1.9352,-1.8758,-1.849,-1.8457,-1.7849,-1.7549,-1.7482,-1.7248,-1.6941,-1.66,-1.6359,-1.6052,-1.5799,-1.6478,-1.6684,-1.662,-1.7307,-1.8074,-1.8638,-1.8638,-1.9432,-2.0323,-2.0323,-2.0401,-2.0566,-2.0566,-2.0566,-2.0547,-2.0459,-2.0439,-2.0439,-2.0439,-1.9853,-1.9375,-1.9717,-1.9463,-1.9131,-1.9053,-1.9316,-1.9541,-1.9541,-1.9268,-1.8975,-1.8789,-1.876,-1.8584,-1.8076,-1.8086,-1.8105,-1.8018,-1.8008,-1.7978,-1.79,-1.7256,-1.6338,-1.5107,-1.5352,-1.5195,-1.4414,-1.4727,-1.4707,-1.4214,-1.4687,-1.5301,-1.6042,-1.6421,-1.6915,-1.7388,-1.7262,-1.7752,0.2489,0.191,0.1133,0.0225,0.0,0.0,0.0,0.0,0.3804,0.4045,0.6252,0.8286,0.8534,0.8878,0.8645,0.7316,0.5694,0.4098,0.2684,0.1004,-0.1241,-0.4533,-0.5039,-0.6421,-0.9718,-1.0209,-1.0293,-1.0327,-1.0314,-1.0368,-1.051,-1.0368,-1.028,-1.028,-1.0235,-1.1658,-1.4604,-1.4723,-1.6385,-1.9366,-1.9366,-1.9366,-1.9352,-1.8758,-1.849,-1.8457,-1.7849,-1.7435,-1.7194,-1.7161,-1.682,-1.6319,-1.6286,-1.5932,-1.5411,-1.5298,-1.5592,-1.6104,-1.6027,-1.6632,-1.7496,-1.7496,-1.823,-1.9195,-1.9195,-1.9844,-2.0566,-2.0566,-2.0566,-2.0478,-2.0088,-1.999,-1.999,-1.999,-1.9629,-1.9297,-1.9346,-1.9014,-1.8594,-1.8223,-1.8193,-1.8223,-1.8223,-1.8184,-1.8389,-1.9102,-1.9219,-1.8926,-1.8115,-1.833,-1.8428,-1.8047,-1.8008,-1.7861,-1.749,-1.7363,-1.6914,-1.6037,-1.6027,-1.5771,-1.5293,-1.5312,-1.5146,-1.4717,-1.5127,-1.5334,-1.5408,-1.5847,-1.6518,-1.7375,-1.6861,-1.6961,0.2993,0.2269,0.1554,0.0308,0.0,0.0164,0.0856,0.2419,0.3967,0.4873,0.6758,0.8381,0.874,0.9195,0.9334,0.0,0.6499,0.4705,0.4045,0.1623,-0.0865,-0.3226,-0.4342,-0.6343,-0.9663,-1.0029,-1.0086,-1.0266,-1.0198,-1.0212,-1.0361,-1.0226,-1.0144,-1.0144,-0.9998,-1.097,-1.3172,-1.4128,-1.579,-1.8046,-1.9004,-1.9279,-1.9092,-1.8677,-1.8297,-1.7949,-1.7689,-1.7515,-1.7375,-1.7034,-1.6747,-1.6473,-1.5959,-1.5511,-1.513,-1.501,-1.5028,-1.514,-1.4839,-1.5462,-1.6355,-1.6355,-1.7577,-1.9036,-1.9036,-1.9766,-2.0508,-2.0254,-2.0371,-2.0469,-2.0029,-2.0098,-2.0293,-2.0293,-1.9775,-1.9287,-1.9287,-1.8945,-1.8584,-1.8408,-1.8584,-1.875,-1.875,-1.8545,-1.8496,-1.8857,-1.8701,-1.8418,-1.8057,-1.8164,-1.8203,-1.8027,-1.8008,-1.7734,-1.7061,-1.7002,-1.6621,-1.5742,-1.5684,-1.5596,-1.542,-1.541,-1.5215,-1.4795,-1.5195,-1.5542,-1.5813,-1.6254,-1.6799,-1.7375,-1.7137,-1.6974,0.361,0.2767,0.2065,0.0787,0.0249,0.0258,0.1113,0.2259,0.3489,0.4601,0.6333,0.7792,0.8107,0.8907,0.951,0.9595,0.7296,0.5425,0.4984,0.247,-0.0123,-0.2202,-0.3895,-0.5979,-0.9045,-0.9615,-0.9914,-1.0137,-1.0049,-1.0053,-1.0209,-1.007,-1.0005,-1.0046,-0.99,-1.0539,-1.2213,-1.3765,-1.5429,-1.6968,-1.8642,-1.9252,-1.9038,-1.8657,-1.8163,-1.7582,-1.7582,-1.7488,-1.7308,-1.6881,-1.6613,-1.6393,-1.5678,-1.5217,-1.495,-1.487,-1.4656,-1.4369,-1.4162,-1.4573,-1.5296,-1.5296,-1.6764,-1.855,-1.855,-1.952,-2.0498,-2.0185,-2.0322,-2.0498,-2.0176,-2.0332,-2.0537,-2.041,-1.9912,-1.9394,-1.916,-1.8857,-1.8603,-1.8486,-1.8721,-1.8936,-1.8936,-1.8672,-1.8467,-1.8467,-1.8301,-1.8144,-1.8027,-1.8008,-1.8008,-1.8008,-1.8008,-1.7764,-1.7139,-1.6982,-1.6592,-1.583,-1.5664,-1.5537,-1.542,-1.541,-1.5215,-1.4795,-1.5195,-1.5583,-1.5975,-1.6354,-1.6799,-1.7137,-1.7137,-1.6923,0.4199,0.335,0.2529,0.1882,0.084,0.0,0.0089,0.1092,0.2133,0.227,0.4505,0.6447,0.6904,0.8177,0.9262,0.9561,0.8265,0.675,0.5165,0.3523,0.1203,-0.2166,-0.3796,-0.5434,0.0,-0.8887,-0.9825,-0.9832,-0.9829,-0.9893,-1.0046,-0.991,-0.9897,-1.0042,-0.99,-1.0539,-1.2213,-1.3765,-1.5429,-1.6968,-1.8642,-1.9366,-1.9332,-1.8751,-1.8163,-1.7582,-1.7582,-1.7255,-1.6734,-1.6714,-1.6373,-1.5825,-1.5518,-1.5217,-1.493,-1.4636,-1.4349,-1.4095,-1.4088,-1.4088,-1.4173,-1.4173,-1.5636,-1.7342,-1.7342,-1.8868,-2.0566,-2.0547,-2.0557,-2.0634,-2.0547,-2.0557,-2.0459,-2.0029,-1.9912,-1.9668,-1.8838,-1.8582,-1.8446,-1.8105,-1.8037,-1.8047,-1.8047,-1.8037,-1.8027,-1.8027,-1.8359,-1.8467,-1.8057,-1.8008,-1.8008,-1.8008,-1.8008,-1.7998,-1.7978,-1.7598,-1.7168,-1.6719,-1.6279,-1.585,-1.543,-1.541,-1.5215,-1.4795,-1.5195,-1.5365,-1.5341,-1.5792,-1.6217,-1.6547,-1.6547,-1.6534,0.47,0.3609,0.2697,0.1942,0.0868,0.0,0.0,0.0992,0.1911,0.2043,0.3482,0.5081,0.6038,0.6941,0.7898,0.8853,0.7901,0.6616,0.5089,0.348,0.173,-0.0613,-0.3187,0.0,0.0,0.0,0.0,-0.9805,-0.9734,-0.9744,-0.989,-0.9849,-0.9842,-0.9897,-0.9846,-1.0061,-1.066,-1.2213,-1.3765,-1.5424,-1.7684,-1.8684,-1.8477,-1.807,-1.7669,-1.7295,-1.7295,-1.7068,-1.6693,-1.65,-1.6299,-1.6059,-1.5371,-1.505,-1.4903,-1.4416,-1.4168,-1.4088,-1.4088,-1.4088,-1.4088,-1.4088,-1.5061,-1.6273,-1.6273,-1.7811,-1.9464,-1.9186,-1.9782,-2.043,-1.9863,-1.9922,-2.0019,-1.96,-1.9277,-1.8984,-1.863,-1.8418,-1.8184,-1.8037,-1.8008,-1.8008,-1.8008,-1.8008,-1.8008,-1.8008,-1.8135,-1.8271,-1.8408,-1.8184,-1.8008,-1.8008,-1.8008,-1.79,-1.7617,-1.7197,-1.6758,-1.6318,-1.5869,-1.5566,-1.542,-1.541,-1.5215,-1.4795,-1.4922,-1.5124,-1.5319,-1.5437,-1.5858,-1.6522,-1.6522,-1.6522,0.5523,0.4453,0.3395,0.26,0.1507,0.0539,0.009,0.0628,0.1167,0.1264,0.2347,0.3628,0.4901,0.5911,0.7003,0.8209,0.7959,0.6849,0.487,0.3786,0.2444,0.0247,-0.2336,-0.4145,0.0,0.0,0.0,-0.9677,-0.9737,-0.9724,-0.9815,-0.9822,-0.9822,-0.9822,-0.9822,-0.9822,-0.9822,-1.1378,-1.3251,-1.5301,-1.6982,-1.776,-1.8036,-1.7842,-1.7589,-1.7295,-1.7194,-1.6981,-1.6687,-1.6393,-1.6213,-1.6039,-1.5264,-1.4963,-1.4897,-1.4302,-1.4088,-1.4088,-1.4088,-1.4088,-1.4088,-1.4088,-1.4817,-1.5779,-1.6191,-1.7568,-1.8982,-1.9118,-1.9869,-2.0439,-1.9883,-1.9824,-1.9805,-1.9394,-1.9072,-1.8828,-1.8672,-1.8428,-1.8232,-1.8232,-1.8115,-1.8008,-1.8008,-1.8008,-1.8057,-1.8213,-1.8105,-1.8105,-1.8379,-1.8174,-1.8008,-1.8008,-1.8008,-1.7842,-1.7422,-1.6982,-1.6543,-1.6154,-1.5654,-1.541,-1.541,-1.541,-1.5283,-1.501,-1.5077,-1.5266,-1.5537,-1.5612,-1.5927,-1.6522,-1.6522,-1.6522,0.6677,0.5776,0.4671,0.38,0.2681,0.1523,0.0269,0.0,0.0,0.0,0.1039,0.2258,0.0,0.0,0.6519,0.7776,0.8418,0.7656,0.4666,0.4409,0.3393,0.0,0.0,0.0,0.0,0.0,0.0,-0.9677,0.0,-0.9815,-0.9822,-0.9822,-0.9822,-0.9822,-0.9822,-0.9819,-0.9812,-1.1358,-1.3504,-1.6184,-1.628,-1.6827,-1.7908,-1.7915,-1.7842,-1.7522,-1.7248,-1.6947,-1.664,-1.6359,-1.6072,-1.5752,-1.5184,-1.495,-1.487,-1.4302,-1.4088,-1.4088,-1.4088,-1.4088,-1.4088,-1.4088,-1.4817,-1.5786,-1.6846,-1.7908,-1.9036,-2.0079,-2.0401,-2.0401,-2.0372,-2.0138,-1.973,-1.9311,-1.9287,-1.918,-1.876,-1.8652,-1.8562,-1.8562,-1.8301,-1.8008,-1.8008,-1.8008,-1.8144,-1.8545,-1.8262,-1.8018,-1.8037,-1.8018,-1.8008,-1.8008,-1.8008,-1.7852,-1.7451,-1.7012,-1.6572,-1.6184,-1.5684,-1.5439,-1.541,-1.541,-1.541,-1.541,-1.5578,-1.5754,-1.6014,-1.6205,-1.6351,-1.6522,-1.6522,-1.6522,0.8129,0.6642,0.5022,0.3916,0.2681,0.1523,0.0269,0.0,0.0,0.0,0.0251,0.082,0.0,0.0,0.0,0.6628,0.8014,0.0,0.5059,0.4764,0.0,0.037,0.0,-0.3085,-0.4769,-0.6323,0.0,0.0,-0.9724,-0.971,-0.9815,-0.9822,-0.9822,-0.9822,-0.9822,-0.9771,-0.9663,-1.118,-1.2166,-1.2632,-1.4928,-1.5987,-1.6065,-1.7158,-1.7422,-1.6927,-1.6854,-1.6526,-1.6046,-1.5972,-1.5772,-1.5471,-1.5104,-1.483,-1.4589,-1.4222,-1.4088,-1.4088,-1.4088,-1.4088,-1.4088,-1.4088,-1.425,-1.4573,-1.4817,-1.5711,-1.6593,-1.683,-1.7488,-1.8072,-1.7778,-1.8193,-1.8577,-1.8174,-1.8682,-1.9258,-1.915,-1.8867,-1.8562,-1.8562,-1.8301,-1.8008,-1.8008,-1.8008,-1.8047,-1.8154,-1.8076,-1.8125,-1.8437,-1.8203,-1.8008,-1.8008,-1.8008,-1.7969,-1.7861,-1.7461,-1.7031,-1.6592,-1.6143,-1.5752,-1.542,-1.541,-1.541,-1.541,-1.5273,-1.5499,-1.6014,-1.587,-1.6009,-1.6522,-1.6522,-1.6522,0.8985,0.7534,0.5871,0.4024,0.3126,0.2136,0.0438,0.0,0.0,0.0,0.0,0.0,0.1367,0.2351,0.0,0.0,0.0,0.0,0.3861,0.361,0.2698,0.0,-0.0874,0.0,-0.4676,-0.5772,-0.724,0.0,-0.9747,-0.9737,-0.9819,-0.9822,-0.9822,-0.9822,-0.9761,-0.9656,-0.951,-1.0271,-1.0924,-1.1367,-1.3602,-1.5013,-1.5411,-1.6806,-1.7215,-1.6887,0.0,-1.6326,-1.6005,-1.5745,-1.5545,-1.5351,-1.4937,-1.4669,-1.4482,-1.4195,-1.4088,-1.4088,-1.4088,-1.4088,-1.4088,-1.4088,-1.4088,-1.4173,-1.465,-1.522,-1.5779,-1.6273,-1.7172,-1.8009,-1.7794,-1.8199,-1.8704,-1.8658,-1.8963,-1.9336,-1.9521,-1.9228,-1.8809,-1.8437,-1.8164,-1.8008,-1.8008,-1.8008,-1.8008,-1.8008,-1.8008,-1.8096,-1.833,-1.7998,-1.7734,-1.7734,-1.7568,-1.7373,-1.7168,-1.6943,-1.6621,-1.6182,-1.5918,-1.5664,-1.542,-1.569,-1.5864,-1.5864,-1.6203,-1.6389,-1.6455,-1.6441,-1.6441,-1.6522,-1.6522,-1.6522,0.9647,0.8371,0.6603,0.423,0.3489,0.2738,0.0508,0.0,0.0,0.0,0.0,0.0302,0.1204,0.1646,0.2141,0.3033,0.0,0.3403,0.2118,0.1962,0.1554,0.0125,0.0,-0.1233,-0.4303,-0.455,-0.5896,-0.9204,-0.9451,-0.9576,-0.9822,-0.9822,-0.9812,-0.9791,-0.9635,-0.9486,-0.9351,-0.9201,-0.9789,-1.1003,-1.2379,-1.3696,-1.4871,-1.6321,-1.6916,-1.685,0.0,0.0,-1.6172,-1.5625,-1.5378,-1.5284,-1.4736,-1.4496,-1.4436,-1.4182,-1.4088,-1.4088,-1.4088,-1.4088,-1.4088,-1.4088,-1.4088,-1.425,-1.522,-1.5462,-1.5703,-1.6601,-1.7577,-1.831,-1.831,-1.8683,-1.9077,-1.9448,-1.9406,-1.9453,-1.9766,-1.9502,-1.8965,-1.8164,-1.8008,-1.8008,-1.8008,-1.8008,-1.8008,-1.8008,-1.8008,-1.7988,-1.7939,-1.7607,-1.7383,-1.7383,-1.6992,-1.6572,-1.6182,-1.6152,-1.5967,-1.5527,-1.5498,-1.5469,-1.541,-1.6036,-1.6348,-1.6398,-1.7209,-1.7423,-1.7013,-1.7193,-1.7011,-1.6522,-1.6522,-1.6522,1.1019,0.8444,0.5524,0.4126,0.2897,0.1762,0.0332,0.0,0.0,0.0,0.0,0.0075,0.0221,0.1241,0.2082,0.2523,0.3613,0.3893,0.2524,0.2341,0.1786,0.0,0.0,-0.074,0.0,0.0,0.0,0.0,0.0,0.0,-0.97,-0.9822,-0.9768,-0.9649,-0.9378,-0.9218,-0.9195,-0.9049,-0.9085,-0.9303,-1.0794,-1.1647,-1.1964,-1.4306,-1.5233,-1.5119,0.0,0.0,-1.5879,-1.5538,-1.5257,-1.5003,-1.4656,-1.4369,-1.4155,-1.4108,-1.4088,-1.4088,-1.4088,-1.4088,-1.4088,-1.4088,-1.4088,-1.4166,-1.4328,-1.4412,-1.4412,-1.4573,-1.4824,-1.4985,-1.4985,-1.6277,-1.7564,-1.7301,-1.8528,-1.9727,-1.9453,-1.9053,-1.8603,-1.8105,-1.8008,-1.8008,-1.8008,-1.8008,-1.8008,-1.8008,-1.8008,-1.7881,-1.7539,-1.7432,-1.7383,-1.7383,-1.6992,-1.6699,-1.6621,-1.6621,-1.6426,-1.5977,-1.5947,-1.5791,-1.543,-1.5526,-1.5693,-1.5828,-1.6184,-1.6352,-1.6456,-1.6581,-1.6609,-1.6522,-1.6522,-1.6522,1.1227,0.8517,0.5376,0.4019,0.2723,0.1514,0.0245,0.0,0.0,0.0,0.0,0.0,0.0,0.0547,0.0,0.1134,0.1746,0.1976,0.1323,0.1248,0.0,0.0123,0.0,-0.0617,0.0,0.0,0.0,0.0,0.0,0.0,-0.9697,-0.9751,-0.9605,-0.9381,-0.9228,-0.9117,-0.9042,-0.8974,-0.894,-0.894,-1.0347,-1.1054,-1.1061,-1.296,-1.397,-1.4436,0.0,0.0,-1.5578,-1.5291,-1.4997,-1.4703,-1.4409,-1.4208,-1.4088,-1.4088,-1.4088,-1.4088,-1.4088,-1.4088,-1.4088,-1.4088,-1.4088,-1.4088,-1.4088,-1.3981,-1.3854,-1.3854,-1.4138,-1.4486,-1.4486,-1.5456,-1.6484,-1.6561,-1.7336,-1.807,-1.8218,-1.8046,-1.7934,-1.7949,-1.8008,-1.8008,-1.8008,-1.8008,-1.8008,-1.8008,-1.8008,-1.7852,-1.7432,-1.7383,-1.7295,-1.707,-1.6445,-1.6133,-1.6367,-1.6172,-1.5957,-1.5732,-1.5723,-1.5625,-1.542,-1.5758,-1.6038,-1.6278,-1.6762,-1.6936,-1.6849,-1.6965,-1.681,-1.6522,-1.6522,-1.6522,1.1166,0.8314,0.5111,0.3921,0.255,0.1168,0.024,0.0,0.0,0.0,0.0,0.0,0.0,0.0,0.0,0.0,0.0,0.0,0.0,0.0,0.0,0.0,0.0,0.0,0.0,0.0,0.0,0.0,0.0,0.0,0.0,-0.9639,-0.9435,-0.9161,-0.9123,-0.9052,-0.894,-0.894,-0.8923,-0.8889,-1.0077,-1.0521,-1.0441,-1.1596,-1.2602,-1.3369,0.0,0.0,0.0,-1.4617,-1.4546,-1.4489,-1.4202,-1.4088,-1.4088,-1.4088,-1.4088,-1.4088,-1.4088,-1.4088,-1.4088,-1.4088,-1.4088,-1.4088,-1.4088,-1.3881,-1.3559,-1.3559,-1.3968,-1.4499,-1.4499,-1.5056,-1.5782,-1.6438,-1.6495,-1.659,-1.727,-1.7348,-1.7469,-1.793,-1.8008,-1.8008,-1.8008,-1.8008,-1.7978,-1.7891,-1.7871,-1.7686,-1.7168,-1.71,-1.6973,-1.6621,-1.5967,-1.5693,-1.6096,-1.5664,-1.541,-1.541,-1.541,-1.541,-1.541,-1.5887,-1.6282,-1.6643,-1.7099,-1.7303,-1.72,-1.72,-1.6961,-1.6522,-1.6522,-1.6522,1.1308,0.783,0.4066,0.3805,0.1934,0.0179,0.0,0.0,0.0,0.0,0.0,0.0,0.0,0.0,0.0,0.0,0.0,0.0,0.0,0.0,0.0,0.0,0.0,0.0,0.0,0.0,0.0,0.0,0.0,0.0,0.0,-0.9486,-0.9323,-0.9157,-0.9025,-0.895,-0.894,-0.894,-0.8869,-0.873,-0.8838,-0.8862,-0.8808,-0.9867,-1.0388,-1.04,0.0,0.0,0.0,-1.3135,-1.3548,-1.4489,-1.4202,-1.4088,-1.4088,-1.4088,-1.4088,-1.4088,-1.4088,-1.4088,-1.4088,-1.4088,-1.4088,-1.4088,-1.4088,-1.3881,-1.3559,-1.3559,-1.3514,-1.3365,-1.3365,-1.4095,-1.5286,-1.6788,-1.6875,-1.6806,-1.7714,-1.793,-1.791,-1.8018,-1.8008,-1.8008,-1.8008,-1.8008,-1.7881,-1.75,-1.7441,-1.7139,-1.6351,-1.6243,-1.6172,-1.6133,-1.6105,-1.6016,-1.6115,-1.5664,-1.541,-1.541,-1.541,-1.541,-1.541,-1.5106,-1.5331,-1.6041,-1.5735,-1.5858,-1.6597,-1.6597,-1.6572,-1.6522,-1.6522,-1.6522,1.0067,0.7662,0.5023,0.4074,0.2512,0.0994,0.0165,0.0,0.0,0.0,0.0,0.0,0.0,0.0,0.0,0.0,0.0,0.0,0.0,0.0,0.0,0.0,0.0,0.0,0.0,0.0,0.0,0.0,0.0,0.0,0.0,-0.9276,-0.9178,-0.9028,-0.8967,-0.894,-0.894,-0.894,-0.8862,-0.871,-0.871,-0.8584,-0.8353,-0.89,-0.9318,-0.9921,0.0,0.0,0.0,-1.2845,-1.3343,-1.4249,-1.4135,-1.4088,-1.4088,-1.4088,-1.4088,-1.4088,-1.4088,-1.4088,-1.4088,-1.4088,-1.3968,-1.3854,-1.4035,-1.3754,-1.3387,-1.3387,-1.3033,-1.2665,-1.2665,-1.2955,-1.3433,-1.4109,-1.4111,-1.4299,-1.5234,-1.5877,-1.6507,-1.707,-1.7579,-1.8008,-1.8008,-1.8008,-1.7959,-1.7793,-1.7764,-1.7451,-1.6582,-1.6699,-1.665,-1.6184,-1.583,-1.5781,-1.6105,-1.5664,-1.541,-1.541,-1.541,-1.5466,-1.5594,-1.5411,-1.5606,-1.6153,-1.5982,-1.61,-1.6522,-1.6522,-1.6522,-1.6522,-1.6522,-1.6522,0.9235,0.7476,0.5718,0.4526,0.3154,0.1724,0.0,0.0,0.0,0.0,0.0,0.0,0.0,0.0,0.0,0.0,0.0,0.0,0.0,0.0,0.0,0.0,0.0,0.0,0.0,0.0,0.0,0.0,0.0,0.0,0.0,-0.8591,-0.8998,-0.894,-0.8896,-0.8872,-0.8872,-0.8825,-0.8726,-0.8581,-0.8581,-0.8448,-0.8201,-0.8157,-0.8481,0.0,0.0,0.0,0.0,-1.1636,-1.2417,-1.3561,-1.3561,-1.3822,-1.4088,-1.4088,-1.4088,-1.4088,-1.4088,-1.4088,-1.4075,-1.3981,-1.3814,-1.3667,-1.3788,-1.3474,-1.3073,-1.3073,-1.2699,-1.2305,-1.2305,-1.2305,-1.2372,-1.2666,-1.2732,-1.2952,-1.3954,-1.495,-1.5799,-1.6489,-1.7364,-1.8008,-1.8008,-1.8008,-1.7969,-1.7842,-1.7822,-1.751,-1.665,-1.6807,-1.6709,-1.5947,-1.5596,-1.5586,-1.6086,-1.5664,-1.541,-1.541,-1.541,-1.5446,-1.5589,-1.5501,-1.5701,-1.6217,-1.6054,-1.6192,-1.6522,-1.6522,-1.6522,-1.6522,-1.6522,-1.6522,0.9002,0.7245,0.5779,0.5445,0.3633,0.1988,0.1821,0.0877,0.0,0.0,0.0,0.0,0.0,0.0,0.0,0.0,0.0,0.0,0.0,0.0,0.0,0.0,0.0,0.0,0.0,0.0,0.0,0.0,0.0,0.0,0.0,0.0,-0.8784,-0.8933,-0.8791,-0.8713,-0.8713,-0.8564,-0.8414,-0.8275,-0.8275,-0.8194,-0.8035,-0.7885,0.0,0.0,0.0,0.0,0.0,-0.8982,-1.0269,-1.2328,-1.2328,-1.3027,-1.4088,-1.4088,-1.4088,-1.4088,-1.4088,-1.4088,-1.4041,-1.3741,-1.3566,-1.3587,-1.3307,-1.2999,-1.2829,-1.2829,-1.2532,-1.2305,-1.2305,-1.2305,-1.2519,-1.3455,-1.3673,-1.3954,-1.495,-1.593,-1.6567,-1.6636,-1.7364,-1.8008,-1.8008,-1.8008,-1.7871,-1.7451,-1.7393,-1.707,-1.6243,-1.6135,-1.5908,-1.5469,-1.541,-1.5586,-1.6086,-1.5664,-1.541,-1.541,-1.541,-1.541,-1.54,-1.5,-1.5205,-1.6014,-1.5526,-1.5695,-1.6522,-1.6522,-1.6522,-1.6522,-1.6522,-1.6522,0.7724,0.7129,0.6494,0.5473,0.4653,0.3687,0.2002,0.137,0.0861,0.0156,0.0,0.0,0.0,0.0,0.0,0.0,0.0,0.0,0.0,0.0,0.0,0.0,0.0,0.0,0.0,0.0,0.0,0.0,0.0,0.0,0.0,0.0,-0.7654,-0.8777,-0.8635,-0.8554,-0.8554,-0.8411,-0.8262,-0.8109,-0.8007,-0.7879,-0.7736,-0.7689,0.0,0.0,0.0,0.0,0.0,-0.889,-0.9749,-1.1209,-1.198,-1.2504,-1.2942,-1.3822,-1.4088,-1.4055,-1.3854,-1.3781,-1.3734,-1.344,-1.3206,-1.3013,-1.2919,-1.2903,-1.2782,-1.2498,-1.2378,-1.2305,-1.2305,-1.2305,-1.2372,-1.2659,-1.2732,-1.2806,-1.3164,-1.3947,-1.4799,-1.5508,-1.6428,-1.7285,-1.7872,-1.8008,-1.7969,-1.7832,-1.7812,-1.75,-1.6631,-1.6523,-1.624,-1.5488,-1.541,-1.5469,-1.5605,-1.5488,-1.541,-1.541,-1.541,-1.5318,-1.5216,-1.5458,-1.5658,-1.573,-1.5978,-1.6235,-1.6522,-1.6522,-1.6522,-1.6522,-1.6522,-1.6522,0.6936,0.6905,0.6783,0.5938,0.5379,0.0,0.323,0.2172,0.1411,0.0706,0.0314,0.0,0.0,0.0,0.0,0.0,0.0,0.0,0.0,0.0,0.0,0.0,0.0,0.0,0.0,0.0,0.0,0.0,0.0,0.0,0.0,0.0,-0.6687,-0.7608,-0.8209,-0.8404,-0.8404,-0.8201,-0.8048,-0.795,-0.7801,-0.7685,-0.7597,0.0,0.0,0.0,0.0,0.0,0.0,-0.8189,-0.8886,-1.0096,-1.1209,-1.1895,-1.2413,-1.3646,-1.4015,-1.3895,-1.3707,-1.3492,-1.3427,-1.3133,-1.2826,-1.2559,-1.2526,-1.2486,-1.2452,-1.2191,-1.2138,-1.2138,-1.2138,-1.2218,-1.2305,-1.2305,-1.2305,-1.2305,-1.2305,-1.331,-1.445,-1.5092,-1.6219,-1.7285,-1.7862,-1.8008,-1.7959,-1.7803,-1.7773,-1.7461,-1.6592,-1.6484,-1.6201,-1.5488,-1.541,-1.541,-1.541,-1.5264,-1.5176,-1.5176,-1.5019,-1.4854,-1.4734,-1.5319,-1.5598,-1.5475,-1.6089,-1.646,-1.6522,-1.6522,-1.6522,-1.6522,-1.6522,-1.6522,0.0,0.6747,0.6851,0.6719,0.5921,0.5136,0.496,0.3342,0.0,0.1646,0.0863,0.0236,0.0157,0.0157,0.0079,0.0158,0.0079,0.0,0.0,0.0,0.0,0.0,0.0,0.0,0.0,0.0,0.0,0.0,0.0,0.0,0.0,0.0,0.0,-0.6006,-0.733,-0.8119,-0.8225,-0.7929,-0.778,-0.7777,-0.7634,-0.7567,-0.7563,0.0,0.0,0.0,0.0,0.0,0.0,-0.7136,-0.7738,-0.8852,-0.9981,-1.1177,-1.2275,-1.3497,-1.3765,-1.3614,-1.3587,-1.34,-1.3126,-1.2819,-1.2525,-1.2245,-1.1957,-1.187,-1.1864,-1.1844,-1.1837,-1.1844,-1.1864,-1.2064,-1.2278,-1.2298,-1.2285,-1.2271,-1.2271,-1.37,-1.4972,-1.5089,-1.6522,-1.7813,-1.792,-1.792,-1.7783,-1.7393,-1.7334,-1.7031,-1.6233,-1.6125,-1.5898,-1.5459,-1.541,-1.541,-1.541,-1.5029,-1.4785,-1.4785,-1.4375,-1.4068,-1.4038,-1.4716,-1.5156,-1.5285,-1.5963,-1.6396,-1.6522,-1.6522,-1.6522,-1.6522,-1.6522,-1.6522,0.8669,0.0,0.6434,0.6508,0.6281,0.5823,0.0,0.4451,0.3517,0.1958,0.2034,0.2201,0.1522,0.1269,0.1269,0.1396,0.0579,0.0,0.0,0.0,0.0,0.0,0.0,0.0,0.0,0.0,0.0,0.0,0.0,0.0,0.0,0.0,0.0,-0.5769,-0.6181,-0.6876,-0.7756,-0.757,-0.7475,-0.7475,-0.7319,-0.7248,-0.7248,0.0,0.0,0.0,0.0,0.0,0.0,-0.7095,-0.718,-0.7315,-0.8615,-0.9666,-1.0587,-1.1839,-1.2711,-1.328,-1.3039,-1.2913,-1.2806,-1.2505,-1.2358,-1.2245,-1.1957,-1.187,-1.1824,-1.1597,-1.153,-1.1583,-1.181,-1.1917,-1.2031,-1.2245,-1.2131,-1.1971,-1.1971,-1.2322,-1.3016,-1.4125,-1.49,-1.5689,-1.6821,-1.7031,-1.7002,-1.6894,-1.6885,-1.6689,-1.6194,-1.6125,-1.5898,-1.5459,-1.541,-1.541,-1.541,-1.5029,-1.4785,-1.4785,-1.4375,-1.3941,-1.3662,-1.4679,-1.513,-1.4842,-1.5891,-1.6473,-1.6522,-1.6522,-1.6522,-1.6522,-1.6522,-1.6522,0.9296,0.8223,0.7074,0.716,0.6806,0.6297,0.5728,0.5165,0.4361,0.316,0.2999,0.2855,0.2426,0.2271,0.2375,0.2543,0.1583,0.0,0.0,0.0,0.0,0.0,0.0,0.0,0.0,0.0,0.0,0.0,0.0,0.0,0.0,0.0,0.0,0.0,-0.5009,-0.6241,-0.7597,-0.7448,-0.737,-0.737,-0.7214,-0.7139,-0.7139,0.0,0.0,0.0,0.0,0.0,-0.6936,-0.701,-0.6909,-0.6788,-0.8109,-0.9147,-1.0019,-1.1249,-1.2232,-1.2973,-1.2882,-1.2735,-1.2518,-1.2351,-1.2211,-1.2051,-1.175,-1.157,-1.1436,-1.1269,-1.1229,-1.1263,-1.143,-1.1563,-1.1703,-1.1864,-1.1784,-1.1663,-1.1663,-1.2012,-1.2709,-1.3858,-1.4571,-1.5309,-1.6504,-1.6665,-1.666,-1.6455,-1.6426,-1.6269,-1.582,-1.5762,-1.5674,-1.5439,-1.541,-1.541,-1.541,-1.4844,-1.4492,-1.4492,-1.3906,-1.3457,-1.3232,-1.4387,-1.5199,-1.5522,-1.6151,-1.6522,-1.6522,-1.6522,-1.6522,-1.6522,-1.6522,-1.6522,0.9697,0.914,0.8475,0.8053,0.7338,0.6711,0.6551,0.572,0.4894,0.4563,0.394,0.3341,0.3201,0.3245,0.0,0.0,0.0,0.0,0.0,0.0,0.0,0.0,0.0,0.0,0.0,0.0,0.0,0.0,0.0,0.0,0.0,0.0,0.0,0.0,-0.3787,-0.5634,-0.7246,-0.7309,-0.7336,-0.7333,-0.7204,-0.7139,-0.7139,-0.7139,0.0,0.0,0.0,0.0,-0.6861,-0.6885,-0.6793,-0.6716,-0.7702,-0.8743,-0.9762,-1.0897,-1.1793,-1.252,-1.2679,-1.2485,-1.2238,-1.2238,-1.2071,-1.1804,-1.1463,-1.1189,-1.0982,-1.0942,-1.0929,-1.0942,-1.0982,-1.1176,-1.1369,-1.1416,-1.1396,-1.1363,-1.1363,-1.2034,-1.2817,-1.3606,-1.4543,-1.5414,-1.621,-1.6398,-1.6406,-1.6016,-1.5957,-1.583,-1.5459,-1.541,-1.541,-1.541,-1.541,-1.5381,-1.5322,-1.459,-1.4048,-1.399,-1.3311,-1.2968,-1.3162,-1.4154,-1.5242,-1.6479,-1.6522,-1.6522,-1.6522,-1.6434,-1.6434,-1.6522,-1.6434,-1.6396,1.1278,1.1205,1.0487,0.848,0.797,0.766,0.6711,0.628,0.578,0.49,0.5286,0.5556,0.0,0.4504,0.4516,0.0,0.0,0.0,0.0,0.0,0.0,0.0,0.0,0.0,0.0,0.0,0.0,0.0,0.0,0.0,0.0,0.0,0.0,0.0,0.0,-0.3406,-0.5681,-0.6649,-0.7177,-0.7177,-0.7149,-0.7139,-0.7139,-0.7139,-0.7075,0.0,0.0,0.0,-0.6552,-0.6681,-0.6573,-0.6417,-0.6697,-0.7371,-0.8249,-0.9321,-1.0284,-1.1222,-1.2061,-1.2178,-1.1937,-1.1937,-1.1904,-1.177,-1.1223,-1.1029,-1.0942,-1.0759,-1.0692,-1.0681,-1.0929,-1.1022,-1.1122,-1.1369,-1.1236,-1.1056,-1.1056,-1.1195,-1.1435,-1.2037,-1.3027,-1.3899,-1.4457,-1.5131,-1.5586,-1.5527,-1.5508,-1.5488,-1.542,-1.541,-1.541,-1.541,-1.541,-1.5264,-1.4912,-1.4424,-1.3922,-1.3623,-1.3154,-1.3344,-1.4387,-1.4606,-1.5242,-1.6479,-1.6522,-1.6522,-1.6522,-1.6045,-1.607,-1.6509,-1.6032,-1.5819,1.0885,1.1527,1.1544,1.0084,0.9557,0.9241,0.875,0.7963,0.7228,0.6651,0.0,0.0,0.0,0.0,0.56,0.5326,0.0,0.0,0.0,0.0,0.0,0.0,0.0,0.0,0.0,0.0,0.0,0.0,0.0,0.0,0.0,0.0,0.0,0.0,0.0,0.0,-0.3452,-0.5173,-0.6331,-0.7024,-0.6943,-0.6902,-0.6902,-0.6902,-0.6868,0.0,0.0,-0.6678,-0.6478,-0.6549,-0.6454,-0.6268,-0.6332,-0.6876,-0.7776,-0.8817,-0.9854,-1.0736,-1.1174,-1.1539,-1.1844,-1.1683,-1.1523,-1.1349,-1.1076,-1.0882,-1.0728,-1.0658,-1.0624,-1.0658,-1.0728,-1.0755,-1.0788,-1.0929,-1.0855,-1.0755,-1.0755,-1.0755,-1.1092,-1.2236,-1.2825,-1.3568,-1.4666,-1.5167,-1.541,-1.541,-1.541,-1.541,-1.541,-1.541,-1.541,-1.541,-1.541,-1.5244,-1.4814,-1.4385,-1.3857,-1.3213,-1.33,-1.3789,-1.4663,-1.5017,-1.5599,-1.6466,-1.6522,-1.6522,-1.6522,-1.5969,-1.5831,-1.6057,-1.5505,-1.5254,1.0325,1.1416,1.2104,1.1495,1.0993,1.0558,1.0502,0.9611,0.8738,0.8326,0.0,0.0,0.0,0.6349,0.0,0.0,0.0,0.0,0.0,0.0,0.0,0.0,0.0,0.0,0.0,0.0,0.0,0.0,0.0,0.0,0.0,0.0,0.0,0.0,0.0,0.0,-0.176,-0.3414,-0.5037,-0.6443,-0.6589,-0.6702,-0.6702,-0.6702,-0.6681,-0.6647,-0.6647,-0.6563,-0.6424,-0.6424,-0.6339,-0.621,-0.6247,-0.6764,-0.756,-0.8389,-0.9421,-1.039,-1.0373,-1.0929,-1.163,-1.1396,-1.1176,-1.0982,-1.0915,-1.0735,-1.0624,-1.0624,-1.0624,-1.0624,-1.0624,-1.0624,-1.0624,-1.0624,-1.0624,-1.0624,-1.0624,-1.0624,-1.0968,-1.2112,-1.2708,-1.3399,-1.4566,-1.5109,-1.541,-1.541,-1.5322,-1.5264,-1.5264,-1.5176,-1.5107,-1.5107,-1.5107,-1.4941,-1.4521,-1.4092,-1.3564,-1.292,-1.3467,-1.405,-1.4663,-1.5171,-1.5683,-1.6278,-1.6195,-1.6132,-1.6132,-1.558,-1.5379,-1.5492,-1.4979,-1.4714,1.0505,1.147,1.1904,1.1852,1.1471,1.1055,1.0688,1.0362,0.9841,0.9007,0.0,0.0,0.0,0.6573,0.0,0.0,0.0,0.0,0.0,0.0,0.0,0.0,0.0,0.0,0.0,0.0,0.0,0.0,0.0,0.0,0.0,0.0,0.0,0.0,0.0,0.0,-0.176,-0.1809,-0.2958,-0.528,-0.6201,-0.6702,-0.6702,-0.6702,-0.6624,-0.6488,-0.6488,-0.6407,-0.6278,-0.6278,-0.6186,-0.6061,-0.6203,-0.6764,-0.7474,-0.744,-0.8443,-0.9811,-1.0047,-1.0523,-1.1049,-1.1035,-1.1009,-1.0942,-1.0675,-1.0645,-1.0624,-1.0624,-1.0624,-1.0624,-1.0624,-1.0624,-1.0624,-1.0624,-1.0624,-1.0624,-1.0624,-1.0624,-1.0537,-1.0377,-1.176,-1.2962,-1.2806,-1.4271,-1.541,-1.541,-1.5078,-1.4834,-1.4834,-1.4473,-1.4175,-1.4175,-1.4175,-1.4053,-1.3633,-1.3213,-1.2939,-1.2881,-1.3467,-1.405,-1.4663,-1.4801,-1.5121,-1.5756,-1.5254,-1.5029,-1.5029,-1.4475,-1.4462,-1.4953,-1.44,-1.4148,0.9192,1.0579,1.1911,1.2091,1.214,1.2272,1.2425,1.2005,1.1483,1.124,1.0564,0.0,0.0,0.0,0.0,0.0,0.0,0.0,0.0,0.0,0.0,0.0,0.0,0.0,0.0,0.0,0.0,0.0,0.0,0.0,0.0,0.0,0.0,0.0,0.0,0.0,0.0,-0.1317,-0.2012,-0.2919,-0.4668,-0.5781,-0.6427,-0.6427,-0.6342,-0.6196,-0.6196,-0.6166,-0.6108,-0.6013,-0.5996,-0.6017,-0.5895,-0.6018,-0.6309,-0.6246,-0.7005,-0.8175,-0.8738,-0.9456,-1.023,-1.0652,-1.0722,-1.0701,-1.0658,-1.0624,-1.0624,-1.0624,-1.0624,-1.0624,-1.0624,-1.0624,-1.0624,-1.0624,-1.0624,-1.0571,-1.0321,-1.0281,-1.0377,-1.0587,-1.178,-1.2873,-1.3252,-1.4484,-1.5322,-1.5059,-1.4893,-1.4687,-1.4414,-1.4238,-1.4077,-1.4077,-1.3896,-1.3682,-1.3516,-1.3125,-1.2881,-1.2881,-1.3836,-1.4468,-1.4709,-1.5112,-1.5488,-1.5693,-1.5153,-1.4916,-1.4916,-1.4362,-1.4186,-1.4387,-1.3797,-1.3546,0.8719,1.0236,1.1797,1.2091,1.2392,1.2792,1.3487,1.3112,1.2687,1.2691,1.1426,0.9902,0.844,0.0,0.0,0.0,0.0,0.0,0.0,0.0,0.0,0.0,0.0,0.0,0.0,0.0,0.0,0.0,0.0,0.0,0.0,0.0,0.0,0.0,0.0,0.0,0.0,-0.0741,-0.1258,-0.16,-0.3008,-0.4429,-0.573,-0.6039,-0.6057,-0.5959,-0.5959,-0.5959,-0.5949,-0.5844,-0.5864,-0.5928,-0.5633,-0.5549,-0.5586,-0.5535,-0.612,-0.7055,-0.7521,-0.8342,-0.9119,-0.9612,-0.9857,-0.9978,-1.0007,-1.0161,-1.0301,-1.0394,-1.0421,-1.0421,-1.0421,-1.0488,-1.0598,-1.0441,-1.0421,-1.0341,-1.004,-0.998,-1.0064,-1.0315,-1.1477,-1.2544,-1.2987,-1.4148,-1.4912,-1.4619,-1.4463,-1.4268,-1.3975,-1.3818,-1.374,-1.374,-1.3359,-1.3164,-1.3301,-1.2793,-1.2614,-1.2885,-1.3753,-1.4306,-1.4463,-1.4916,-1.5178,-1.5178,-1.4638,-1.435,-1.435,-1.3973,-1.3833,-1.3821,-1.3408,-1.3198,0.9443,1.0522,1.1496,1.1797,1.2091,1.2538,1.344,1.3559,1.3463,1.2958,1.1062,0.9228,0.837,0.0,0.0,0.0,0.0,0.0,0.0,0.0,0.0,0.0,0.0,0.0,0.0,0.0,0.0,0.0,0.0,0.0,0.0,0.0,0.0,0.0,0.0,0.0,0.0,0.0,-0.0509,-0.1597,-0.1597,-0.261,-0.4563,-0.5362,-0.58,-0.58,-0.58,-0.58,-0.58,-0.58,-0.5796,-0.5769,-0.5477,-0.5454,-0.5569,-0.5416,-0.5943,-0.6719,-0.6715,-0.7099,-0.7716,-0.7945,-0.828,-0.8599,-0.878,-0.9232,-0.9746,-1.0027,-1.0114,-1.0114,-1.0114,-1.0327,-1.0481,-1.018,-1.0114,-1.0033,-0.974,-0.9679,-0.9593,-0.9236,-1.0672,-1.1779,-1.1531,-1.2921,-1.4077,-1.4077,-1.3779,-1.3506,-1.3496,-1.3125,-1.2871,-1.2871,-1.248,-1.2393,-1.2832,-1.2116,-1.2003,-1.292,-1.3107,-1.3401,-1.3893,-1.4024,-1.4085,-1.4085,-1.3509,-1.3198,-1.3198,-1.3198,-1.3198,-1.3198,-1.3198,-1.3198,0.8225,0.9892,1.1496,1.1797,1.2245,1.2799,1.3487,1.3559,0.0,0.0,1.2264,1.0926,1.0595,0.0,0.0,0.0,0.0,0.0,0.0,0.0,0.0,0.0,0.0,0.0,0.0,0.0,0.0,0.0,0.0,0.0,0.0,0.0,0.0,0.0,0.0,0.0,0.0,0.0,-0.0133,-0.0455,-0.1104,-0.2498,-0.4491,-0.4781,-0.517,-0.5654,-0.5654,-0.5654,-0.5654,-0.5654,-0.5589,-0.5484,-0.5463,-0.5456,-0.5423,-0.5446,-0.5557,-0.5866,-0.6322,-0.6615,-0.6867,-0.7466,-0.8072,-0.8622,-0.8634,-0.9147,-0.9699,-0.9786,-0.9813,-0.9813,-0.9813,-0.988,-0.992,-0.9833,-0.9813,-0.9733,-0.9432,-0.9372,-0.9285,-0.8991,-1.0016,-1.1066,-1.1436,-1.2538,-1.3437,-1.3636,-1.3584,-1.3291,-1.2638,-1.2227,-1.1998,-1.1998,-1.1881,-1.1807,-1.1988,-1.1753,-1.1699,-1.2003,-1.2412,-1.306,-1.3941,-1.4034,-1.4085,-1.4085,-1.3509,-1.3198,-1.3198,-1.3198,-1.3198,-1.3198,-1.3198,-1.3198,0.8127,1.0083,1.1877,1.2298,1.2752,1.32,1.3561,0.0,0.0,0.0,0.0,1.2041,0.0,0.0,0.0,0.0,0.0,0.0,0.0,0.0,0.0,0.0,0.0,0.0,0.0,0.0,0.0,0.0,0.0,0.0,0.0,0.0,0.0,0.0,0.0,0.0,0.0,0.0,0.0,0.0,-0.0555,-0.166,-0.3267,-0.3949,-0.4481,-0.5001,-0.5272,-0.5376,-0.5325,-0.5325,-0.527,-0.5192,-0.5247,-0.5237,-0.5192,-0.525,-0.5233,-0.5236,-0.5638,-0.5743,-0.5799,-0.6306,-0.6886,-0.7448,-0.7838,-0.8378,-0.9015,-0.9416,-0.9506,-0.9506,-0.9506,-0.9506,-0.9506,-0.9506,-0.9506,-0.9426,-0.9132,-0.9065,-0.9018,-0.8838,-0.9571,-1.0371,-1.0732,-1.1808,-1.2574,-1.2591,-1.2686,-1.2549,-1.2031,-1.1773,-1.1606,-1.1606,-1.1449,-1.141,-1.1587,-1.1452,-1.1531,-1.1912,-1.2245,-1.2803,-1.3638,-1.3716,-1.3722,-1.3722,-1.3408,-1.3198,-1.3198,-1.3198,-1.3198,-1.3198,-1.3198,-1.3198,0.8551,1.0452,1.2297,1.3006,1.3427,1.3674,1.3654,1.3854,1.4041,1.4015,0.0,0.0,0.0,0.0,0.0,0.0,0.0,0.0,0.0,0.0,0.0,0.0,0.0,0.0,0.0,0.0,0.0,0.0,0.0,0.0,0.0,0.0,0.0,0.0,0.0,0.0,0.0,0.0,0.0,0.0,0.0,-0.0428,-0.1221,-0.282,-0.374,-0.4025,-0.4665,-0.4974,-0.4918,-0.4918,-0.4918,-0.4931,-0.506,-0.5033,-0.4935,-0.5064,-0.503,-0.4918,-0.4904,-0.4806,-0.4711,-0.4836,-0.5135,-0.566,-0.6524,-0.7219,-0.7848,-0.8783,-0.9088,-0.9143,-0.9143,-0.9143,-0.9143,-0.9143,-0.9123,-0.9044,-0.8858,-0.8784,-0.8764,-0.8764,-0.9266,-0.971,-0.9783,-1.0814,-1.154,-1.1284,-1.1401,-1.1547,-1.1547,-1.1508,-1.1489,-1.1489,-1.1084,-1.1016,-1.1449,-1.1185,-1.135,-1.2235,-1.2429,-1.2685,-1.3129,-1.3163,-1.3198,-1.3198,-1.3198,-1.3198,-1.3198,-1.3198,-1.3198,-1.3198,-1.3198,-1.3198,0.6869,0.8991,1.0951,1.2487,1.342,1.3928,1.3694,1.3694,1.3674,1.3447,0.0,0.0,0.0,0.0,0.0,0.0,0.0,0.0,0.0,0.0,0.0,0.0,0.0,0.0,0.0,0.0,0.0,0.0,0.0,0.0,0.0,0.0,0.0,0.0,0.0,0.0,0.0,0.0,0.0,0.0,0.0,-0.0115,-0.0287,-0.1384,-0.259,-0.3845,-0.403,-0.439,-0.4918,-0.4918,-0.4918,-0.4921,-0.4952,-0.4945,-0.4921,-0.4952,-0.4945,-0.4901,-0.4782,-0.4718,-0.4677,-0.4589,-0.4925,-0.5422,-0.571,-0.6594,-0.7626,-0.7949,-0.8463,-0.8898,-0.8898,-0.8898,-0.8898,-0.8898,-0.8731,-0.8604,-0.8771,-0.8624,-0.847,-0.847,-0.8616,-0.892,-0.9605,-0.9971,-1.0447,-1.1388,-1.1242,-1.1055,-1.1055,-1.0762,-1.0596,-1.0596,-1.0469,-1.0459,-1.0587,-1.0838,-1.1099,-1.1308,-1.205,-1.2544,-1.265,-1.3012,-1.3198,-1.3198,-1.3198,-1.3198,-1.3198,-1.3198,-1.3198,-1.3198,-1.3198,-1.3198,0.5373,0.7845,1.0228,1.2426,0.0,1.3794,1.3507,1.3206,1.2959,1.2806,0.0,0.0,0.0,0.0,0.0,0.0,0.0,0.0,0.0,0.0,0.0,0.0,0.0,0.0,0.0,0.0,0.0,0.0,0.0,0.0,0.0,0.0,0.0,0.0,0.0,0.0,0.0,0.0,0.0,0.0,0.0,0.0,-0.0054,-0.0915,-0.2156,-0.3618,-0.3674,-0.4112,-0.4701,-0.4701,-0.4701,-0.4707,-0.4779,-0.4765,-0.4711,-0.4782,-0.4762,-0.4687,-0.4609,-0.4538,-0.4467,-0.4385,-0.4519,-0.4758,-0.5203,-0.577,-0.6444,-0.6936,-0.7499,-0.7999,-0.8088,-0.8229,-0.839,-0.839,-0.8377,-0.8417,-0.8564,-0.837,-0.8163,-0.8163,-0.8163,-0.8297,-0.8778,-0.9156,-0.9838,-1.107,-1.0889,-1.0605,-1.0605,-1.042,-1.0283,-1.0283,-1.0283,-1.0283,-1.0283,-1.0954,-1.1394,-1.1394,-1.2318,-1.2838,-1.2838,-1.3082,-1.3198,-1.3198,-1.3198,-1.3198,-1.3198,-1.3198,-1.3198,-1.3198,-1.3198,-1.3198,0.3742,0.6654,0.9637,1.2209,1.3028,0.0,1.3041,1.2625,1.2211,0.0,0.0,0.0,0.0,0.0,0.0,0.0,0.0,0.0,0.0,0.0,0.0,0.0,0.0,0.0,0.0,0.0,0.0,0.0,0.0,0.0,0.0,0.0,0.0,0.0,0.0,0.0647,0.0148,0.005,0.0,0.0,0.0,0.0,0.0,-0.0744,-0.1773,-0.2997,-0.314,-0.3564,-0.4277,-0.4277,-0.4331,-0.4399,-0.4524,-0.4514,-0.444,-0.4568,-0.4548,-0.4515,-0.4433,-0.4348,-0.419,-0.4164,-0.4056,-0.408,-0.4693,-0.4971,-0.5229,-0.6082,-0.6712,-0.7146,-0.7368,-0.7664,-0.7882,-0.7882,-0.8076,-0.823,-0.8283,-0.8063,-0.7849,-0.7849,-0.7949,-0.8048,-0.8048,-0.8749,-0.9663,-1.0637,-1.0508,-1.0283,-1.0283,-1.0283,-1.0283,-1.0283,-1.0283,-1.0283,-1.0283,-1.1217,-1.1811,-1.1811,-1.2685,-1.3198,-1.3198,-1.3198,-1.3198,-1.3198,-1.3198,-1.3198,-1.3198,-1.3198,-1.3198,-1.3198,-1.3198,-1.3198,0.1698,0.53,0.8827,0.0,1.1484,1.1695,0.0,0.0,1.185,0.0,0.0,0.0,0.0,0.0,0.0,0.0,0.0,0.0,0.0,0.0,0.0,0.0,0.0,0.0,0.0,0.0,0.0,0.0,0.0,0.0,0.0,0.0,0.3034,0.2837,0.1564,0.0,0.0773,0.0284,0.0,0.0,0.0,0.0,0.0,-0.0097,-0.0644,-0.1421,-0.1428,-0.2145,-0.3265,-0.3265,-0.3571,-0.408,-0.41,-0.4178,-0.4224,-0.4247,-0.4372,-0.4498,-0.4321,-0.421,-0.4174,-0.4043,-0.3944,-0.3846,-0.4077,-0.4497,-0.5072,-0.5858,-0.6536,-0.72,-0.7682,-0.7861,-0.7882,-0.7882,-0.7756,-0.7708,-0.7929,-0.7749,-0.7574,-0.7574,-0.8098,-0.8575,-0.8575,-0.9466,-1.0204,-1.0371,-1.0312,-1.0283,-1.0283,-1.0283,-1.0283,-1.0283,-1.0283,-1.0283,-1.0283,-1.1217,-1.1811,-1.1811,-1.2685,-1.3198,-1.3198,-1.3198,-1.3198,-1.3198,-1.3198,-1.3198,-1.3198,-1.3198,-1.3198,-1.3198,-1.3198,-1.3198,0.112,0.3772,0.6222,0.0,0.9227,0.9677,1.0826,0.0,0.0,0.0,0.0,0.0,0.0,0.0,0.0,0.0,0.0,0.0,0.0,0.0,0.0,0.0,0.0,0.0,0.0,0.0,0.0,0.0,0.0,0.0,0.0,0.3887,0.3391,0.3021,0.1968,0.0,0.0895,0.032,0.0,0.0,0.0,0.0,0.0,0.0,-0.0425,-0.1124,-0.1124,-0.1679,-0.2616,-0.2966,-0.3266,-0.3518,-0.387,-0.406,-0.407,-0.407,-0.4161,-0.4206,-0.4141,-0.4063,-0.3982,-0.3914,-0.3792,-0.3687,-0.3751,-0.3954,-0.4244,-0.4648,-0.5418,-0.618,-0.6463,-0.6997,-0.7377,-0.7377,-0.7315,-0.7255,-0.735,-0.7315,-0.7214,-0.7214,-0.749,-0.7855,-0.8193,-0.8878,-0.9518,-0.9804,-1.0127,-1.0283,-1.0283,-1.0283,-1.0283,-1.0283,-1.0283,-1.0283,-1.0283,-1.0954,-1.1468,-1.1774,-1.2437,-1.2943,-1.3198,-1.3198,-1.3198,-1.3198,-1.3198,-1.3198,-1.3198,-1.3198,-1.3198,-1.3198,-1.3198,-1.3198,0.0181,0.0,0.3471,0.5814,0.681,0.7596,0.0,0.0,0.0,0.0,0.0,0.0,0.0,0.0,0.0,0.0,0.0,0.0,0.0,0.0,0.0,0.0,0.0,0.0,0.0,0.0,0.0,0.0,0.0,0.0,0.4147,0.4043,0.3714,0.313,0.2416,0.1741,0.1118,0.0359,0.0,0.0,0.0,0.0,0.0,0.0,-0.032,-0.0798,-0.0798,-0.1239,-0.1907,-0.254,-0.2881,-0.3075,-0.3662,-0.3931,-0.3961,-0.3961,-0.3985,-0.4016,-0.3975,-0.3887,-0.3785,-0.3748,-0.3666,-0.3581,-0.3581,-0.3581,-0.3646,-0.3883,-0.45,-0.5125,-0.538,-0.6139,-0.6816,-0.6816,-0.6894,-0.6979,-0.6979,-0.6979,-0.6979,-0.6979,-0.7105,-0.7363,-0.7829,-0.848,-0.9039,-0.9439,-0.9961,-1.0283,-1.0283,-1.0283,-1.0283,-1.0283,-1.0283,-1.0283,-1.0283,-1.0878,-1.1356,-1.1774,-1.2365,-1.2826,-1.3198,-1.3198,-1.3198,-1.3198,-1.3198,-1.3198,-1.3198,-1.3198,-1.3198,-1.3198,-1.3198,-1.3198,-0.2211,-0.0572,0.0,0.2905,0.4377,0.0,0.0,0.0,0.0,0.0,0.0,0.0,0.0,0.0,0.0,0.0,0.0,0.0,0.0,0.0,0.0,0.0,0.0,0.0,0.0,0.0,0.0,0.0,0.0,0.0,0.4039,0.3887,0.3799,0.3745,0.305,0.2361,0.1739,0.0583,0.0,0.0,0.0,0.0,0.0,0.0,0.0,-0.0045,-0.0045,-0.0405,-0.1035,-0.1618,-0.2199,-0.2781,-0.3372,-0.3687,-0.3802,-0.3802,-0.3894,-0.3999,-0.3853,-0.3799,-0.3768,-0.3636,-0.3585,-0.3581,-0.3581,-0.3581,-0.3711,-0.4232,-0.4399,-0.4565,-0.5145,-0.5755,-0.6221,-0.6221,-0.6647,-0.6979,-0.6979,-0.6979,-0.6979,-0.6979,-0.7447,-0.787,-0.7912,-0.8756,-0.9478,-0.9478,-0.9961,-1.0283,-1.0283,-1.0283,-1.0283,-1.0283,-1.0283,-1.0283,-1.0283,-1.1217,-1.1774,-1.1811,-1.265,-1.3163,-1.3198,-1.3198,-1.3198,-1.3198,-1.3198,-1.3198,-1.3198,-1.3198,-1.3198,-1.3198,-1.3198,-1.3198,-0.3133,0.0,0.0,0.08,0.1705,0.2545,0.0,0.0,0.0,0.0,0.0,0.0,0.0,0.0,0.0,0.0,0.0,0.0,0.0,0.0,0.0,0.0,0.0,0.0,0.0,0.0,0.0,0.0,0.0,0.0,0.4755,0.4491,0.4164,0.3705,0.3057,0.2228,0.1251,0.0403,0.0,0.0,0.0,0.0,0.0,0.0,0.0,0.0,0.0,-0.0135,-0.0404,-0.1385,-0.1919,-0.223,-0.3217,-0.3612,-0.3656,-0.3656,-0.369,-0.3731,-0.3676,-0.3656,-0.3646,-0.3595,-0.3581,-0.3581,-0.3581,-0.3581,-0.3622,-0.3836,-0.4136,-0.4522,-0.513,-0.5744,-0.6264,-0.6647,-0.6852,-0.6979,-0.6979,-0.6979,-0.6979,-0.6979,-0.7189,-0.7321,-0.7321,-0.7938,-0.8602,-0.8918,-0.9439,-0.9922,-1.0244,-1.0283,-1.0283,-1.0283,-1.0283,-1.0283,-1.0283,-1.0916,-1.1431,-1.1774,-1.2389,-1.2908,-1.3198,-1.3198,-1.3198,-1.3198,-1.3198,-1.3198,-1.3198,-1.3198,-1.3198,-1.3198,-1.3198,-1.3198,-0.4151,0.0,0.0,0.0,0.0,0.0393,0.0,0.0,0.0,0.0,0.0,0.0,0.0,0.0,0.0,0.0,0.0,0.0,0.0,0.0,0.0,0.0,0.0,0.0,0.0,0.0,0.0,0.0,0.0,0.0,0.5332,0.4866,0.4304,0.3626,0.3034,0.2228,0.1207,0.0583,0.018,0.0,0.0,0.0,0.0,0.0,0.0,0.0,0.0,0.0,-0.009,-0.1073,-0.1607,-0.1917,-0.2901,-0.3442,-0.3581,-0.3581,-0.3581,-0.3581,-0.3581,-0.3581,-0.3581,-0.3581,-0.3581,-0.3581,-0.3581,-0.3581,-0.3581,-0.3581,-0.3836,-0.4224,-0.4618,-0.5313,-0.6087,-0.681,-0.6979,-0.6979,-0.6979,-0.6979,-0.6979,-0.6979,-0.6979,-0.6979,-0.6979,-0.7489,-0.8077,-0.8635,-0.9159,-0.9677,-1.0235,-1.0283,-1.0283,-1.0283,-1.0283,-1.0283,-1.0283,-1.0725,-1.1244,-1.1774,-1.2246,-1.272,-1.3198,-1.3198,-1.3198,-1.3198,-1.3198,-1.3198,-1.3198,-1.3198,-1.3198,-1.3198,-1.3198,-1.3198,0.0,0.0,0.0,0.0,0.0,0.0,0.0,0.0,0.0,0.0,0.0,0.0,0.0,0.0,0.0,0.0,0.0,0.0,0.0,0.0,0.0,0.0,0.0,0.0,0.0,0.0,0.0,0.0,0.0,0.6742,0.58,0.4901,0.4184,0.3622,0.3034,0.2406,0.183,0.1207,0.0627,0.0045,0.0,0.0,0.0,0.0,0.0,0.0,0.0,0.0,-0.0045,-0.0672,-0.1251,-0.183,-0.245,-0.3078,-0.3578,-0.3581,-0.3581,-0.3581,-0.3581,-0.3581,-0.3581,-0.3581,-0.3581,-0.3581,-0.3581,-0.3581,-0.3581,-0.3581,-0.3581,-0.3626,-0.3622,-0.4447,-0.5561,-0.6725,-0.6979,-0.6979,-0.6979,-0.6979,-0.6979,-0.6979,-0.6979,-0.6979,-0.6979,-0.7489,-0.8077,-0.8594,-0.9119,-0.9677,-1.0205,-1.0283,-1.0283,-1.0283,-1.0283,-1.0283,-1.0283,-1.0725,-1.1207,-1.1737,-1.2246,-1.2685,-1.3163,-1.3198,-1.3198,-1.3198,-1.3198,-1.3198,-1.3198,-1.3198,-1.3198,-1.3198,-1.3198,-1.3198,-0.5498,0.0,0.0,0.0,0.0,0.0,0.0,0.0,0.0,0.0,0.0,0.0,0.0,0.0,0.0,0.0,0.0,0.0,0.0,0.0,0.0,0.0,0.0,0.0,0.0,0.0,0.0,0.0,0.0,0.749,0.7008,0.556,0.4398,0.3626,0.3034,0.2627,0.245,0.1429,0.0806,0.0627,0.0225,0.0,0.0,0.0,0.0,0.0,0.0,0.0,-0.0045,-0.0672,-0.0984,-0.1252,-0.2275,-0.2807,-0.299,-0.3442,-0.3581,-0.3581,-0.3581,-0.3581,-0.3581,-0.3581,-0.3581,-0.3581,-0.3581,-0.3581,-0.3581,-0.3581,-0.3581,-0.3711,-0.4092,-0.4739,-0.548,-0.6258,-0.6435,-0.652,-0.6894,-0.6979,-0.6979,-0.6979,-0.6979,-0.6979,-0.6979,-0.7147,-0.7447,-0.8028,-0.8602,-0.9119,-0.9637,-1.004,-1.0283,-1.0283,-1.0283,-1.0283,-1.0283,-1.0725,-1.1057,-1.1207,-1.2018,-1.2544,-1.2685,-1.3012,-1.3198,-1.3198,-1.3198,-1.3198,-1.3198,-1.3198,-1.3198,-1.3198,-1.3198,-1.3391,-0.6005,-0.5701,-0.5353,0.0,0.0,0.0,-0.2572,-0.1642,0.0,0.0,0.0,0.0,0.0,0.0,0.0,0.0,0.0,0.0,0.0,0.0,0.0,0.0,0.0,0.0,0.0,0.0,0.0,0.0,0.8665,0.773,0.6812,0.5773,0.4724,0.3629,0.3262,0.2943,0.2719,0.2006,0.1385,0.0895,0.0538,0.0224,0.0,0.0,0.0,0.0,0.0,0.0,-0.0045,-0.0359,-0.0672,-0.0984,-0.1697,-0.2095,-0.2408,-0.299,-0.3181,-0.3187,-0.3514,-0.3497,-0.3412,-0.3537,-0.3534,-0.3497,-0.3561,-0.3581,-0.3581,-0.3581,-0.3581,-0.3707,-0.426,-0.4648,-0.513,-0.6007,-0.6184,-0.6349,-0.6894,-0.6979,-0.6979,-0.6979,-0.6979,-0.6979,-0.6979,-0.6979,-0.7273,-0.8111,-0.8521,-0.8958,-0.9716,-1.0127,-1.0283,-1.0283,-1.0283,-1.0283,-1.0283,-1.0534,-1.0791,-1.0981,-1.1763,-1.221,-1.221,-1.2838,-1.3094,-1.2908,-1.3094,-1.3198,-1.3198,-1.3198,-1.3198,-1.3198,-1.3198,-1.3459,-0.6778,-0.6509,-0.6141,0.0,0.0,0.0,-0.3363,-0.289,-0.256,0.0,0.0,0.0,0.0,0.0,0.0,0.0,0.0,0.0,0.0,0.0,0.0,0.0,0.0,0.0,0.0,0.0,0.0,0.9893,0.8989,0.7715,0.6007,0.5821,0.5116,0.3784,0.3633,0.335,0.2807,0.2719,0.214,0.1118,0.0984,0.0627,0.009,0.0045,0.0,0.0,0.0,0.0,0.0,0.0,-0.0312,-0.0801,-0.0889,-0.1242,-0.1772,-0.239,-0.2517,-0.2505,-0.3178,-0.3188,-0.3013,-0.3314,-0.3311,-0.3272,-0.345,-0.3534,-0.3581,-0.3581,-0.3581,-0.3711,-0.4176,-0.4303,-0.4609,-0.5744,-0.605,-0.6264,-0.681,-0.6937,-0.6979,-0.6979,-0.6979,-0.6979,-0.6979,-0.6979,-0.7356,-0.8349,-0.8635,-0.9039,-1.0,-1.0244,-1.0283,-1.0283,-1.0283,-1.0283,-1.0283,-1.0283,-1.0467,-1.0905,-1.1431,-1.1737,-1.1811,-1.265,-1.2943,-1.2579,-1.2978,-1.3198,-1.3198,-1.3198,-1.3198,-1.3198,-1.3198,-1.3459,0.0,0.0,0.0,0.0,0.0,0.0,-0.4471,-0.3594,-0.2843,0.0,0.0,0.0,0.0,0.0,0.0,0.0,0.0,0.0,0.0,0.0,0.0,0.0,0.0,0.0,0.0,0.0,1.0742,1.0197,0.9264,0.8249,0.7195,0.6487,0.5656,0.4667,0.395,0.3534,0.3442,0.2943,0.2583,0.2317,0.1385,0.0851,0.0716,0.0225,0.0,0.0,0.0,0.0,0.0,0.0,-0.0085,-0.0213,-0.0723,-0.0977,-0.1146,-0.1736,-0.1939,-0.1943,-0.2091,-0.2119,-0.2051,-0.2131,-0.2438,-0.2822,-0.2846,-0.3214,-0.3581,-0.3581,-0.3581,-0.3622,-0.3707,-0.3751,-0.3924,-0.4609,-0.513,-0.5653,-0.6221,-0.6683,-0.6979,-0.6979,-0.6979,-0.6979,-0.6979,-0.6979,-0.7063,-0.7314,-0.8095,-0.8756,-0.8999,-0.9765,-1.0283,-1.0283,-1.0283,-1.0283,-1.0283,-1.0283,-1.0361,-1.0428,-1.0878,-1.1356,-1.1774,-1.233,-1.2768,-1.3047,-1.3163,-1.3198,-1.3198,-1.3198,-1.3198,-1.3198,-1.3198,-1.3459,0.0,0.0,0.0,-0.5952,0.0,0.0,0.0,-0.3734,-0.3379,0.0,0.0,0.0,0.0,0.0,0.0,0.0,0.0,0.0,0.0,0.0,0.0,0.0,0.0,0.0,0.0,0.0,1.0036,0.9737,0.9431,0.8754,0.755,0.6684,0.5811,0.4945,0.4051,0.3581,0.3581,0.3306,0.299,0.2672,0.2095,0.1474,0.0895,0.0583,0.0269,0.0,0.0,0.0,0.0,0.0,0.0,-0.0041,-0.0325,-0.0453,-0.0504,-0.113,-0.1297,-0.1305,-0.1671,-0.1687,-0.1587,-0.1736,-0.1951,-0.2229,-0.2492,-0.2938,-0.3381,-0.3537,-0.3524,-0.3483,-0.3561,-0.3581,-0.3734,-0.4197,-0.4586,-0.5014,-0.5544,-0.602,-0.635,-0.635,-0.6486,-0.668,-0.6974,-0.6979,-0.7105,-0.7405,-0.7946,-0.848,-0.9039,-0.9385,-0.9649,-0.9923,-0.9766,-0.9727,-0.9941,-0.9961,-1.0049,-1.0273,-1.0725,-1.1019,-1.1067,-1.1774,-1.2354,-1.2838,-1.2838,-1.2978,-1.3198,-1.3198,-1.3198,-1.3198,-1.3198,-1.3459,0.0,0.0,0.0,0.0,0.0,-0.5901,0.0,0.0,0.0,0.0,0.0,0.0,0.0,0.0,0.0,0.0,0.0,0.0,0.0,0.0,0.0,0.0,0.0,0.0,0.0,0.0,0.9204,0.943,0.9575,0.9169,0.8018,0.6855,0.5879,0.519,0.416,0.3581,0.3581,0.3581,0.335,0.2854,0.2763,0.214,0.1073,0.0939,0.0583,0.0,0.0,0.0,0.0,0.0,0.0,0.0,0.0,0.0,-0.0042,-0.0533,-0.0646,-0.0641,-0.1237,-0.1268,-0.1102,-0.1373,-0.1454,-0.1576,-0.2168,-0.2657,-0.3053,-0.3295,-0.3318,-0.3293,-0.3459,-0.3493,-0.3588,-0.3906,-0.414,-0.4413,-0.4823,-0.5307,-0.5675,-0.5675,-0.5971,-0.6357,-0.6847,-0.6894,-0.7045,-0.7561,-0.768,-0.8071,-0.902,-0.8898,-0.8922,-0.944,-0.9209,-0.9141,-0.9447,-0.9554,-0.9775,-1.0137,-1.0608,-1.0725,-1.0428,-1.1404,-1.2102,-1.2508,-1.2483,-1.2728,-1.3198,-1.3098,-1.3098,-1.3198,-1.3198,-1.3391,0.0,0.0,0.0,0.0,-0.6993,0.0,0.0,0.0,0.0,0.0,0.0,0.0,0.0,0.0,0.0,0.0,0.0,0.0,0.0,0.0,0.0,0.0,0.0,0.0,0.0,0.0,0.0,1.0227,0.9653,0.9349,0.9541,0.7437,0.6149,0.6074,0.4447,0.3581,0.3581,0.3581,0.3578,0.349,0.2943,0.2361,0.1697,0.1163,0.0583,0.0,0.0,0.0,0.0,0.0,0.0,0.0,0.0,0.0,0.0,-0.0075,-0.0078,-0.0083,-0.0161,-0.0197,-0.0155,-0.0198,-0.0553,-0.1096,-0.1689,-0.2195,-0.2584,-0.2615,-0.2848,-0.3112,-0.3168,-0.3174,-0.3168,-0.3229,-0.366,-0.4056,-0.4111,-0.4871,-0.552,-0.552,-0.5875,-0.6297,-0.658,-0.6465,-0.6384,-0.6718,-0.6941,-0.7274,-0.7754,-0.8184,-0.8614,-0.9004,-0.9033,-0.9023,-0.9072,-0.9378,-0.9622,-0.967,-1.0106,-1.0544,-1.0905,-1.1872,-1.2437,-1.2508,-1.243,-1.2676,-1.3198,-1.271,-1.2722,-1.3198,-1.3198,-1.3232,0.0,0.0,0.0,0.0,0.0,0.0,-0.5459,0.0,-0.483,0.0,0.0,0.0,0.0,0.0,0.0,0.0,0.0,0.0,0.0,0.0,0.0,0.0,0.0,0.0,0.0,0.0,0.0,0.0,0.0,0.9684,0.9479,0.737,0.6207,0.6207,0.4504,0.3581,0.3581,0.3581,0.3581,0.3581,0.335,0.2898,0.2317,0.1697,0.1103,0.0518,0.0173,0.0,0.0,0.0,0.0,0.0,0.0,0.0,0.0,0.0,0.0,0.0,0.0,0.0,0.0,0.0,-0.0338,-0.0906,-0.1512,-0.1917,-0.2288,-0.273,-0.2911,-0.3015,-0.3062,-0.3082,-0.3062,-0.3015,-0.3248,-0.3441,-0.3384,-0.409,-0.4738,-0.4738,-0.5266,-0.5773,-0.6032,-0.6156,-0.6236,-0.6357,-0.6664,-0.7049,-0.7523,-0.7568,-0.7803,-0.8577,-0.8207,-0.8086,-0.8613,-0.8809,-0.9014,-0.9248,-0.9443,-0.9639,-0.9843,-1.0465,-1.0957,-1.1227,-1.1721,-1.2242,-1.2722,-1.281,-1.2824,-1.2803,-1.3082,-1.3198,-0.8564,0.0,0.0,0.0,0.0,0.0,0.0,0.0,0.0,0.0,0.0,0.0,0.0,0.0,0.0,0.0,0.0,0.0,0.0,0.0,0.0,0.0,0.0,0.0,0.0,0.0,0.0,0.0,0.9281,0.0,0.9279,0.7243,0.6091,0.6207,0.4504,0.3581,0.3581,0.3581,0.3581,0.3581,0.3581,0.3306,0.2672,0.2095,0.1484,0.088,0.0252,0.0,0.0,0.0,0.0,0.0,0.0,0.0,0.0,0.0,0.0,0.0,0.0,0.0,0.0,0.0,-0.0214,-0.0575,-0.1042,-0.1464,-0.1909,-0.2461,-0.2706,-0.2869,-0.2971,-0.2998,-0.2974,-0.2869,-0.2924,-0.2971,-0.2869,-0.343,-0.3941,-0.3941,-0.4587,-0.5184,-0.5357,-0.5702,-0.5981,-0.6062,-0.6243,-0.6565,-0.7057,-0.6851,-0.694,-0.78,-0.7299,-0.7176,-0.7844,-0.8112,-0.8458,-0.8984,-0.9004,-0.9004,-0.9004,-0.9389,-0.9786,-1.0134,-1.078,-1.1426,-1.2033,-1.2277,-1.2361,-1.2318,-1.2791,-1.2943,0.0,0.0,0.0,-0.6838,0.0,0.0,0.0,0.0,-0.5308,0.0,0.0,0.0,0.0,0.0,-0.681,-0.6307,0.0,0.0,0.0,0.0,0.0,0.0,0.0,0.0,0.0,0.0,0.0,0.0,0.8084,0.0,0.9347,0.706,0.5883,0.6202,0.4504,0.3581,0.3581,0.3581,0.3581,0.3581,0.3581,0.3306,0.2672,0.2095,0.1484,0.088,0.0252,0.0,0.0,0.0,0.0,0.0,0.0,0.0,0.0,0.0,0.0,0.0,0.0,0.0,0.0,0.0,0.0,-0.0034,-0.0034,-0.0639,-0.134,-0.1343,-0.2017,-0.2723,-0.2726,-0.273,-0.2726,-0.2723,-0.2726,-0.2726,-0.2723,-0.3043,-0.3335,-0.3335,-0.4016,-0.4634,-0.4646,-0.5011,-0.5404,-0.5685,-0.5517,-0.5487,-0.592,-0.5936,-0.6083,-0.6504,-0.6518,-0.6518,-0.6565,-0.7328,-0.8155,-0.895,-0.9004,-0.9004,-0.9004,-0.9455,-0.971,-0.971,-0.9682,-1.0165,-1.1126,-1.063,-1.09,-1.1811,-1.2282,-1.2282,0.0,0.0,-0.7613,-0.6344,0.0,0.0,0.0,0.0,0.0,0.0,0.0,0.0,0.0,0.0,-0.6258,-0.5696,-0.5437,-0.5087,0.0,0.0,0.0,0.0,0.0,0.0,0.0,0.0,0.0,0.6471,0.7301,0.807,0.0,0.699,0.5985,0.6207,0.4615,0.3676,0.3581,0.3581,0.3581,0.3581,0.3581,0.349,0.3262,0.2674,0.2058,0.1479,0.0841,0.038,0.0,0.0,0.0,0.0,0.0,0.0,0.0,0.0,0.0,0.0,0.0,0.0,0.0,0.0,0.0,-0.0067,-0.037,-0.0671,-0.1007,-0.1609,-0.1978,-0.2314,-0.2613,-0.2712,-0.2712,-0.2712,-0.2712,-0.2712,-0.2712,-0.3003,-0.329,-0.329,-0.3788,-0.428,-0.457,-0.473,-0.4985,-0.5378,-0.5585,-0.5734,-0.5882,-0.5913,-0.6068,-0.6457,-0.6488,-0.6609,-0.6871,-0.7414,-0.7856,-0.8114,-0.8123,-0.8123,-0.8123,-0.8541,-0.8772,-0.8772,-0.9329,-0.9773,-1.0111,-1.0323,-1.0409,-1.0415,-1.0586,-1.1077,-0.7563,-0.7426,0.0,0.0,-0.556,0.0,-0.4336,0.0,0.0,0.0,0.0,0.0,0.0,0.0,-0.5701,-0.5087,-0.5,-0.4783,0.0,-0.384,0.0,0.0,0.0,0.0,0.0,0.0,0.295,0.5322,0.6415,0.737,0.0,0.0,0.5901,0.6039,0.4589,0.3724,0.3581,0.3581,0.3581,0.3581,0.3581,0.3581,0.3578,0.2987,0.238,0.1754,0.1171,0.0555,0.0,0.0,0.0,0.0,0.0,0.0,0.0,0.0,0.0,0.0,0.0,0.0,0.0,0.0,0.0,-0.0065,-0.0351,-0.0554,-0.0803,-0.1376,-0.1652,-0.1809,-0.2109,-0.2311,-0.2447,-0.2447,-0.258,-0.2712,-0.2712,-0.2859,-0.3023,-0.3086,-0.3409,-0.377,-0.4097,-0.4274,-0.4602,-0.5214,-0.5522,-0.5672,-0.5672,-0.5672,-0.5797,-0.6037,-0.6068,-0.6305,-0.6841,-0.7127,-0.7383,-0.7666,-0.7695,-0.7695,-0.7695,-0.7947,-0.8173,-0.8336,-0.8706,-0.9079,-0.9381,-0.9626,-0.9659,-0.9455,-0.9588,-1.014]}]]